GEFSSGP_prec_meanprecacc_168.txt.gz
Total_Precipitation_Accumulation
0.00 0.00 0.00 0.00 0.01 0.02 0.06 0.07 0.11 0.14 0.21 0.18 0.20 0.22 0.28 0.37 0.49 1.00 0.62 0.31 0.20 0.10 0.05 0.05 0.05 0.05 0.06 0.07 0.09 0.10 0.09 0.09 0.09 0.10 0.10 0.11 0.10 0.10 0.10 0.11 0.14 0.19 0.23 0.22 0.20 0.19 0.21 0.18 0.13
0.00 0.00 0.00 0.00 0.01 0.04 0.09 0.08 0.13 0.16 0.19 0.20 0.18 0.21 0.24 0.29 0.21 0.17 0.18 0.19 0.20 0.10 0.05 0.04 0.05 0.05 0.06 0.06 0.09 0.11 0.11 0.09 0.09 0.09 0.10 0.10 0.10 0.09 0.10 0.11 0.15 0.22 0.27 0.27 0.24 0.22 0.20 0.17 0.13
0.00 0.00 0.00 0.00 0.00 0.03 0.11 0.14 0.18 0.19 0.19 0.19 0.25 0.31 0.32 0.38 0.32 0.20 0.18 0.19 0.21 0.11 0.06 0.05 0.05 0.05 0.06 0.07 0.08 0.11 0.12 0.10 0.10 0.10 0.10 0.10 0.10 0.11 0.12 0.14 0.15 0.18 0.23 0.22 0.17 0.16 0.15 0.16 0.13
0.00 0.00 0.00 0.00 0.01 0.04 0.09 0.17 0.24 0.21 0.22 0.24 0.30 0.41 0.38 0.40 0.35 0.28 0.23 0.24 0.21 0.14 0.08 0.05 0.06 0.07 0.08 0.10 0.11 0.12 0.11 0.12 0.12 0.13 0.14 0.15 0.14 0.14 0.16 0.20 0.21 0.20 0.21 0.19 0.16 0.15 0.14 0.16 0.13
0.00 0.00 0.00 0.01 0.02 0.05 0.08 0.17 0.29 0.31 0.32 0.32 0.38 0.55 0.64 0.61 0.60 0.53 0.33 0.30 0.30 0.20 0.12 0.08 0.07 0.10 0.12 0.15 0.17 0.19 0.19 0.18 0.19 0.20 0.21 0.20 0.19 0.19 0.20 0.21 0.22 0.21 0.22 0.20 0.18 0.19 0.17 0.15 0.14
0.00 0.00 0.00 0.01 0.02 0.06 0.09 0.19 0.25 0.27 0.28 0.26 0.41 0.72 1.07 0.99 0.78 0.82 0.64 0.42 0.38 0.25 0.16 0.13 0.10 0.14 0.19 0.22 0.25 0.28 0.25 0.23 0.23 0.24 0.25 0.23 0.19 0.19 0.18 0.19 0.20 0.23 0.25 0.25 0.20 0.14 0.11 0.10 0.12
0.00 0.00 0.00 0.01 0.04 0.07 0.13 0.19 0.25 0.23 0.23 0.35 0.62 0.97 1.30 1.22 0.95 0.90 0.86 0.63 0.55 0.39 0.23 0.19 0.16 0.15 0.23 0.30 0.28 0.27 0.25 0.25 0.26 0.31 0.33 0.28 0.23 0.19 0.19 0.21 0.22 0.23 0.23 0.20 0.13 0.09 0.08 0.08 0.09
0.00 0.00 0.00 0.01 0.04 0.10 0.14 0.22 0.26 0.22 0.32 0.51 0.81 0.96 1.20 1.27 1.07 0.87 0.81 0.70 0.62 0.57 0.39 0.33 0.32 0.28 0.27 0.29 0.30 0.29 0.27 0.28 0.29 0.29 0.28 0.24 0.19 0.19 0.20 0.20 0.20 0.20 0.21 0.20 0.16 0.12 0.12 0.12 0.11
0.00 0.00 0.00 0.01 0.05 0.13 0.16 0.18 0.19 0.21 0.31 0.52 0.66 0.69 0.98 1.10 0.98 0.96 0.92 0.80 0.71 0.65 0.63 0.62 0.51 0.45 0.41 0.34 0.28 0.31 0.27 0.28 0.27 0.23 0.21 0.21 0.25 0.32 0.31 0.26 0.26 0.26 0.27 0.26 0.22 0.20 0.18 0.16 0.15
0.00 0.00 0.01 0.02 0.06 0.12 0.16 0.19 0.18 0.20 0.23 0.38 0.59 0.69 0.76 0.95 1.05 1.11 1.13 1.03 0.95 0.91 0.94 0.94 0.85 0.72 0.62 0.54 0.51 0.48 0.40 0.35 0.30 0.34 0.29 0.30 0.56 0.66 0.57 0.59 0.50 0.46 0.41 0.33 0.32 0.30 0.25 0.23 0.22
0.00 0.00 0.01 0.02 0.04 0.08 0.14 0.16 0.15 0.22 0.34 0.41 0.72 1.06 0.97 1.09 1.25 1.39 1.38 1.37 1.39 1.30 1.05 0.95 1.02 1.00 1.06 1.11 0.92 0.87 0.82 0.71 0.56 0.69 0.65 0.68 0.86 0.80 0.81 0.88 0.74 0.61 0.53 0.50 0.54 0.42 0.35 0.33 0.38
0.00 0.02 0.03 0.03 0.03 0.05 0.07 0.13 0.21 0.29 0.49 0.61 0.82 1.06 1.33 1.32 1.52 1.54 1.60 1.65 1.59 1.62 1.41 1.16 1.07 1.05 1.18 1.34 1.27 1.22 1.14 1.03 0.92 0.98 0.84 0.95 1.08 1.17 1.26 1.42 1.25 1.12 1.01 0.98 0.89 0.79 0.63 0.58 0.58
0.00 0.01 0.03 0.04 0.04 0.03 0.07 0.16 0.22 0.24 0.26 0.48 0.69 0.85 1.24 1.29 1.32 1.58 1.79 2.07 2.13 1.96 1.76 1.53 1.31 1.26 1.34 1.47 1.50 1.45 1.45 1.38 1.46 1.53 1.31 1.29 1.26 1.36 1.64 1.68 1.81 1.54 1.51 1.45 1.33 1.15 1.09 0.97 0.87
0.00 0.01 0.02 0.03 0.03 0.04 0.09 0.14 0.18 0.15 0.16 0.26 0.42 0.62 0.89 1.08 1.32 1.70 1.98 2.29 2.65 2.47 2.12 1.88 1.73 1.53 1.42 1.44 1.55 1.56 1.52 1.64 1.75 1.89 1.77 1.71 1.74 1.87 2.21 2.28 2.19 1.96 1.97 2.06 2.04 1.84 1.62 1.44 1.33
0.01 0.01 0.01 0.02 0.03 0.04 0.07 0.15 0.16 0.19 0.19 0.23 0.31 0.49 0.70 1.09 1.35 1.86 2.28 2.53 2.83 2.60 2.53 2.34 2.16 2.03 1.74 1.59 1.67 1.77 1.69 1.72 1.77 1.98 2.11 2.09 2.13 2.37 2.43 2.66 2.60 2.40 2.30 2.25 2.20 2.34 2.32 1.95 1.65
0.01 0.01 0.02 0.02 0.02 0.03 0.05 0.14 0.16 0.18 0.18 0.22 0.32 0.52 0.74 1.02 1.31 1.58 1.91 2.23 2.72 2.77 2.53 2.50 2.24 2.08 2.09 1.99 2.08 2.14 2.24 2.30 2.20 2.22 2.51 2.60 2.59 2.63 2.68 2.69 2.68 2.59 2.55 2.74 2.80 2.70 2.62 2.48 2.21
0.01 0.01 0.02 0.03 0.03 0.04 0.04 0.13 0.22 0.16 0.16 0.23 0.32 0.57 0.95 1.06 1.25 1.33 1.59 1.86 2.25 2.30 2.33 2.38 2.31 2.15 2.13 2.31 2.60 2.74 2.90 3.07 3.16 3.10 3.29 3.26 3.07 3.02 3.12 3.16 3.19 3.05 3.08 3.04 2.88 3.04 2.93 2.81 2.58
0.01 0.02 0.02 0.02 0.03 0.04 0.04 0.11 0.25 0.28 0.30 0.35 0.39 0.55 0.86 0.99 1.31 1.51 1.62 1.67 2.02 2.15 2.28 2.39 2.52 2.60 2.56 2.59 2.78 3.13 3.26 3.42 3.75 3.80 3.82 3.86 3.87 3.82 3.83 3.75 3.73 3.59 3.48 3.33 3.23 3.17 2.95 2.79 2.56
0.01 0.01 0.02 0.02 0.03 0.04 0.09 0.17 0.25 0.31 0.36 0.48 0.61 0.66 0.73 0.90 1.30 1.68 1.83 1.91 2.20 2.38 2.52 2.45 2.57 2.79 2.96 3.25 3.23 3.36 3.67 4.00 4.16 4.36 4.45 4.40 4.30 4.29 4.15 4.04 4.04 3.85 3.67 3.46 3.32 3.20 3.11 2.80 2.55
0.00 0.01 0.02 0.03 0.05 0.07 0.12 0.23 0.29 0.34 0.39 0.49 0.62 0.67 0.68 0.89 1.21 1.62 1.79 2.05 2.23 2.36 2.56 2.65 2.73 3.07 3.54 4.01 4.43 4.75 5.03 5.00 5.13 5.17 5.11 4.90 4.74 4.61 4.42 4.40 4.29 4.03 3.82 3.57 3.35 3.21 3.16 2.92 2.70
0.01 0.01 0.02 0.03 0.06 0.10 0.14 0.31 0.40 0.45 0.52 0.56 0.65 0.71 0.81 1.01 1.29 1.48 1.69 1.95 2.18 2.36 2.58 2.76 3.08 3.65 4.43 4.88 5.26 5.76 6.06 5.84 5.62 5.35 5.22 5.08 5.02 5.00 4.81 4.67 4.37 4.11 3.81 3.52 3.25 3.05 2.98 2.90 2.78
0.01 0.01 0.02 0.04 0.06 0.12 0.15 0.37 0.59 0.65 0.73 0.70 0.80 0.93 1.07 1.17 1.31 1.48 1.66 1.92 2.22 2.55 2.67 2.85 3.38 4.08 4.70 5.19 5.76 6.30 6.56 6.63 6.46 5.92 5.42 4.96 4.57 4.33 4.21 4.12 3.90 3.65 3.38 3.17 2.93 2.73 2.63 2.72 2.63
0.01 0.01 0.01 0.04 0.06 0.10 0.13 0.32 0.72 0.93 1.00 0.99 1.04 1.08 1.12 1.14 1.25 1.42 1.62 1.79 1.94 2.23 2.67 3.01 3.56 4.21 4.82 5.49 6.17 6.60 6.85 6.86 6.47 5.66 4.89 4.39 4.03 3.65 3.38 3.23 3.12 2.96 2.80 2.63 2.55 2.49 2.39 2.35 2.28
0.01 0.01 0.02 0.05 0.06 0.12 0.13 0.29 0.80 1.17 1.37 1.37 1.28 1.26 1.22 1.14 1.15 1.23 1.43 1.56 1.84 2.13 2.45 2.95 3.27 3.86 4.53 5.09 5.61 5.76 5.92 5.89 5.49 5.03 4.51 4.08 3.54 2.99 2.60 2.38 2.27 2.16 2.06 2.05 2.08 2.08 2.04 2.01 1.99
0.01 0.03 0.10 0.19 0.23 0.23 0.17 0.36 0.85 1.20 1.22 1.22 1.22 1.31 1.28 1.11 1.12 1.32 1.58 1.53 1.77 2.05 2.39 2.79 3.17 3.53 4.01 4.50 4.95 5.20 5.36 5.23 4.76 4.30 3.86 3.38 2.87 2.41 2.03 1.83 1.76 1.69 1.65 1.61 1.64 1.66 1.65 1.65 1.67
0.02 0.04 0.17 0.31 0.35 0.37 0.36 0.66 1.07 1.13 1.05 1.01 1.01 1.07 1.18 1.18 1.15 1.20 1.38 1.46 1.69 1.89 2.13 2.45 2.77 3.10 3.28 3.45 3.81 4.08 4.26 4.14 3.81 3.33 2.85 2.52 2.22 1.92 1.67 1.48 1.40 1.29 1.19 1.17 1.22 1.26 1.29 1.29 1.37
0.03 0.06 0.12 0.15 0.19 0.37 0.69 0.97 1.33 1.31 1.19 1.11 0.99 1.00 1.10 1.04 1.02 1.09 1.22 1.35 1.56 1.82 2.06 2.30 2.42 2.57 2.72 2.81 2.88 2.93 3.06 2.98 2.76 2.49 2.21 1.92 1.62 1.37 1.21 1.08 0.99 0.94 0.88 0.89 0.95 1.00 1.01 1.04 1.12
0.05 0.06 0.09 0.15 0.35 0.54 0.80 1.26 1.60 1.74 1.64 1.52 1.21 1.10 1.05 1.07 1.06 1.08 1.15 1.28 1.39 1.46 1.72 1.96 2.04 2.10 2.14 2.15 2.17 2.17 2.18 2.11 2.04 1.90 1.74 1.47 1.26 1.08 0.97 0.82 0.73 0.71 0.72 0.73 0.72 0.77 0.81 0.82 0.87
0.07 0.09 0.11 0.18 0.26 0.53 0.88 1.46 1.71 1.97 2.06 1.90 1.59 1.40 1.34 1.30 1.21 1.15 1.16 1.17 1.26 1.31 1.42 1.61 1.78 1.77 1.80 1.85 1.81 1.71 1.73 1.69 1.65 1.56 1.48 1.33 1.20 1.05 0.93 0.83 0.77 0.72 0.67 0.64 0.66 0.66 0.69 0.75 0.78
0.09 0.12 0.18 0.31 0.33 0.36 0.76 1.64 2.00 2.12 2.08 1.83 1.64 1.49 1.41 1.30 1.16 1.10 1.06 1.00 1.04 1.12 1.19 1.29 1.43 1.45 1.46 1.47 1.49 1.54 1.54 1.49 1.41 1.29 1.17 1.05 0.96 0.88 0.80 0.72 0.71 0.68 0.64 0.62 0.62 0.60 0.57 0.57 0.59

GEFSSGP_prec_meanprecacc_174.txt.gz
Total_Precipitation_Accumulation
0.00 0.00 0.00 0.00 0.01 0.02 0.06 0.07 0.12 0.15 0.22 0.19 0.20 0.22 0.28 0.37 0.50 1.00 0.62 0.32 0.20 0.10 0.06 0.06 0.06 0.06 0.07 0.07 0.10 0.10 0.10 0.10 0.10 0.11 0.11 0.11 0.11 0.11 0.11 0.11 0.14 0.20 0.23 0.22 0.20 0.21 0.21 0.19 0.13
0.00 0.00 0.00 0.00 0.01 0.04 0.09 0.09 0.13 0.18 0.21 0.20 0.19 0.21 0.24 0.29 0.21 0.17 0.19 0.20 0.20 0.10 0.06 0.04 0.05 0.06 0.06 0.07 0.09 0.12 0.11 0.09 0.09 0.10 0.10 0.11 0.10 0.10 0.10 0.12 0.15 0.22 0.27 0.27 0.26 0.24 0.21 0.17 0.13
0.00 0.00 0.00 0.00 0.01 0.04 0.11 0.14 0.18 0.20 0.21 0.21 0.26 0.32 0.33 0.39 0.33 0.21 0.19 0.19 0.21 0.11 0.06 0.05 0.05 0.05 0.07 0.07 0.09 0.12 0.12 0.10 0.10 0.10 0.10 0.11 0.11 0.11 0.13 0.15 0.16 0.19 0.24 0.23 0.18 0.16 0.16 0.16 0.13
0.00 0.00 0.00 0.01 0.01 0.04 0.09 0.18 0.24 0.22 0.24 0.26 0.31 0.43 0.40 0.41 0.35 0.28 0.24 0.25 0.21 0.15 0.08 0.05 0.07 0.07 0.09 0.10 0.11 0.13 0.12 0.12 0.12 0.13 0.15 0.15 0.15 0.14 0.17 0.21 0.22 0.21 0.21 0.19 0.17 0.16 0.15 0.16 0.13
0.00 0.00 0.01 0.01 0.02 0.05 0.09 0.17 0.30 0.32 0.33 0.33 0.40 0.58 0.66 0.62 0.61 0.54 0.34 0.30 0.30 0.20 0.13 0.08 0.08 0.10 0.13 0.16 0.18 0.20 0.19 0.18 0.19 0.20 0.21 0.20 0.19 0.20 0.21 0.22 0.23 0.22 0.23 0.21 0.19 0.20 0.18 0.16 0.14
0.00 0.00 0.00 0.01 0.02 0.06 0.09 0.19 0.25 0.28 0.28 0.26 0.42 0.73 1.08 1.00 0.79 0.83 0.66 0.43 0.38 0.26 0.16 0.14 0.11 0.15 0.20 0.24 0.26 0.28 0.26 0.23 0.23 0.25 0.26 0.23 0.20 0.19 0.19 0.20 0.21 0.23 0.26 0.26 0.20 0.14 0.12 0.11 0.12
0.00 0.00 0.00 0.01 0.04 0.07 0.13 0.19 0.26 0.24 0.23 0.35 0.63 0.99 1.30 1.22 0.96 0.91 0.87 0.64 0.56 0.41 0.24 0.20 0.17 0.18 0.25 0.33 0.30 0.28 0.26 0.26 0.27 0.31 0.33 0.28 0.23 0.20 0.19 0.22 0.23 0.24 0.24 0.21 0.14 0.10 0.09 0.09 0.10
0.00 0.00 0.00 0.01 0.04 0.10 0.14 0.22 0.26 0.22 0.32 0.51 0.81 0.97 1.20 1.28 1.07 0.87 0.82 0.71 0.64 0.59 0.42 0.36 0.35 0.32 0.31 0.32 0.33 0.31 0.28 0.30 0.30 0.30 0.29 0.25 0.20 0.20 0.21 0.20 0.21 0.20 0.21 0.21 0.17 0.14 0.13 0.13 0.13
0.00 0.00 0.00 0.02 0.05 0.14 0.17 0.19 0.20 0.22 0.32 0.53 0.66 0.70 0.98 1.11 0.99 0.97 0.93 0.82 0.73 0.66 0.65 0.64 0.54 0.48 0.44 0.38 0.32 0.34 0.30 0.30 0.29 0.26 0.23 0.23 0.27 0.34 0.33 0.27 0.27 0.28 0.29 0.27 0.24 0.22 0.21 0.18 0.17
0.00 0.00 0.01 0.02 0.06 0.12 0.17 0.20 0.19 0.21 0.25 0.39 0.59 0.69 0.77 0.95 1.05 1.12 1.15 1.05 0.97 0.93 0.96 0.96 0.87 0.74 0.65 0.58 0.57 0.53 0.44 0.40 0.34 0.38 0.33 0.34 0.59 0.69 0.60 0.61 0.52 0.49 0.44 0.36 0.35 0.32 0.28 0.26 0.25
0.00 0.00 0.01 0.02 0.04 0.08 0.14 0.17 0.16 0.22 0.34 0.41 0.72 1.06 0.97 1.09 1.26 1.41 1.40 1.40 1.41 1.32 1.07 0.97 1.05 1.01 1.09 1.15 0.97 0.94 0.90 0.79 0.67 0.79 0.73 0.74 0.91 0.84 0.85 0.91 0.77 0.65 0.57 0.54 0.60 0.47 0.39 0.37 0.43
0.00 0.02 0.03 0.03 0.03 0.06 0.08 0.14 0.21 0.29 0.50 0.62 0.83 1.06 1.33 1.33 1.53 1.56 1.63 1.69 1.62 1.64 1.43 1.20 1.10 1.08 1.22 1.38 1.33 1.29 1.22 1.14 1.07 1.11 0.95 1.06 1.17 1.25 1.33 1.46 1.28 1.16 1.06 1.06 0.98 0.88 0.69 0.64 0.65
0.00 0.01 0.03 0.04 0.04 0.03 0.08 0.16 0.22 0.25 0.26 0.48 0.69 0.85 1.24 1.30 1.34 1.60 1.81 2.09 2.16 2.00 1.81 1.59 1.36 1.31 1.38 1.52 1.55 1.50 1.51 1.45 1.54 1.65 1.42 1.37 1.35 1.45 1.72 1.74 1.87 1.59 1.56 1.53 1.43 1.25 1.16 1.05 0.95
0.00 0.01 0.02 0.03 0.04 0.05 0.09 0.14 0.18 0.16 0.16 0.27 0.42 0.63 0.90 1.09 1.35 1.72 2.00 2.32 2.68 2.51 2.17 1.94 1.80 1.59 1.47 1.49 1.60 1.62 1.60 1.72 1.81 1.94 1.82 1.78 1.81 1.95 2.28 2.34 2.24 2.00 2.01 2.13 2.13 1.93 1.71 1.51 1.40
0.01 0.01 0.01 0.02 0.03 0.04 0.07 0.15 0.17 0.19 0.19 0.23 0.32 0.49 0.71 1.10 1.37 1.88 2.30 2.57 2.87 2.64 2.56 2.38 2.22 2.09 1.78 1.63 1.73 1.84 1.76 1.79 1.84 2.04 2.17 2.17 2.20 2.44 2.49 2.72 2.66 2.46 2.37 2.33 2.29 2.44 2.41 2.03 1.72
0.01 0.01 0.02 0.03 0.02 0.04 0.06 0.16 0.18 0.18 0.19 0.23 0.32 0.53 0.75 1.04 1.34 1.60 1.93 2.26 2.75 2.80 2.56 2.54 2.28 2.11 2.13 2.03 2.12 2.20 2.29 2.36 2.27 2.30 2.59 2.67 2.67 2.72 2.76 2.75 2.75 2.67 2.63 2.82 2.89 2.79 2.71 2.57 2.30
0.01 0.01 0.02 0.03 0.03 0.04 0.05 0.14 0.23 0.17 0.16 0.23 0.33 0.58 0.96 1.07 1.28 1.35 1.61 1.90 2.29 2.35 2.39 2.44 2.36 2.20 2.17 2.36 2.64 2.79 2.96 3.14 3.24 3.20 3.39 3.35 3.16 3.10 3.18 3.22 3.27 3.12 3.17 3.13 2.97 3.13 3.04 2.91 2.68
0.01 0.02 0.02 0.02 0.03 0.04 0.04 0.11 0.25 0.28 0.30 0.35 0.40 0.56 0.86 1.01 1.36 1.56 1.66 1.73 2.09 2.24 2.35 2.45 2.57 2.64 2.61 2.64 2.83 3.19 3.34 3.48 3.82 3.89 3.90 3.93 3.96 3.90 3.90 3.84 3.83 3.68 3.58 3.44 3.34 3.28 3.04 2.87 2.64
0.01 0.01 0.02 0.03 0.03 0.04 0.09 0.17 0.26 0.31 0.37 0.48 0.62 0.68 0.74 0.91 1.34 1.74 1.90 2.01 2.28 2.45 2.59 2.49 2.61 2.84 3.02 3.32 3.31 3.45 3.79 4.11 4.25 4.44 4.52 4.49 4.40 4.37 4.22 4.12 4.14 3.95 3.77 3.57 3.43 3.30 3.19 2.88 2.61
0.00 0.01 0.02 0.03 0.05 0.07 0.12 0.23 0.29 0.34 0.39 0.49 0.63 0.69 0.70 0.90 1.23 1.65 1.84 2.14 2.33 2.44 2.64 2.71 2.79 3.12 3.60 4.08 4.50 4.84 5.13 5.11 5.24 5.27 5.21 5.01 4.85 4.73 4.53 4.48 4.36 4.11 3.91 3.66 3.43 3.29 3.24 2.99 2.78
0.01 0.01 0.02 0.03 0.06 0.10 0.14 0.31 0.40 0.45 0.52 0.56 0.66 0.73 0.82 1.03 1.31 1.50 1.71 1.99 2.23 2.41 2.64 2.83 3.14 3.72 4.52 5.00 5.38 5.86 6.15 5.91 5.68 5.45 5.34 5.24 5.17 5.12 4.93 4.80 4.48 4.23 3.93 3.61 3.32 3.13 3.06 2.98 2.88
0.01 0.01 0.02 0.04 0.06 0.12 0.15 0.37 0.59 0.65 0.73 0.70 0.80 0.94 1.08 1.19 1.32 1.49 1.68 1.95 2.24 2.57 2.71 2.91 3.44 4.14 4.77 5.28 5.86 6.40 6.64 6.71 6.54 6.02 5.52 5.09 4.75 4.52 4.39 4.30 4.07 3.79 3.49 3.26 3.01 2.80 2.70 2.81 2.72
0.01 0.01 0.01 0.04 0.06 0.10 0.13 0.32 0.72 0.93 1.00 0.99 1.05 1.08 1.13 1.16 1.27 1.44 1.64 1.81 1.96 2.24 2.68 3.04 3.60 4.24 4.87 5.54 6.25 6.68 6.91 6.93 6.55 5.77 5.01 4.50 4.14 3.80 3.55 3.42 3.30 3.11 2.90 2.71 2.62 2.57 2.46 2.42 2.36
0.01 0.01 0.02 0.05 0.07 0.13 0.14 0.29 0.81 1.17 1.37 1.37 1.28 1.27 1.24 1.15 1.16 1.24 1.45 1.58 1.86 2.14 2.46 2.97 3.29 3.89 4.57 5.12 5.64 5.80 5.97 5.95 5.57 5.13 4.65 4.23 3.68 3.15 2.76 2.55 2.44 2.32 2.20 2.15 2.15 2.15 2.11 2.08 2.08
0.01 0.03 0.10 0.20 0.23 0.23 0.17 0.37 0.86 1.20 1.22 1.22 1.23 1.32 1.29 1.12 1.14 1.34 1.59 1.54 1.79 2.07 2.41 2.82 3.20 3.56 4.03 4.52 4.98 5.22 5.40 5.29 4.83 4.39 3.95 3.50 3.00 2.55 2.19 1.98 1.91 1.84 1.78 1.72 1.74 1.76 1.73 1.73 1.77
0.02 0.04 0.17 0.32 0.36 0.37 0.36 0.66 1.08 1.13 1.05 1.01 1.01 1.07 1.19 1.19 1.16 1.22 1.39 1.48 1.72 1.91 2.15 2.49 2.80 3.13 3.31 3.48 3.84 4.10 4.30 4.19 3.86 3.38 2.91 2.60 2.34 2.06 1.82 1.66 1.58 1.46 1.34 1.29 1.32 1.36 1.38 1.38 1.47
0.03 0.06 0.12 0.15 0.19 0.38 0.69 0.98 1.34 1.31 1.19 1.11 0.99 1.00 1.10 1.06 1.03 1.11 1.24 1.37 1.58 1.84 2.09 2.34 2.46 2.62 2.76 2.87 2.93 2.97 3.09 3.02 2.80 2.54 2.26 1.98 1.72 1.51 1.36 1.23 1.13 1.07 1.01 1.00 1.05 1.09 1.06 1.10 1.19
0.05 0.06 0.09 0.16 0.35 0.55 0.81 1.27 1.61 1.75 1.65 1.53 1.23 1.12 1.07 1.09 1.07 1.09 1.17 1.30 1.40 1.48 1.75 2.00 2.09 2.18 2.26 2.28 2.27 2.22 2.21 2.14 2.08 1.94 1.79 1.55 1.37 1.20 1.08 0.95 0.86 0.82 0.81 0.81 0.79 0.83 0.86 0.87 0.92
0.07 0.09 0.11 0.18 0.27 0.54 0.89 1.47 1.72 1.99 2.07 1.91 1.60 1.42 1.36 1.32 1.22 1.17 1.19 1.20 1.28 1.34 1.45 1.67 1.87 1.87 1.92 2.00 1.93 1.77 1.76 1.72 1.68 1.62 1.56 1.45 1.34 1.18 1.05 0.92 0.87 0.82 0.77 0.72 0.73 0.71 0.73 0.79 0.82
0.09 0.12 0.18 0.32 0.34 0.38 0.78 1.65 2.01 2.13 2.09 1.84 1.65 1.50 1.43 1.32 1.17 1.11 1.07 1.02 1.06 1.16 1.25 1.38 1.55 1.57 1.56 1.60 1.62 1.63 1.61 1.56 1.45 1.34 1.24 1.14 1.04 0.93 0.87 0.80 0.79 0.76 0.71 0.69 0.68 0.64 0.61 0.61 0.64

GEFSSGP_prec_meanprecacc_180.txt.gz
Total_Precipitation_Accumulation
0.00 0.00 0.00 0.01 0.02 0.02 0.06 0.07 0.13 0.17 0.22 0.19 0.21 0.22 0.30 0.39 0.55 1.07 0.64 0.32 0.20 0.11 0.06 0.06 0.06 0.06 0.07 0.08 0.10 0.11 0.11 0.11 0.11 0.11 0.12 0.12 0.12 0.12 0.11 0.12 0.14 0.20 0.24 0.22 0.21 0.21 0.22 0.19 0.13
0.00 0.00 0.00 0.01 0.02 0.04 0.09 0.09 0.14 0.18 0.21 0.20 0.19 0.21 0.26 0.31 0.23 0.18 0.20 0.21 0.21 0.11 0.06 0.04 0.06 0.06 0.06 0.07 0.10 0.12 0.13 0.11 0.11 0.11 0.12 0.12 0.12 0.11 0.12 0.13 0.16 0.23 0.27 0.27 0.26 0.25 0.22 0.18 0.13
0.00 0.00 0.00 0.01 0.01 0.04 0.12 0.15 0.18 0.20 0.21 0.21 0.27 0.33 0.34 0.41 0.35 0.23 0.21 0.20 0.21 0.12 0.07 0.05 0.06 0.06 0.07 0.07 0.09 0.12 0.13 0.12 0.12 0.12 0.12 0.12 0.12 0.12 0.14 0.16 0.17 0.20 0.25 0.24 0.19 0.17 0.16 0.16 0.13
0.00 0.00 0.00 0.01 0.01 0.05 0.10 0.18 0.24 0.22 0.24 0.26 0.32 0.44 0.41 0.42 0.36 0.30 0.25 0.25 0.21 0.15 0.08 0.05 0.07 0.07 0.09 0.10 0.11 0.13 0.13 0.13 0.14 0.15 0.16 0.17 0.16 0.15 0.18 0.22 0.23 0.22 0.22 0.20 0.17 0.16 0.15 0.16 0.13
0.00 0.00 0.01 0.01 0.02 0.06 0.10 0.18 0.30 0.32 0.33 0.33 0.40 0.59 0.67 0.62 0.61 0.54 0.34 0.30 0.31 0.20 0.13 0.08 0.08 0.10 0.13 0.16 0.19 0.21 0.20 0.19 0.20 0.21 0.22 0.22 0.21 0.21 0.22 0.24 0.25 0.23 0.24 0.21 0.19 0.20 0.18 0.16 0.15
0.00 0.00 0.01 0.02 0.02 0.06 0.10 0.20 0.25 0.28 0.29 0.28 0.44 0.75 1.09 1.01 0.79 0.83 0.67 0.43 0.38 0.26 0.17 0.14 0.12 0.16 0.21 0.24 0.27 0.29 0.27 0.25 0.24 0.26 0.27 0.24 0.21 0.21 0.21 0.21 0.22 0.24 0.27 0.27 0.21 0.15 0.12 0.11 0.13
0.00 0.00 0.01 0.02 0.05 0.08 0.14 0.19 0.26 0.24 0.24 0.38 0.66 1.00 1.32 1.25 0.99 0.92 0.88 0.64 0.57 0.42 0.26 0.21 0.18 0.19 0.26 0.34 0.32 0.29 0.27 0.27 0.28 0.33 0.35 0.30 0.25 0.21 0.20 0.23 0.24 0.25 0.25 0.22 0.15 0.11 0.09 0.09 0.10
0.00 0.00 0.00 0.01 0.05 0.10 0.15 0.23 0.27 0.23 0.32 0.52 0.82 0.98 1.23 1.33 1.11 0.89 0.83 0.72 0.66 0.62 0.45 0.38 0.37 0.34 0.34 0.35 0.36 0.33 0.31 0.32 0.33 0.33 0.32 0.28 0.23 0.22 0.22 0.22 0.22 0.21 0.22 0.21 0.18 0.15 0.14 0.14 0.13
0.00 0.00 0.00 0.02 0.06 0.14 0.18 0.20 0.21 0.23 0.33 0.54 0.67 0.71 1.00 1.15 1.02 0.98 0.94 0.83 0.75 0.69 0.68 0.67 0.57 0.52 0.49 0.42 0.36 0.38 0.33 0.33 0.33 0.31 0.27 0.27 0.32 0.40 0.38 0.31 0.30 0.31 0.31 0.29 0.26 0.24 0.22 0.20 0.18
0.00 0.00 0.01 0.03 0.07 0.13 0.18 0.21 0.20 0.22 0.25 0.40 0.60 0.71 0.78 0.97 1.09 1.15 1.16 1.06 0.99 0.95 0.99 0.99 0.90 0.78 0.69 0.63 0.64 0.63 0.56 0.50 0.45 0.50 0.43 0.43 0.69 0.78 0.67 0.69 0.60 0.55 0.48 0.40 0.39 0.36 0.31 0.29 0.29
0.01 0.02 0.02 0.02 0.05 0.09 0.15 0.18 0.16 0.23 0.36 0.43 0.72 1.07 0.97 1.10 1.30 1.45 1.43 1.42 1.43 1.34 1.09 1.00 1.07 1.04 1.13 1.21 1.05 1.06 1.04 0.97 0.86 0.97 0.89 0.91 1.07 0.96 0.95 1.03 0.88 0.73 0.63 0.59 0.65 0.52 0.43 0.41 0.48
0.01 0.02 0.03 0.03 0.03 0.06 0.08 0.15 0.22 0.30 0.51 0.63 0.83 1.07 1.34 1.34 1.55 1.61 1.71 1.75 1.66 1.66 1.45 1.22 1.14 1.13 1.27 1.44 1.40 1.37 1.31 1.24 1.17 1.22 1.07 1.21 1.33 1.39 1.45 1.58 1.38 1.25 1.14 1.14 1.06 0.94 0.75 0.68 0.68
0.00 0.01 0.03 0.04 0.04 0.03 0.08 0.17 0.22 0.26 0.27 0.49 0.69 0.85 1.25 1.31 1.35 1.63 1.89 2.16 2.19 2.02 1.83 1.62 1.40 1.35 1.43 1.58 1.62 1.59 1.60 1.54 1.63 1.76 1.53 1.50 1.49 1.57 1.86 1.86 1.97 1.66 1.64 1.64 1.52 1.32 1.23 1.12 1.00
0.00 0.01 0.02 0.03 0.04 0.05 0.10 0.15 0.19 0.16 0.16 0.27 0.42 0.63 0.90 1.10 1.36 1.79 2.13 2.38 2.72 2.54 2.19 1.97 1.84 1.64 1.53 1.56 1.67 1.70 1.68 1.82 1.92 2.06 1.93 1.88 1.94 2.06 2.39 2.43 2.35 2.11 2.12 2.28 2.27 2.04 1.82 1.64 1.55
0.01 0.01 0.01 0.02 0.03 0.04 0.08 0.17 0.19 0.20 0.20 0.24 0.32 0.50 0.72 1.12 1.39 1.91 2.34 2.59 2.91 2.68 2.59 2.41 2.26 2.13 1.83 1.69 1.79 1.90 1.82 1.87 1.92 2.14 2.27 2.26 2.31 2.55 2.60 2.83 2.77 2.59 2.52 2.49 2.46 2.61 2.56 2.16 1.87
0.01 0.01 0.02 0.03 0.03 0.04 0.06 0.18 0.21 0.19 0.19 0.24 0.33 0.53 0.76 1.06 1.36 1.62 1.94 2.28 2.76 2.83 2.59 2.57 2.31 2.16 2.18 2.09 2.19 2.27 2.35 2.41 2.34 2.41 2.68 2.76 2.79 2.85 2.87 2.86 2.86 2.81 2.77 2.99 3.05 2.95 2.85 2.70 2.41
0.02 0.01 0.02 0.03 0.03 0.04 0.05 0.15 0.25 0.18 0.17 0.24 0.33 0.58 0.96 1.08 1.29 1.37 1.63 1.91 2.31 2.38 2.42 2.48 2.42 2.27 2.25 2.42 2.70 2.84 3.02 3.20 3.32 3.30 3.48 3.45 3.27 3.22 3.32 3.35 3.42 3.28 3.32 3.29 3.11 3.30 3.20 3.05 2.79
0.01 0.02 0.02 0.02 0.03 0.04 0.05 0.11 0.26 0.30 0.31 0.35 0.40 0.56 0.87 1.01 1.37 1.57 1.67 1.75 2.11 2.26 2.40 2.52 2.64 2.73 2.69 2.71 2.88 3.24 3.39 3.55 3.91 4.00 4.01 4.04 4.06 4.00 4.02 3.95 3.94 3.82 3.72 3.59 3.48 3.44 3.22 3.05 2.79
0.01 0.01 0.02 0.03 0.03 0.05 0.09 0.17 0.26 0.32 0.37 0.49 0.63 0.69 0.75 0.92 1.34 1.75 1.92 2.04 2.33 2.49 2.64 2.58 2.70 2.94 3.13 3.46 3.41 3.54 3.90 4.25 4.42 4.61 4.63 4.58 4.48 4.47 4.33 4.23 4.26 4.09 3.94 3.73 3.58 3.45 3.33 3.01 2.76
0.01 0.01 0.02 0.04 0.05 0.07 0.14 0.24 0.29 0.34 0.40 0.50 0.64 0.70 0.71 0.91 1.23 1.66 1.87 2.19 2.39 2.49 2.71 2.81 2.89 3.24 3.71 4.23 4.67 5.01 5.36 5.37 5.50 5.49 5.39 5.13 4.96 4.82 4.62 4.60 4.47 4.22 4.04 3.80 3.57 3.44 3.38 3.10 2.91
0.01 0.01 0.02 0.03 0.07 0.10 0.15 0.32 0.41 0.46 0.53 0.58 0.67 0.74 0.83 1.03 1.32 1.52 1.75 2.02 2.27 2.48 2.71 2.90 3.22 3.79 4.60 5.09 5.48 5.97 6.29 6.07 5.86 5.60 5.48 5.36 5.28 5.20 5.01 4.89 4.57 4.31 4.04 3.74 3.45 3.27 3.20 3.11 3.00
0.02 0.02 0.02 0.04 0.06 0.13 0.15 0.38 0.61 0.67 0.76 0.72 0.82 0.95 1.09 1.20 1.33 1.50 1.69 1.96 2.27 2.61 2.74 2.94 3.49 4.18 4.83 5.34 5.93 6.48 6.72 6.78 6.62 6.10 5.62 5.19 4.85 4.60 4.45 4.37 4.16 3.90 3.60 3.39 3.14 2.96 2.86 2.95 2.84
0.02 0.01 0.01 0.04 0.07 0.10 0.14 0.33 0.74 0.96 1.05 1.03 1.10 1.12 1.15 1.17 1.28 1.45 1.65 1.82 1.97 2.26 2.70 3.05 3.63 4.28 4.91 5.59 6.30 6.74 6.97 6.99 6.61 5.84 5.09 4.58 4.23 3.87 3.61 3.48 3.37 3.19 2.99 2.80 2.72 2.69 2.59 2.55 2.47
0.01 0.01 0.02 0.05 0.08 0.14 0.14 0.30 0.84 1.21 1.42 1.42 1.32 1.29 1.25 1.16 1.17 1.25 1.46 1.59 1.88 2.15 2.48 2.98 3.32 3.92 4.60 5.16 5.68 5.85 6.03 6.01 5.64 5.20 4.72 4.30 3.74 3.21 2.83 2.63 2.52 2.41 2.29 2.26 2.26 2.26 2.23 2.20 2.18
0.01 0.03 0.11 0.21 0.26 0.25 0.18 0.38 0.90 1.24 1.26 1.25 1.24 1.32 1.30 1.13 1.14 1.35 1.61 1.56 1.82 2.10 2.43 2.84 3.24 3.59 4.07 4.56 5.02 5.27 5.46 5.37 4.91 4.46 4.03 3.57 3.06 2.62 2.27 2.07 2.01 1.95 1.90 1.87 1.91 1.93 1.89 1.86 1.89
0.02 0.04 0.19 0.35 0.39 0.41 0.39 0.69 1.12 1.16 1.07 1.03 1.02 1.08 1.19 1.20 1.18 1.25 1.41 1.50 1.75 1.96 2.20 2.54 2.87 3.20 3.38 3.57 3.93 4.20 4.41 4.30 3.96 3.47 2.99 2.68 2.41 2.13 1.91 1.75 1.67 1.56 1.46 1.43 1.51 1.57 1.62 1.57 1.62
0.03 0.06 0.13 0.15 0.21 0.41 0.74 1.02 1.37 1.33 1.22 1.13 1.01 1.01 1.11 1.08 1.05 1.13 1.26 1.40 1.60 1.89 2.22 2.46 2.56 2.71 2.87 3.01 3.08 3.12 3.25 3.18 2.95 2.66 2.35 2.07 1.79 1.57 1.44 1.33 1.25 1.19 1.13 1.16 1.25 1.30 1.25 1.26 1.33
0.05 0.06 0.09 0.16 0.37 0.58 0.85 1.32 1.65 1.79 1.69 1.56 1.25 1.14 1.08 1.10 1.09 1.10 1.19 1.32 1.42 1.51 1.82 2.10 2.15 2.24 2.31 2.35 2.39 2.41 2.41 2.29 2.20 2.05 1.88 1.63 1.46 1.30 1.18 1.06 1.00 0.99 0.97 0.96 0.95 1.01 1.02 1.00 1.05
0.07 0.09 0.12 0.19 0.28 0.56 0.94 1.52 1.75 2.03 2.11 1.95 1.62 1.44 1.38 1.33 1.24 1.19 1.21 1.22 1.29 1.36 1.48 1.71 1.90 1.90 1.96 2.04 1.99 1.89 1.91 1.85 1.80 1.72 1.63 1.52 1.45 1.34 1.19 1.04 0.99 0.97 0.92 0.86 0.86 0.86 0.85 0.90 0.92
0.09 0.12 0.19 0.34 0.36 0.41 0.84 1.71 2.03 2.15 2.11 1.87 1.67 1.52 1.46 1.35 1.20 1.13 1.10 1.04 1.09 1.20 1.29 1.41 1.58 1.60 1.59 1.63 1.66 1.69 1.69 1.66 1.57 1.45 1.34 1.22 1.12 1.02 0.94 0.86 0.85 0.83 0.80 0.79 0.78 0.74 0.72 0.72 0.74

GEFSSGP_prec_meanprecacc_186.txt.gz
Total_Precipitation_Accumulation
0.00 0.00 0.00 0.01 0.02 0.03 0.08 0.12 0.17 0.20 0.26 0.24 0.22 0.24 0.32 0.40 0.58 1.09 0.65 0.33 0.21 0.11 0.06 0.06 0.07 0.06 0.07 0.08 0.10 0.11 0.11 0.11 0.11 0.11 0.12 0.12 0.12 0.12 0.12 0.12 0.15 0.20 0.24 0.22 0.21 0.21 0.22 0.19 0.14
0.00 0.00 0.01 0.02 0.02 0.05 0.12 0.12 0.16 0.19 0.23 0.25 0.22 0.23 0.28 0.33 0.26 0.19 0.21 0.21 0.21 0.11 0.06 0.04 0.06 0.06 0.07 0.07 0.10 0.13 0.13 0.11 0.11 0.12 0.12 0.13 0.12 0.12 0.12 0.13 0.17 0.23 0.28 0.28 0.26 0.26 0.22 0.18 0.14
0.00 0.00 0.01 0.01 0.01 0.05 0.15 0.17 0.20 0.21 0.23 0.23 0.28 0.34 0.36 0.42 0.37 0.25 0.22 0.21 0.22 0.12 0.07 0.05 0.06 0.06 0.07 0.07 0.09 0.13 0.14 0.12 0.12 0.13 0.12 0.13 0.13 0.12 0.14 0.17 0.18 0.20 0.25 0.24 0.19 0.17 0.16 0.17 0.14
0.00 0.01 0.01 0.02 0.02 0.05 0.11 0.19 0.25 0.23 0.25 0.27 0.33 0.47 0.44 0.45 0.41 0.36 0.28 0.26 0.22 0.15 0.08 0.05 0.07 0.08 0.09 0.11 0.12 0.14 0.13 0.14 0.15 0.15 0.17 0.17 0.16 0.16 0.18 0.23 0.24 0.23 0.23 0.21 0.17 0.16 0.15 0.17 0.14
0.00 0.00 0.01 0.02 0.03 0.06 0.12 0.19 0.31 0.33 0.34 0.34 0.41 0.64 0.75 0.69 0.67 0.58 0.37 0.32 0.32 0.21 0.13 0.09 0.09 0.11 0.14 0.17 0.19 0.21 0.21 0.20 0.21 0.22 0.23 0.22 0.21 0.22 0.23 0.24 0.26 0.24 0.24 0.22 0.20 0.21 0.18 0.17 0.15
0.00 0.00 0.02 0.03 0.04 0.07 0.13 0.22 0.27 0.29 0.30 0.29 0.46 0.82 1.17 1.06 0.83 0.88 0.74 0.47 0.40 0.26 0.17 0.14 0.12 0.17 0.22 0.25 0.28 0.30 0.27 0.25 0.25 0.26 0.28 0.25 0.22 0.22 0.22 0.22 0.23 0.25 0.28 0.27 0.21 0.15 0.13 0.11 0.13
0.00 0.00 0.01 0.03 0.07 0.09 0.16 0.23 0.28 0.24 0.24 0.39 0.71 1.06 1.35 1.28 1.02 1.01 0.98 0.69 0.59 0.43 0.26 0.22 0.19 0.20 0.28 0.35 0.32 0.30 0.28 0.27 0.29 0.34 0.36 0.32 0.27 0.23 0.22 0.25 0.25 0.27 0.27 0.23 0.17 0.12 0.10 0.10 0.11
0.00 0.00 0.00 0.02 0.08 0.12 0.16 0.24 0.28 0.24 0.33 0.52 0.83 1.01 1.25 1.35 1.13 0.93 0.87 0.75 0.69 0.65 0.47 0.40 0.38 0.36 0.36 0.36 0.37 0.34 0.32 0.33 0.34 0.36 0.36 0.34 0.27 0.25 0.25 0.24 0.25 0.24 0.25 0.24 0.20 0.17 0.16 0.15 0.14
0.00 0.00 0.01 0.02 0.08 0.17 0.20 0.21 0.22 0.23 0.34 0.54 0.68 0.72 1.01 1.16 1.05 1.01 0.97 0.86 0.78 0.74 0.72 0.70 0.59 0.55 0.53 0.46 0.38 0.40 0.35 0.36 0.36 0.35 0.34 0.33 0.36 0.43 0.41 0.34 0.35 0.37 0.37 0.34 0.31 0.28 0.27 0.22 0.20
0.00 0.01 0.01 0.03 0.08 0.15 0.20 0.22 0.20 0.22 0.26 0.42 0.64 0.72 0.79 0.98 1.11 1.18 1.19 1.09 1.03 1.00 1.04 1.04 0.94 0.83 0.77 0.71 0.71 0.69 0.59 0.53 0.48 0.56 0.52 0.50 0.74 0.83 0.73 0.76 0.68 0.64 0.58 0.48 0.46 0.43 0.38 0.34 0.31
0.01 0.03 0.02 0.04 0.07 0.10 0.16 0.19 0.17 0.24 0.37 0.45 0.75 1.08 0.99 1.11 1.33 1.52 1.48 1.45 1.47 1.40 1.15 1.04 1.12 1.13 1.20 1.28 1.12 1.11 1.08 1.02 0.90 1.02 0.95 0.96 1.13 1.04 1.05 1.12 0.97 0.83 0.74 0.69 0.74 0.61 0.50 0.47 0.52
0.01 0.02 0.03 0.04 0.04 0.07 0.09 0.16 0.23 0.31 0.53 0.65 0.86 1.11 1.35 1.34 1.57 1.63 1.73 1.77 1.70 1.71 1.50 1.26 1.19 1.18 1.33 1.50 1.44 1.40 1.34 1.28 1.21 1.25 1.11 1.27 1.42 1.50 1.53 1.64 1.45 1.33 1.24 1.25 1.17 1.07 0.84 0.74 0.73
0.00 0.01 0.03 0.04 0.04 0.04 0.09 0.19 0.25 0.28 0.29 0.50 0.71 0.88 1.26 1.32 1.36 1.64 1.90 2.18 2.22 2.07 1.88 1.67 1.44 1.38 1.48 1.64 1.67 1.63 1.64 1.58 1.66 1.78 1.58 1.57 1.57 1.66 1.94 1.92 2.04 1.73 1.71 1.74 1.63 1.44 1.34 1.19 1.05
0.00 0.01 0.02 0.03 0.04 0.05 0.11 0.16 0.20 0.18 0.18 0.28 0.44 0.65 0.92 1.11 1.38 1.79 2.14 2.39 2.74 2.57 2.23 2.00 1.88 1.68 1.60 1.64 1.76 1.78 1.74 1.87 1.96 2.10 1.97 1.94 2.00 2.13 2.45 2.49 2.42 2.17 2.18 2.37 2.39 2.17 1.93 1.73 1.62
0.01 0.01 0.02 0.02 0.04 0.05 0.08 0.17 0.20 0.20 0.21 0.25 0.35 0.53 0.74 1.14 1.41 1.92 2.36 2.62 2.97 2.72 2.63 2.44 2.31 2.20 1.94 1.83 1.99 2.10 1.97 1.97 2.00 2.19 2.32 2.32 2.37 2.62 2.66 2.88 2.83 2.66 2.60 2.57 2.55 2.73 2.69 2.29 1.99
0.03 0.02 0.03 0.04 0.04 0.04 0.07 0.19 0.21 0.20 0.21 0.28 0.40 0.61 0.81 1.09 1.39 1.65 1.96 2.29 2.78 2.87 2.66 2.63 2.37 2.24 2.33 2.26 2.40 2.46 2.52 2.57 2.44 2.47 2.73 2.82 2.85 2.90 2.92 2.91 2.93 2.89 2.85 3.07 3.13 3.06 3.01 2.83 2.54
0.04 0.02 0.02 0.04 0.04 0.05 0.05 0.16 0.25 0.19 0.20 0.30 0.44 0.71 1.06 1.13 1.32 1.39 1.65 1.92 2.32 2.40 2.47 2.55 2.49 2.36 2.36 2.54 2.81 2.96 3.11 3.30 3.45 3.41 3.56 3.52 3.34 3.29 3.37 3.41 3.49 3.35 3.39 3.35 3.19 3.42 3.33 3.19 2.91
0.01 0.03 0.03 0.03 0.04 0.05 0.05 0.12 0.27 0.32 0.34 0.42 0.46 0.63 0.92 1.04 1.39 1.58 1.69 1.76 2.12 2.28 2.43 2.58 2.73 2.85 2.81 2.84 3.01 3.35 3.52 3.68 4.04 4.12 4.12 4.14 4.14 4.07 4.06 4.00 4.00 3.88 3.78 3.66 3.57 3.55 3.33 3.16 2.90
0.01 0.02 0.03 0.03 0.04 0.05 0.10 0.18 0.27 0.33 0.38 0.51 0.65 0.72 0.77 0.93 1.36 1.77 1.94 2.05 2.35 2.54 2.70 2.65 2.77 3.03 3.25 3.62 3.59 3.74 4.11 4.47 4.62 4.81 4.85 4.71 4.57 4.53 4.38 4.28 4.30 4.13 3.99 3.79 3.65 3.53 3.41 3.09 2.85
0.01 0.01 0.02 0.04 0.06 0.08 0.15 0.25 0.31 0.35 0.40 0.52 0.71 0.78 0.74 0.93 1.26 1.70 1.92 2.24 2.45 2.56 2.77 2.88 2.95 3.31 3.79 4.35 4.85 5.22 5.53 5.53 5.69 5.69 5.59 5.29 5.07 4.90 4.69 4.65 4.51 4.26 4.08 3.86 3.65 3.52 3.43 3.15 2.96
0.01 0.01 0.02 0.04 0.08 0.11 0.18 0.34 0.42 0.47 0.54 0.60 0.73 0.79 0.85 1.05 1.35 1.57 1.80 2.09 2.34 2.53 2.76 2.95 3.27 3.85 4.67 5.16 5.60 6.14 6.45 6.20 5.95 5.69 5.62 5.53 5.43 5.29 5.08 4.96 4.64 4.38 4.10 3.79 3.51 3.33 3.26 3.17 3.06
0.02 0.02 0.03 0.04 0.07 0.14 0.18 0.40 0.63 0.69 0.78 0.75 0.86 0.99 1.12 1.22 1.36 1.55 1.76 2.02 2.32 2.66 2.78 2.99 3.54 4.23 4.87 5.39 5.98 6.54 6.81 6.87 6.70 6.18 5.70 5.28 4.97 4.70 4.53 4.46 4.25 3.98 3.69 3.48 3.21 3.01 2.91 3.01 2.89
0.02 0.01 0.01 0.05 0.07 0.12 0.16 0.36 0.78 0.99 1.07 1.06 1.14 1.17 1.19 1.22 1.33 1.49 1.69 1.86 2.02 2.34 2.79 3.14 3.70 4.34 4.97 5.65 6.36 6.80 7.06 7.06 6.68 5.90 5.15 4.64 4.32 3.99 3.70 3.58 3.46 3.28 3.07 2.88 2.79 2.74 2.64 2.60 2.51
0.01 0.01 0.03 0.05 0.08 0.16 0.16 0.34 0.89 1.26 1.47 1.46 1.36 1.34 1.31 1.24 1.23 1.29 1.48 1.62 1.91 2.23 2.60 3.08 3.40 3.99 4.66 5.23 5.77 5.95 6.12 6.08 5.69 5.25 4.77 4.36 3.82 3.32 2.91 2.70 2.59 2.48 2.35 2.31 2.31 2.32 2.29 2.26 2.24
0.01 0.03 0.12 0.22 0.26 0.27 0.21 0.44 0.98 1.31 1.31 1.30 1.30 1.39 1.35 1.17 1.18 1.39 1.65 1.61 1.85 2.15 2.53 2.95 3.34 3.71 4.19 4.69 5.16 5.40 5.56 5.43 4.96 4.51 4.08 3.63 3.13 2.70 2.34 2.13 2.06 2.00 1.95 1.92 1.97 2.00 1.97 1.93 1.96
0.02 0.05 0.21 0.36 0.41 0.43 0.42 0.75 1.17 1.21 1.12 1.07 1.06 1.12 1.23 1.24 1.23 1.32 1.47 1.54 1.78 2.01 2.27 2.65 2.98 3.33 3.53 3.74 4.10 4.35 4.50 4.39 4.04 3.54 3.05 2.74 2.48 2.19 1.96 1.79 1.71 1.62 1.52 1.51 1.59 1.66 1.71 1.68 1.73
0.04 0.07 0.13 0.16 0.23 0.43 0.78 1.07 1.42 1.38 1.26 1.18 1.06 1.06 1.16 1.12 1.11 1.18 1.30 1.44 1.63 1.92 2.27 2.54 2.65 2.84 2.99 3.16 3.24 3.27 3.37 3.27 3.01 2.70 2.39 2.11 1.86 1.63 1.48 1.38 1.31 1.26 1.22 1.25 1.34 1.41 1.37 1.37 1.44
0.06 0.07 0.10 0.17 0.41 0.62 0.91 1.38 1.70 1.83 1.72 1.59 1.29 1.18 1.13 1.15 1.13 1.14 1.22 1.35 1.46 1.54 1.87 2.18 2.21 2.31 2.37 2.41 2.48 2.47 2.48 2.36 2.26 2.10 1.91 1.66 1.50 1.34 1.22 1.13 1.07 1.06 1.04 1.05 1.06 1.12 1.12 1.10 1.14
0.08 0.10 0.12 0.20 0.30 0.59 0.98 1.56 1.78 2.06 2.14 1.97 1.64 1.47 1.42 1.38 1.28 1.22 1.23 1.25 1.34 1.42 1.55 1.79 1.96 1.97 2.01 2.08 2.02 1.91 1.94 1.91 1.88 1.79 1.68 1.56 1.48 1.38 1.23 1.08 1.05 1.01 0.97 0.92 0.93 0.94 0.94 0.99 1.01
0.09 0.13 0.20 0.35 0.38 0.43 0.86 1.75 2.07 2.20 2.15 1.88 1.69 1.55 1.49 1.41 1.25 1.17 1.13 1.08 1.14 1.28 1.36 1.46 1.64 1.69 1.69 1.69 1.69 1.73 1.74 1.72 1.67 1.52 1.39 1.27 1.15 1.05 0.97 0.90 0.90 0.85 0.82 0.81 0.80 0.77 0.76 0.78 0.81

GEFSSGP_prec_meanprecacc_192.txt.gz
Total_Precipitation_Accumulation
0.00 0.01 0.01 0.01 0.02 0.03 0.08 0.12 0.17 0.21 0.26 0.24 0.23 0.26 0.34 0.44 0.60 1.12 0.67 0.33 0.21 0.12 0.08 0.07 0.08 0.07 0.08 0.09 0.11 0.12 0.11 0.11 0.11 0.11 0.12 0.12 0.12 0.12 0.12 0.12 0.15 0.20 0.24 0.23 0.21 0.22 0.23 0.20 0.15
0.00 0.01 0.01 0.02 0.02 0.05 0.12 0.13 0.17 0.20 0.24 0.26 0.23 0.25 0.30 0.36 0.29 0.23 0.23 0.23 0.22 0.12 0.07 0.05 0.07 0.07 0.07 0.08 0.10 0.13 0.13 0.11 0.11 0.12 0.12 0.13 0.12 0.12 0.12 0.13 0.17 0.23 0.28 0.28 0.27 0.27 0.23 0.19 0.15
0.00 0.01 0.01 0.02 0.01 0.05 0.16 0.19 0.22 0.23 0.24 0.24 0.31 0.36 0.39 0.46 0.40 0.27 0.26 0.28 0.26 0.14 0.08 0.06 0.07 0.06 0.07 0.08 0.09 0.13 0.14 0.12 0.12 0.13 0.13 0.13 0.13 0.13 0.15 0.17 0.18 0.21 0.26 0.26 0.20 0.18 0.17 0.18 0.15
0.00 0.01 0.01 0.02 0.03 0.06 0.12 0.20 0.27 0.25 0.27 0.28 0.34 0.49 0.47 0.47 0.44 0.39 0.35 0.37 0.28 0.19 0.10 0.06 0.08 0.08 0.09 0.11 0.12 0.14 0.14 0.14 0.15 0.16 0.17 0.18 0.17 0.17 0.19 0.24 0.25 0.24 0.25 0.22 0.18 0.17 0.16 0.18 0.15
0.00 0.01 0.02 0.03 0.03 0.07 0.12 0.21 0.33 0.36 0.36 0.35 0.42 0.64 0.76 0.71 0.69 0.60 0.39 0.36 0.34 0.23 0.15 0.09 0.10 0.12 0.15 0.18 0.20 0.22 0.22 0.21 0.22 0.23 0.24 0.23 0.22 0.23 0.24 0.26 0.28 0.26 0.26 0.24 0.21 0.22 0.20 0.18 0.16
0.00 0.00 0.02 0.04 0.04 0.08 0.14 0.23 0.29 0.32 0.31 0.30 0.47 0.82 1.18 1.07 0.84 0.90 0.77 0.50 0.42 0.29 0.20 0.16 0.13 0.18 0.24 0.27 0.29 0.31 0.29 0.26 0.26 0.28 0.29 0.26 0.24 0.24 0.24 0.25 0.27 0.29 0.32 0.31 0.24 0.18 0.15 0.14 0.16
0.00 0.00 0.01 0.04 0.07 0.10 0.17 0.24 0.32 0.28 0.26 0.40 0.71 1.06 1.36 1.29 1.03 1.03 0.99 0.71 0.61 0.47 0.32 0.25 0.21 0.22 0.30 0.37 0.35 0.33 0.31 0.30 0.32 0.36 0.38 0.35 0.30 0.26 0.26 0.30 0.31 0.31 0.31 0.27 0.20 0.16 0.14 0.14 0.15
0.00 0.00 0.00 0.03 0.08 0.13 0.17 0.25 0.30 0.26 0.34 0.53 0.84 1.02 1.25 1.35 1.14 0.94 0.89 0.78 0.72 0.71 0.54 0.44 0.40 0.38 0.37 0.39 0.41 0.40 0.37 0.38 0.38 0.39 0.39 0.37 0.30 0.30 0.33 0.33 0.34 0.30 0.30 0.30 0.26 0.23 0.22 0.21 0.20
0.00 0.00 0.01 0.03 0.08 0.17 0.21 0.22 0.23 0.25 0.35 0.55 0.69 0.73 1.02 1.17 1.05 1.02 0.99 0.88 0.82 0.78 0.77 0.74 0.62 0.58 0.56 0.48 0.42 0.48 0.43 0.41 0.39 0.38 0.37 0.38 0.42 0.50 0.50 0.42 0.42 0.43 0.44 0.44 0.40 0.37 0.35 0.31 0.28
0.00 0.01 0.01 0.03 0.08 0.15 0.20 0.23 0.22 0.24 0.27 0.43 0.64 0.73 0.79 0.98 1.12 1.19 1.20 1.10 1.05 1.03 1.08 1.08 0.98 0.86 0.80 0.74 0.76 0.77 0.66 0.58 0.51 0.58 0.55 0.52 0.77 0.87 0.76 0.80 0.74 0.70 0.64 0.56 0.55 0.51 0.47 0.42 0.38
0.01 0.03 0.03 0.04 0.07 0.11 0.17 0.19 0.17 0.24 0.37 0.46 0.75 1.09 1.00 1.13 1.34 1.54 1.49 1.46 1.49 1.42 1.19 1.07 1.15 1.15 1.22 1.30 1.14 1.13 1.11 1.05 0.93 1.04 0.97 0.99 1.15 1.06 1.08 1.15 1.01 0.88 0.79 0.75 0.82 0.71 0.58 0.53 0.58
0.01 0.03 0.04 0.04 0.05 0.07 0.10 0.16 0.24 0.32 0.53 0.65 0.87 1.13 1.41 1.39 1.59 1.65 1.74 1.78 1.71 1.73 1.53 1.29 1.22 1.20 1.35 1.52 1.46 1.42 1.36 1.30 1.23 1.28 1.14 1.31 1.46 1.55 1.57 1.67 1.49 1.38 1.28 1.30 1.25 1.15 0.95 0.85 0.82
0.01 0.02 0.03 0.05 0.04 0.04 0.10 0.20 0.25 0.28 0.29 0.51 0.72 0.95 1.36 1.37 1.39 1.67 1.93 2.19 2.23 2.08 1.90 1.69 1.47 1.41 1.50 1.66 1.69 1.65 1.68 1.61 1.69 1.81 1.62 1.62 1.63 1.73 2.01 1.99 2.10 1.78 1.76 1.80 1.70 1.52 1.42 1.28 1.15
0.01 0.01 0.02 0.03 0.04 0.05 0.11 0.16 0.20 0.18 0.19 0.30 0.46 0.68 0.95 1.14 1.40 1.82 2.17 2.42 2.77 2.59 2.26 2.04 1.92 1.72 1.63 1.67 1.79 1.81 1.78 1.92 2.01 2.15 2.03 2.03 2.08 2.21 2.53 2.56 2.48 2.22 2.25 2.44 2.47 2.24 2.00 1.80 1.69
0.01 0.01 0.02 0.02 0.04 0.05 0.08 0.17 0.20 0.21 0.22 0.27 0.36 0.55 0.78 1.19 1.46 1.97 2.41 2.68 3.04 2.79 2.68 2.49 2.36 2.26 2.00 1.89 2.04 2.14 2.02 2.03 2.09 2.30 2.42 2.41 2.46 2.70 2.73 2.94 2.88 2.71 2.67 2.65 2.63 2.80 2.77 2.35 2.06
0.03 0.02 0.03 0.04 0.04 0.05 0.07 0.19 0.22 0.21 0.22 0.29 0.42 0.63 0.85 1.17 1.49 1.72 2.03 2.39 2.89 2.97 2.76 2.70 2.43 2.32 2.41 2.34 2.47 2.51 2.58 2.65 2.56 2.62 2.88 2.94 2.96 3.02 3.00 2.96 2.97 2.93 2.93 3.15 3.22 3.14 3.08 2.90 2.61
0.04 0.02 0.02 0.04 0.04 0.05 0.05 0.16 0.26 0.20 0.21 0.32 0.46 0.74 1.09 1.17 1.37 1.45 1.70 1.99 2.39 2.48 2.57 2.67 2.61 2.49 2.47 2.62 2.88 3.02 3.19 3.39 3.55 3.54 3.75 3.69 3.46 3.39 3.43 3.46 3.54 3.41 3.44 3.42 3.28 3.51 3.42 3.25 2.96
0.01 0.03 0.03 0.03 0.04 0.05 0.05 0.12 0.28 0.33 0.36 0.43 0.48 0.65 0.95 1.07 1.41 1.62 1.73 1.82 2.19 2.36 2.52 2.69 2.85 2.96 2.88 2.90 3.07 3.43 3.62 3.78 4.14 4.22 4.23 4.29 4.26 4.16 4.13 4.06 4.06 3.94 3.85 3.73 3.65 3.62 3.40 3.22 2.95
0.01 0.02 0.03 0.04 0.04 0.05 0.10 0.18 0.27 0.33 0.40 0.53 0.68 0.75 0.80 0.95 1.38 1.79 1.98 2.10 2.40 2.61 2.78 2.76 2.88 3.13 3.35 3.70 3.67 3.84 4.24 4.59 4.74 4.91 4.92 4.80 4.66 4.60 4.44 4.33 4.35 4.18 4.03 3.84 3.70 3.58 3.47 3.15 2.91
0.01 0.01 0.02 0.04 0.06 0.08 0.15 0.25 0.31 0.35 0.41 0.53 0.73 0.81 0.76 0.95 1.28 1.74 1.97 2.30 2.53 2.66 2.89 3.01 3.10 3.45 3.92 4.45 4.96 5.34 5.68 5.67 5.79 5.77 5.65 5.34 5.12 4.96 4.74 4.70 4.56 4.32 4.15 3.92 3.71 3.58 3.48 3.20 3.02
0.01 0.01 0.02 0.04 0.08 0.11 0.18 0.35 0.42 0.48 0.55 0.61 0.74 0.80 0.88 1.07 1.37 1.61 1.87 2.17 2.44 2.67 2.92 3.10 3.39 3.95 4.77 5.26 5.71 6.24 6.54 6.30 6.06 5.78 5.69 5.60 5.49 5.35 5.14 5.01 4.70 4.45 4.18 3.87 3.59 3.41 3.32 3.21 3.11
0.02 0.02 0.03 0.04 0.07 0.14 0.18 0.41 0.63 0.70 0.79 0.75 0.86 1.00 1.15 1.26 1.41 1.61 1.84 2.09 2.41 2.75 2.88 3.07 3.62 4.30 4.96 5.48 6.07 6.63 6.89 6.96 6.79 6.25 5.76 5.34 5.04 4.78 4.61 4.55 4.34 4.07 3.77 3.54 3.28 3.10 3.00 3.08 2.94
0.02 0.01 0.02 0.05 0.07 0.12 0.16 0.36 0.78 1.00 1.08 1.07 1.14 1.19 1.22 1.26 1.38 1.53 1.72 1.91 2.07 2.40 2.85 3.19 3.76 4.40 5.04 5.74 6.45 6.87 7.12 7.14 6.77 5.99 5.21 4.68 4.36 4.06 3.80 3.70 3.57 3.39 3.16 2.95 2.87 2.84 2.73 2.67 2.57
0.01 0.01 0.03 0.05 0.08 0.16 0.16 0.34 0.90 1.27 1.47 1.46 1.37 1.36 1.35 1.28 1.27 1.31 1.51 1.66 1.94 2.26 2.64 3.12 3.44 4.04 4.70 5.28 5.82 6.01 6.19 6.15 5.75 5.32 4.84 4.40 3.86 3.37 3.00 2.83 2.71 2.58 2.45 2.41 2.41 2.42 2.36 2.32 2.30
0.01 0.03 0.12 0.22 0.26 0.27 0.21 0.45 1.00 1.32 1.32 1.31 1.32 1.41 1.37 1.20 1.21 1.41 1.67 1.63 1.88 2.18 2.56 2.98 3.36 3.74 4.24 4.73 5.20 5.45 5.61 5.50 5.02 4.55 4.13 3.68 3.17 2.75 2.41 2.23 2.17 2.08 2.02 2.00 2.06 2.09 2.04 1.99 2.01
0.03 0.05 0.21 0.36 0.41 0.43 0.42 0.76 1.18 1.21 1.12 1.08 1.07 1.13 1.25 1.26 1.26 1.35 1.49 1.57 1.80 2.03 2.30 2.68 3.02 3.38 3.61 3.82 4.16 4.41 4.55 4.44 4.10 3.59 3.12 2.81 2.53 2.25 2.04 1.87 1.78 1.69 1.60 1.58 1.64 1.72 1.77 1.72 1.77
0.04 0.07 0.14 0.17 0.23 0.44 0.79 1.08 1.43 1.39 1.27 1.18 1.06 1.07 1.17 1.15 1.14 1.22 1.33 1.46 1.65 1.93 2.29 2.57 2.70 2.90 3.08 3.26 3.31 3.33 3.43 3.32 3.06 2.75 2.44 2.15 1.90 1.68 1.55 1.45 1.36 1.31 1.28 1.30 1.38 1.44 1.40 1.41 1.48
0.06 0.07 0.10 0.18 0.41 0.62 0.92 1.38 1.72 1.84 1.73 1.60 1.30 1.20 1.15 1.18 1.17 1.18 1.25 1.37 1.47 1.55 1.88 2.20 2.26 2.37 2.45 2.50 2.53 2.51 2.54 2.41 2.31 2.14 1.94 1.69 1.54 1.37 1.26 1.17 1.11 1.09 1.07 1.08 1.08 1.14 1.15 1.13 1.19
0.08 0.10 0.13 0.20 0.30 0.59 0.99 1.57 1.79 2.07 2.15 1.98 1.66 1.49 1.44 1.40 1.31 1.26 1.27 1.27 1.36 1.44 1.57 1.83 2.02 2.04 2.09 2.17 2.09 1.96 1.99 1.97 1.93 1.83 1.72 1.60 1.53 1.41 1.26 1.11 1.06 1.03 0.99 0.95 0.94 0.96 0.97 1.02 1.06
0.10 0.13 0.20 0.36 0.38 0.43 0.87 1.75 2.07 2.20 2.16 1.90 1.71 1.57 1.51 1.42 1.28 1.22 1.17 1.11 1.16 1.30 1.40 1.51 1.72 1.78 1.79 1.81 1.81 1.82 1.81 1.78 1.72 1.57 1.44 1.32 1.19 1.08 1.00 0.92 0.91 0.87 0.84 0.83 0.82 0.78 0.77 0.80 0.83

GEFSSGP_prec_meanprecacc_198.txt.gz
Total_Precipitation_Accumulation
0.00 0.01 0.01 0.01 0.02 0.03 0.09 0.12 0.17 0.21 0.26 0.24 0.23 0.26 0.35 0.45 0.62 1.14 0.68 0.34 0.22 0.12 0.08 0.08 0.08 0.07 0.09 0.10 0.12 0.12 0.12 0.12 0.12 0.12 0.13 0.13 0.13 0.13 0.13 0.13 0.16 0.21 0.25 0.24 0.22 0.22 0.24 0.21 0.16
0.01 0.01 0.02 0.02 0.02 0.05 0.12 0.13 0.17 0.20 0.24 0.26 0.24 0.25 0.30 0.37 0.31 0.27 0.24 0.24 0.23 0.12 0.08 0.06 0.08 0.08 0.08 0.09 0.12 0.14 0.14 0.13 0.12 0.13 0.13 0.14 0.13 0.13 0.14 0.14 0.18 0.25 0.30 0.30 0.29 0.27 0.24 0.20 0.16
0.01 0.01 0.01 0.02 0.01 0.05 0.16 0.20 0.22 0.23 0.25 0.25 0.32 0.37 0.41 0.47 0.42 0.33 0.29 0.29 0.26 0.15 0.09 0.07 0.08 0.07 0.08 0.09 0.11 0.15 0.16 0.14 0.13 0.14 0.14 0.14 0.14 0.14 0.16 0.19 0.20 0.23 0.27 0.27 0.22 0.18 0.18 0.19 0.16
0.00 0.01 0.01 0.02 0.03 0.06 0.12 0.21 0.27 0.25 0.27 0.29 0.35 0.49 0.47 0.48 0.45 0.42 0.37 0.38 0.29 0.21 0.12 0.08 0.09 0.10 0.11 0.12 0.13 0.16 0.16 0.15 0.16 0.17 0.19 0.19 0.18 0.18 0.21 0.26 0.27 0.27 0.27 0.25 0.21 0.19 0.18 0.19 0.16
0.00 0.01 0.02 0.03 0.03 0.07 0.12 0.22 0.35 0.37 0.36 0.35 0.42 0.65 0.76 0.72 0.70 0.62 0.41 0.37 0.36 0.26 0.18 0.12 0.13 0.15 0.17 0.20 0.21 0.24 0.24 0.23 0.24 0.25 0.27 0.25 0.25 0.26 0.27 0.30 0.33 0.31 0.31 0.29 0.26 0.26 0.24 0.21 0.18
0.00 0.00 0.02 0.05 0.05 0.08 0.14 0.24 0.31 0.33 0.31 0.30 0.47 0.83 1.18 1.08 0.85 0.91 0.78 0.51 0.44 0.32 0.23 0.20 0.17 0.22 0.27 0.29 0.31 0.33 0.31 0.29 0.30 0.32 0.32 0.29 0.27 0.26 0.28 0.30 0.32 0.35 0.39 0.38 0.31 0.24 0.21 0.18 0.19
0.00 0.00 0.01 0.04 0.08 0.10 0.17 0.25 0.33 0.29 0.26 0.40 0.71 1.07 1.36 1.29 1.03 1.03 1.00 0.73 0.63 0.50 0.36 0.30 0.26 0.26 0.33 0.40 0.38 0.36 0.34 0.33 0.34 0.39 0.42 0.37 0.32 0.29 0.30 0.34 0.36 0.38 0.37 0.33 0.28 0.24 0.21 0.19 0.20
0.00 0.00 0.01 0.03 0.09 0.14 0.18 0.25 0.30 0.27 0.35 0.53 0.84 1.03 1.26 1.36 1.14 0.95 0.91 0.83 0.76 0.77 0.62 0.52 0.46 0.42 0.42 0.43 0.44 0.41 0.39 0.40 0.40 0.42 0.42 0.39 0.32 0.32 0.35 0.37 0.39 0.36 0.35 0.35 0.34 0.33 0.32 0.30 0.27
0.00 0.00 0.01 0.03 0.09 0.18 0.21 0.23 0.24 0.26 0.35 0.56 0.70 0.74 1.03 1.18 1.07 1.03 1.01 0.90 0.84 0.85 0.92 0.89 0.69 0.62 0.62 0.54 0.46 0.50 0.46 0.46 0.43 0.41 0.40 0.40 0.43 0.52 0.53 0.46 0.46 0.47 0.49 0.49 0.49 0.47 0.45 0.41 0.38
0.01 0.01 0.02 0.04 0.09 0.16 0.21 0.23 0.22 0.25 0.28 0.45 0.66 0.74 0.81 1.00 1.14 1.21 1.23 1.13 1.07 1.05 1.13 1.17 1.05 0.91 0.85 0.80 0.82 0.83 0.73 0.64 0.55 0.62 0.58 0.57 0.81 0.90 0.80 0.84 0.78 0.74 0.70 0.63 0.63 0.62 0.58 0.54 0.50
0.02 0.03 0.03 0.05 0.07 0.11 0.17 0.20 0.17 0.25 0.38 0.47 0.76 1.10 1.02 1.15 1.39 1.58 1.52 1.48 1.50 1.44 1.21 1.12 1.19 1.19 1.26 1.36 1.21 1.19 1.20 1.12 0.99 1.09 1.01 1.04 1.21 1.11 1.13 1.22 1.08 0.95 0.87 0.84 0.92 0.81 0.67 0.63 0.69
0.01 0.03 0.04 0.05 0.05 0.07 0.10 0.17 0.24 0.32 0.54 0.66 0.88 1.14 1.46 1.45 1.65 1.69 1.76 1.80 1.73 1.77 1.57 1.33 1.25 1.24 1.39 1.55 1.48 1.45 1.41 1.36 1.29 1.33 1.19 1.36 1.52 1.61 1.64 1.75 1.56 1.46 1.36 1.39 1.34 1.26 1.05 0.94 0.91
0.01 0.02 0.03 0.05 0.04 0.05 0.10 0.20 0.26 0.28 0.30 0.52 0.74 0.97 1.40 1.43 1.46 1.71 1.95 2.22 2.26 2.13 1.95 1.75 1.52 1.45 1.53 1.70 1.73 1.70 1.71 1.65 1.74 1.87 1.67 1.68 1.69 1.80 2.09 2.08 2.18 1.85 1.84 1.89 1.80 1.60 1.51 1.38 1.23
0.01 0.01 0.02 0.03 0.04 0.05 0.11 0.17 0.21 0.19 0.21 0.32 0.48 0.70 0.97 1.16 1.43 1.85 2.21 2.46 2.80 2.63 2.29 2.08 1.96 1.75 1.66 1.71 1.84 1.87 1.83 1.96 2.05 2.19 2.08 2.08 2.15 2.29 2.62 2.67 2.57 2.30 2.30 2.50 2.55 2.32 2.10 1.90 1.79
0.01 0.01 0.02 0.02 0.04 0.05 0.08 0.18 0.20 0.22 0.24 0.28 0.38 0.57 0.80 1.21 1.49 2.01 2.44 2.71 3.06 2.81 2.70 2.52 2.40 2.29 2.04 1.96 2.12 2.21 2.09 2.09 2.14 2.35 2.47 2.47 2.52 2.77 2.81 3.03 2.95 2.78 2.76 2.75 2.72 2.89 2.87 2.45 2.16
0.03 0.03 0.03 0.04 0.04 0.05 0.07 0.19 0.23 0.21 0.23 0.30 0.43 0.64 0.86 1.19 1.52 1.75 2.06 2.40 2.91 2.99 2.79 2.76 2.48 2.38 2.49 2.44 2.58 2.59 2.65 2.71 2.62 2.67 2.93 2.98 3.00 3.06 3.06 3.01 3.01 2.97 2.98 3.23 3.31 3.24 3.19 3.00 2.71
0.04 0.02 0.03 0.04 0.05 0.05 0.05 0.17 0.26 0.20 0.22 0.33 0.47 0.75 1.10 1.18 1.38 1.46 1.71 2.00 2.40 2.49 2.60 2.74 2.69 2.58 2.56 2.71 2.98 3.10 3.26 3.44 3.62 3.63 3.82 3.74 3.50 3.44 3.49 3.50 3.57 3.45 3.50 3.48 3.34 3.59 3.51 3.35 3.04
0.01 0.03 0.03 0.04 0.04 0.05 0.05 0.12 0.28 0.33 0.36 0.44 0.49 0.66 0.97 1.08 1.42 1.62 1.73 1.83 2.20 2.38 2.54 2.74 2.93 3.04 2.96 2.98 3.14 3.50 3.69 3.86 4.24 4.30 4.29 4.34 4.31 4.20 4.19 4.10 4.10 3.99 3.90 3.78 3.71 3.68 3.47 3.31 3.04
0.01 0.02 0.03 0.04 0.04 0.05 0.10 0.18 0.28 0.34 0.40 0.54 0.69 0.76 0.81 0.96 1.38 1.80 1.99 2.11 2.41 2.62 2.81 2.81 2.96 3.24 3.46 3.83 3.80 3.97 4.37 4.71 4.83 4.96 4.96 4.84 4.71 4.65 4.49 4.38 4.40 4.23 4.07 3.88 3.75 3.63 3.53 3.21 2.99
0.01 0.01 0.03 0.05 0.06 0.08 0.15 0.25 0.31 0.36 0.42 0.55 0.74 0.82 0.77 0.96 1.29 1.74 1.98 2.31 2.54 2.68 2.93 3.06 3.17 3.55 4.04 4.57 5.09 5.46 5.79 5.76 5.84 5.81 5.69 5.38 5.17 5.00 4.79 4.74 4.60 4.36 4.19 3.97 3.76 3.63 3.53 3.25 3.08
0.01 0.01 0.02 0.04 0.08 0.11 0.18 0.35 0.43 0.48 0.56 0.62 0.74 0.81 0.88 1.07 1.38 1.63 1.89 2.19 2.47 2.70 2.96 3.15 3.44 4.01 4.83 5.32 5.78 6.31 6.61 6.36 6.09 5.81 5.72 5.62 5.53 5.39 5.18 5.06 4.75 4.50 4.23 3.92 3.64 3.47 3.38 3.28 3.18
0.02 0.02 0.03 0.04 0.07 0.14 0.18 0.42 0.64 0.70 0.79 0.76 0.87 1.01 1.15 1.27 1.42 1.63 1.85 2.11 2.43 2.78 2.91 3.11 3.65 4.33 4.98 5.51 6.12 6.70 6.97 7.04 6.86 6.30 5.79 5.38 5.07 4.81 4.65 4.59 4.39 4.13 3.83 3.61 3.35 3.19 3.09 3.19 3.04
0.02 0.01 0.02 0.05 0.07 0.12 0.16 0.37 0.79 1.00 1.09 1.07 1.15 1.19 1.23 1.27 1.38 1.55 1.74 1.93 2.09 2.43 2.88 3.22 3.77 4.42 5.05 5.76 6.48 6.90 7.17 7.20 6.85 6.06 5.27 4.73 4.41 4.11 3.84 3.74 3.62 3.44 3.22 3.03 2.94 2.90 2.80 2.76 2.66
0.01 0.02 0.03 0.05 0.08 0.16 0.17 0.35 0.90 1.27 1.48 1.47 1.37 1.37 1.36 1.29 1.27 1.32 1.52 1.69 1.98 2.30 2.67 3.15 3.47 4.06 4.72 5.31 5.86 6.03 6.22 6.18 5.79 5.37 4.89 4.47 3.94 3.45 3.07 2.90 2.77 2.64 2.52 2.48 2.47 2.47 2.41 2.38 2.36
0.02 0.03 0.12 0.22 0.27 0.28 0.22 0.46 1.00 1.32 1.33 1.31 1.32 1.41 1.38 1.22 1.23 1.43 1.70 1.67 1.92 2.22 2.59 3.01 3.38 3.76 4.26 4.76 5.23 5.47 5.64 5.54 5.06 4.59 4.16 3.72 3.22 2.82 2.50 2.32 2.25 2.15 2.08 2.07 2.12 2.15 2.09 2.04 2.06
0.03 0.06 0.21 0.37 0.42 0.43 0.42 0.76 1.18 1.22 1.13 1.09 1.08 1.14 1.26 1.28 1.28 1.37 1.52 1.60 1.84 2.07 2.34 2.73 3.05 3.41 3.64 3.86 4.19 4.43 4.58 4.47 4.14 3.64 3.16 2.85 2.57 2.28 2.09 1.94 1.84 1.74 1.65 1.63 1.70 1.78 1.82 1.77 1.82
0.05 0.07 0.14 0.17 0.24 0.44 0.79 1.09 1.44 1.39 1.27 1.19 1.07 1.07 1.18 1.16 1.16 1.24 1.36 1.50 1.69 1.98 2.34 2.61 2.74 2.94 3.13 3.31 3.35 3.36 3.45 3.35 3.09 2.79 2.48 2.20 1.94 1.71 1.58 1.50 1.41 1.35 1.32 1.34 1.43 1.48 1.44 1.45 1.52
0.06 0.07 0.11 0.19 0.43 0.63 0.92 1.39 1.73 1.85 1.74 1.61 1.31 1.20 1.15 1.18 1.18 1.19 1.27 1.39 1.50 1.58 1.92 2.25 2.31 2.43 2.52 2.56 2.59 2.55 2.58 2.45 2.35 2.20 1.98 1.72 1.56 1.39 1.29 1.21 1.16 1.14 1.11 1.13 1.13 1.18 1.19 1.17 1.22
0.08 0.10 0.13 0.21 0.31 0.61 1.01 1.59 1.80 2.09 2.16 1.99 1.67 1.51 1.45 1.41 1.33 1.28 1.28 1.28 1.37 1.45 1.60 1.86 2.06 2.08 2.12 2.23 2.18 2.05 2.07 2.05 2.01 1.90 1.76 1.62 1.55 1.43 1.29 1.15 1.12 1.09 1.04 0.99 0.99 1.00 1.00 1.05 1.10
0.10 0.13 0.21 0.37 0.39 0.44 0.89 1.78 2.10 2.22 2.17 1.91 1.73 1.58 1.52 1.43 1.29 1.24 1.19 1.12 1.17 1.32 1.42 1.55 1.75 1.81 1.83 1.87 1.90 1.93 1.91 1.85 1.78 1.61 1.48 1.36 1.22 1.11 1.04 0.97 0.97 0.94 0.89 0.88 0.85 0.81 0.81 0.83 0.87

GEFSSGP_prec_meanprecacc_204.txt.gz
Total_Precipitation_Accumulation
0.00 0.01 0.01 0.01 0.02 0.03 0.09 0.13 0.18 0.21 0.27 0.24 0.23 0.26 0.37 0.48 0.65 1.20 0.72 0.36 0.22 0.12 0.09 0.09 0.09 0.08 0.09 0.11 0.13 0.13 0.13 0.13 0.13 0.13 0.14 0.14 0.14 0.14 0.14 0.14 0.16 0.22 0.26 0.25 0.23 0.24 0.25 0.22 0.17
0.01 0.01 0.02 0.02 0.03 0.07 0.14 0.14 0.17 0.21 0.25 0.26 0.24 0.26 0.32 0.40 0.32 0.28 0.26 0.25 0.23 0.13 0.09 0.07 0.09 0.08 0.09 0.10 0.12 0.15 0.15 0.14 0.14 0.15 0.15 0.15 0.14 0.14 0.15 0.16 0.19 0.26 0.31 0.31 0.30 0.28 0.25 0.21 0.17
0.01 0.01 0.01 0.02 0.03 0.07 0.18 0.21 0.23 0.23 0.25 0.25 0.32 0.38 0.42 0.49 0.43 0.34 0.30 0.29 0.27 0.16 0.11 0.09 0.09 0.08 0.09 0.09 0.11 0.16 0.18 0.16 0.15 0.15 0.15 0.16 0.16 0.15 0.17 0.21 0.22 0.24 0.29 0.29 0.23 0.20 0.20 0.21 0.18
0.00 0.01 0.01 0.02 0.05 0.07 0.14 0.23 0.29 0.26 0.28 0.29 0.35 0.50 0.48 0.49 0.46 0.42 0.37 0.38 0.30 0.22 0.15 0.10 0.11 0.11 0.12 0.12 0.14 0.18 0.18 0.18 0.18 0.19 0.21 0.21 0.20 0.20 0.22 0.27 0.28 0.28 0.30 0.28 0.25 0.23 0.22 0.23 0.20
0.00 0.01 0.02 0.04 0.04 0.08 0.14 0.23 0.37 0.38 0.37 0.36 0.43 0.67 0.80 0.73 0.70 0.62 0.41 0.39 0.38 0.29 0.21 0.14 0.14 0.16 0.18 0.21 0.23 0.26 0.26 0.25 0.27 0.29 0.30 0.28 0.27 0.27 0.28 0.31 0.34 0.32 0.33 0.32 0.31 0.30 0.28 0.26 0.23
0.00 0.00 0.02 0.06 0.05 0.08 0.15 0.25 0.31 0.35 0.32 0.30 0.48 0.88 1.28 1.10 0.85 0.92 0.78 0.53 0.46 0.35 0.27 0.23 0.20 0.23 0.29 0.31 0.33 0.36 0.34 0.32 0.33 0.36 0.37 0.33 0.29 0.28 0.29 0.31 0.33 0.36 0.41 0.40 0.34 0.29 0.26 0.24 0.24
0.00 0.00 0.02 0.06 0.09 0.11 0.18 0.25 0.33 0.30 0.27 0.41 0.72 1.09 1.42 1.30 1.04 1.04 1.02 0.75 0.65 0.53 0.40 0.34 0.28 0.29 0.37 0.44 0.41 0.40 0.37 0.36 0.36 0.42 0.45 0.41 0.34 0.30 0.31 0.36 0.38 0.39 0.39 0.35 0.31 0.27 0.25 0.24 0.25
0.01 0.00 0.01 0.04 0.10 0.14 0.18 0.26 0.31 0.27 0.36 0.53 0.84 1.06 1.34 1.37 1.15 0.97 0.93 0.87 0.80 0.80 0.65 0.55 0.50 0.47 0.48 0.49 0.48 0.44 0.41 0.42 0.42 0.43 0.44 0.43 0.36 0.34 0.37 0.39 0.42 0.38 0.37 0.37 0.37 0.37 0.36 0.34 0.31
0.01 0.01 0.02 0.04 0.10 0.19 0.22 0.24 0.24 0.26 0.36 0.57 0.71 0.75 1.05 1.18 1.07 1.05 1.02 0.93 0.89 0.88 0.93 0.91 0.74 0.68 0.69 0.62 0.53 0.55 0.49 0.47 0.45 0.43 0.42 0.43 0.49 0.58 0.58 0.50 0.51 0.50 0.51 0.53 0.53 0.51 0.50 0.46 0.43
0.01 0.02 0.03 0.06 0.10 0.17 0.23 0.25 0.22 0.26 0.30 0.50 0.74 0.77 0.81 1.01 1.16 1.24 1.26 1.16 1.09 1.08 1.15 1.19 1.12 0.99 0.93 0.87 0.90 0.89 0.78 0.68 0.58 0.65 0.62 0.62 0.88 0.98 0.85 0.90 0.84 0.79 0.76 0.70 0.69 0.67 0.63 0.59 0.56
0.02 0.04 0.06 0.09 0.09 0.12 0.19 0.21 0.18 0.28 0.42 0.50 0.81 1.15 1.03 1.16 1.47 1.74 1.57 1.50 1.52 1.45 1.23 1.14 1.25 1.26 1.34 1.43 1.27 1.25 1.26 1.18 1.04 1.16 1.09 1.11 1.29 1.20 1.19 1.30 1.17 1.04 0.97 0.94 1.02 0.90 0.73 0.69 0.75
0.02 0.03 0.06 0.09 0.06 0.08 0.12 0.19 0.27 0.36 0.60 0.70 0.92 1.18 1.47 1.46 1.70 1.79 1.80 1.82 1.74 1.78 1.59 1.37 1.30 1.28 1.43 1.61 1.53 1.48 1.46 1.43 1.35 1.39 1.26 1.43 1.61 1.70 1.72 1.83 1.65 1.56 1.49 1.51 1.47 1.37 1.15 1.03 1.00
0.01 0.02 0.04 0.05 0.05 0.05 0.11 0.21 0.28 0.32 0.34 0.55 0.77 1.00 1.42 1.44 1.47 1.74 1.98 2.24 2.27 2.14 1.99 1.80 1.56 1.48 1.57 1.76 1.78 1.74 1.76 1.70 1.81 1.94 1.74 1.74 1.78 1.88 2.18 2.16 2.26 1.92 1.91 1.98 1.91 1.71 1.63 1.48 1.33
0.01 0.01 0.02 0.04 0.04 0.06 0.11 0.17 0.22 0.21 0.23 0.35 0.49 0.71 0.99 1.18 1.44 1.88 2.23 2.48 2.82 2.64 2.31 2.11 2.00 1.81 1.75 1.79 1.90 1.94 1.89 2.01 2.11 2.27 2.15 2.16 2.23 2.37 2.71 2.78 2.67 2.37 2.36 2.57 2.61 2.40 2.19 1.99 1.89
0.01 0.01 0.02 0.03 0.04 0.05 0.09 0.18 0.21 0.22 0.24 0.29 0.39 0.58 0.81 1.22 1.51 2.03 2.46 2.73 3.08 2.82 2.72 2.55 2.44 2.37 2.14 2.06 2.21 2.30 2.17 2.15 2.21 2.43 2.55 2.56 2.62 2.88 2.92 3.13 3.05 2.88 2.83 2.83 2.80 2.98 2.97 2.54 2.25
0.03 0.03 0.03 0.05 0.05 0.05 0.07 0.21 0.24 0.22 0.24 0.31 0.44 0.65 0.87 1.20 1.53 1.77 2.07 2.41 2.92 3.01 2.81 2.77 2.51 2.43 2.56 2.54 2.70 2.72 2.75 2.82 2.71 2.77 3.02 3.08 3.12 3.22 3.23 3.15 3.12 3.07 3.08 3.32 3.38 3.32 3.28 3.09 2.78
0.05 0.03 0.03 0.05 0.05 0.05 0.06 0.18 0.28 0.21 0.23 0.34 0.48 0.76 1.11 1.18 1.39 1.47 1.73 2.01 2.42 2.51 2.61 2.76 2.73 2.63 2.63 2.79 3.11 3.26 3.41 3.59 3.74 3.74 3.93 3.86 3.67 3.61 3.65 3.62 3.67 3.54 3.58 3.56 3.41 3.68 3.60 3.44 3.13
0.02 0.03 0.03 0.04 0.04 0.05 0.05 0.14 0.30 0.34 0.37 0.46 0.51 0.67 0.98 1.09 1.43 1.64 1.74 1.84 2.22 2.39 2.55 2.76 2.95 3.08 3.01 3.06 3.26 3.67 3.88 4.04 4.41 4.44 4.41 4.46 4.47 4.35 4.31 4.20 4.18 4.09 4.00 3.87 3.79 3.79 3.57 3.41 3.16
0.01 0.03 0.03 0.04 0.04 0.05 0.10 0.19 0.28 0.35 0.42 0.56 0.71 0.77 0.82 0.98 1.40 1.81 2.00 2.11 2.43 2.64 2.82 2.82 2.98 3.27 3.50 3.90 3.88 4.06 4.49 4.85 5.00 5.11 5.05 4.93 4.80 4.76 4.60 4.48 4.50 4.32 4.15 3.95 3.82 3.74 3.62 3.31 3.10
0.01 0.01 0.03 0.05 0.06 0.08 0.15 0.25 0.32 0.37 0.43 0.56 0.75 0.82 0.78 0.98 1.30 1.76 2.00 2.34 2.57 2.69 2.94 3.08 3.18 3.57 4.06 4.62 5.15 5.54 5.87 5.88 5.98 5.95 5.80 5.48 5.26 5.09 4.88 4.85 4.72 4.46 4.27 4.04 3.85 3.74 3.63 3.33 3.19
0.01 0.02 0.03 0.05 0.08 0.11 0.19 0.36 0.44 0.49 0.57 0.63 0.75 0.81 0.89 1.09 1.40 1.64 1.91 2.23 2.51 2.72 2.99 3.17 3.45 4.03 4.84 5.35 5.82 6.38 6.69 6.43 6.17 5.89 5.79 5.68 5.59 5.46 5.27 5.16 4.87 4.61 4.32 4.00 3.74 3.58 3.48 3.37 3.27
0.02 0.02 0.03 0.05 0.07 0.16 0.20 0.43 0.66 0.72 0.80 0.77 0.89 1.02 1.16 1.28 1.44 1.65 1.87 2.15 2.46 2.81 2.94 3.13 3.67 4.36 5.01 5.55 6.16 6.75 7.03 7.10 6.91 6.35 5.85 5.42 5.12 4.87 4.74 4.68 4.48 4.23 3.93 3.70 3.44 3.30 3.20 3.29 3.14
0.02 0.01 0.02 0.05 0.08 0.14 0.18 0.39 0.82 1.05 1.13 1.10 1.17 1.21 1.24 1.27 1.39 1.56 1.76 1.97 2.13 2.46 2.92 3.26 3.82 4.48 5.11 5.82 6.54 6.97 7.23 7.26 6.90 6.10 5.31 4.78 4.45 4.15 3.90 3.83 3.73 3.55 3.33 3.12 3.03 3.00 2.90 2.86 2.75
0.01 0.02 0.03 0.07 0.12 0.20 0.19 0.38 0.95 1.32 1.53 1.50 1.40 1.40 1.38 1.30 1.28 1.33 1.54 1.71 2.01 2.34 2.72 3.21 3.54 4.13 4.80 5.38 5.94 6.12 6.29 6.25 5.85 5.41 4.93 4.51 3.98 3.49 3.12 2.96 2.87 2.74 2.61 2.57 2.56 2.57 2.50 2.46 2.44
0.02 0.04 0.15 0.27 0.32 0.32 0.23 0.48 1.03 1.35 1.36 1.35 1.36 1.43 1.40 1.23 1.25 1.47 1.74 1.70 1.95 2.25 2.63 3.05 3.44 3.83 4.34 4.86 5.34 5.57 5.71 5.60 5.12 4.64 4.20 3.76 3.25 2.86 2.55 2.38 2.32 2.23 2.17 2.15 2.21 2.24 2.17 2.11 2.13
0.03 0.08 0.24 0.41 0.46 0.48 0.45 0.79 1.21 1.23 1.14 1.10 1.09 1.15 1.27 1.30 1.34 1.44 1.58 1.64 1.86 2.09 2.36 2.76 3.10 3.47 3.71 3.94 4.29 4.53 4.66 4.53 4.18 3.69 3.21 2.89 2.61 2.32 2.13 1.99 1.90 1.82 1.73 1.71 1.79 1.87 1.90 1.85 1.90
0.05 0.08 0.15 0.18 0.25 0.47 0.82 1.12 1.46 1.41 1.28 1.20 1.08 1.08 1.19 1.17 1.18 1.28 1.42 1.53 1.70 2.00 2.36 2.64 2.77 2.98 3.18 3.38 3.43 3.43 3.53 3.42 3.15 2.84 2.53 2.24 1.98 1.74 1.62 1.54 1.48 1.42 1.39 1.43 1.52 1.59 1.55 1.54 1.61
0.06 0.08 0.11 0.19 0.45 0.67 0.96 1.43 1.77 1.88 1.77 1.63 1.34 1.22 1.16 1.19 1.19 1.20 1.28 1.41 1.52 1.61 1.95 2.27 2.34 2.46 2.56 2.63 2.66 2.60 2.64 2.52 2.43 2.26 2.02 1.76 1.60 1.43 1.33 1.26 1.23 1.20 1.18 1.20 1.21 1.28 1.30 1.26 1.30
0.08 0.10 0.13 0.21 0.32 0.64 1.05 1.63 1.84 2.12 2.20 2.04 1.70 1.52 1.47 1.42 1.34 1.29 1.29 1.29 1.39 1.49 1.63 1.89 2.09 2.11 2.16 2.28 2.24 2.11 2.14 2.13 2.08 1.96 1.80 1.66 1.60 1.48 1.33 1.20 1.20 1.17 1.12 1.07 1.07 1.08 1.10 1.14 1.18
0.10 0.13 0.22 0.39 0.42 0.47 0.92 1.81 2.11 2.24 2.19 1.94 1.74 1.59 1.53 1.45 1.30 1.25 1.20 1.13 1.19 1.34 1.45 1.57 1.78 1.84 1.85 1.91 1.96 2.00 1.99 1.92 1.84 1.66 1.52 1.40 1.27 1.17 1.09 1.03 1.04 1.02 0.97 0.96 0.93 0.87 0.87 0.90 0.95

GEFSSGP_prec_meanprecacc_210.txt.gz
Total_Precipitation_Accumulation
0.00 0.01 0.01 0.01 0.03 0.04 0.11 0.15 0.21 0.24 0.29 0.25 0.24 0.27 0.39 0.52 0.68 1.25 0.76 0.39 0.24 0.13 0.10 0.10 0.13 0.13 0.11 0.12 0.13 0.13 0.13 0.14 0.14 0.14 0.14 0.15 0.14 0.14 0.14 0.15 0.17 0.23 0.27 0.26 0.24 0.25 0.27 0.24 0.19
0.01 0.01 0.02 0.03 0.03 0.09 0.18 0.19 0.21 0.22 0.26 0.27 0.25 0.27 0.33 0.44 0.35 0.32 0.31 0.29 0.25 0.13 0.10 0.08 0.11 0.14 0.11 0.11 0.13 0.15 0.15 0.14 0.14 0.15 0.15 0.15 0.14 0.15 0.16 0.17 0.20 0.27 0.32 0.32 0.31 0.30 0.27 0.24 0.20
0.01 0.01 0.01 0.02 0.03 0.08 0.23 0.28 0.27 0.26 0.27 0.26 0.33 0.38 0.43 0.53 0.46 0.36 0.33 0.31 0.28 0.17 0.12 0.10 0.11 0.12 0.11 0.11 0.12 0.16 0.18 0.16 0.15 0.16 0.16 0.16 0.16 0.15 0.18 0.21 0.23 0.25 0.30 0.29 0.24 0.22 0.22 0.24 0.21
0.01 0.01 0.01 0.03 0.06 0.09 0.18 0.27 0.31 0.31 0.32 0.31 0.36 0.52 0.50 0.51 0.48 0.44 0.39 0.40 0.32 0.23 0.16 0.11 0.12 0.12 0.13 0.14 0.15 0.18 0.18 0.18 0.18 0.19 0.21 0.22 0.20 0.20 0.23 0.27 0.29 0.29 0.30 0.29 0.26 0.24 0.23 0.25 0.23
0.01 0.01 0.03 0.06 0.07 0.10 0.17 0.26 0.40 0.42 0.43 0.39 0.44 0.69 0.82 0.76 0.72 0.64 0.43 0.41 0.40 0.30 0.23 0.16 0.16 0.17 0.20 0.22 0.25 0.27 0.27 0.26 0.28 0.30 0.30 0.28 0.27 0.28 0.28 0.31 0.35 0.33 0.34 0.32 0.31 0.31 0.29 0.27 0.24
0.00 0.01 0.03 0.07 0.07 0.11 0.19 0.28 0.35 0.38 0.35 0.33 0.49 0.89 1.31 1.13 0.87 0.93 0.80 0.54 0.47 0.36 0.29 0.26 0.22 0.25 0.31 0.33 0.35 0.39 0.37 0.34 0.34 0.38 0.38 0.33 0.29 0.28 0.30 0.32 0.34 0.37 0.42 0.41 0.35 0.30 0.27 0.25 0.25
0.00 0.01 0.03 0.07 0.12 0.14 0.21 0.27 0.35 0.32 0.29 0.43 0.73 1.11 1.44 1.33 1.06 1.06 1.03 0.76 0.66 0.55 0.43 0.37 0.31 0.32 0.41 0.48 0.45 0.44 0.42 0.39 0.39 0.43 0.46 0.41 0.35 0.31 0.32 0.37 0.39 0.41 0.41 0.37 0.32 0.28 0.26 0.26 0.26
0.01 0.01 0.02 0.06 0.16 0.18 0.20 0.28 0.33 0.31 0.38 0.55 0.85 1.06 1.36 1.39 1.16 0.99 0.94 0.89 0.83 0.83 0.69 0.60 0.54 0.50 0.53 0.54 0.52 0.48 0.45 0.45 0.45 0.45 0.45 0.44 0.38 0.36 0.39 0.41 0.44 0.41 0.40 0.40 0.41 0.40 0.39 0.37 0.34
0.01 0.02 0.03 0.06 0.15 0.21 0.23 0.26 0.27 0.28 0.37 0.58 0.72 0.76 1.07 1.20 1.09 1.08 1.05 0.95 0.93 0.94 1.05 0.98 0.81 0.72 0.73 0.66 0.58 0.60 0.54 0.51 0.48 0.46 0.45 0.45 0.51 0.60 0.60 0.52 0.54 0.53 0.55 0.57 0.57 0.55 0.55 0.51 0.48
0.01 0.03 0.04 0.07 0.11 0.19 0.26 0.28 0.25 0.29 0.32 0.53 0.84 0.84 0.84 1.02 1.18 1.27 1.30 1.19 1.13 1.12 1.24 1.28 1.23 1.08 0.99 0.93 0.95 0.94 0.84 0.73 0.61 0.68 0.66 0.65 0.91 1.00 0.87 0.92 0.87 0.83 0.80 0.74 0.75 0.74 0.68 0.63 0.59
0.02 0.05 0.07 0.09 0.09 0.15 0.22 0.23 0.21 0.32 0.46 0.54 0.89 1.22 1.05 1.18 1.48 1.77 1.60 1.54 1.56 1.48 1.27 1.19 1.32 1.35 1.42 1.52 1.33 1.31 1.30 1.23 1.09 1.20 1.13 1.15 1.33 1.23 1.22 1.33 1.20 1.07 1.01 0.97 1.06 0.95 0.76 0.72 0.78
0.02 0.04 0.07 0.11 0.08 0.11 0.13 0.20 0.28 0.39 0.65 0.75 0.96 1.21 1.51 1.49 1.73 1.84 1.88 1.86 1.79 1.80 1.61 1.40 1.35 1.36 1.54 1.72 1.61 1.54 1.50 1.47 1.40 1.44 1.29 1.47 1.65 1.75 1.76 1.87 1.68 1.60 1.53 1.55 1.51 1.41 1.18 1.06 1.02
0.02 0.03 0.05 0.07 0.07 0.07 0.13 0.24 0.30 0.34 0.42 0.61 0.81 1.03 1.44 1.47 1.51 1.77 2.04 2.29 2.32 2.18 2.03 1.84 1.61 1.54 1.67 1.89 1.95 1.86 1.83 1.78 1.88 2.00 1.79 1.79 1.82 1.93 2.22 2.21 2.33 2.00 1.99 2.05 1.96 1.75 1.66 1.52 1.36
0.02 0.02 0.03 0.04 0.05 0.07 0.12 0.19 0.24 0.24 0.31 0.42 0.52 0.74 1.02 1.21 1.47 1.92 2.28 2.53 2.88 2.71 2.36 2.14 2.04 1.85 1.80 1.90 2.10 2.19 2.06 2.11 2.21 2.34 2.23 2.24 2.30 2.43 2.78 2.86 2.77 2.50 2.50 2.68 2.69 2.46 2.24 2.02 1.91
0.01 0.02 0.03 0.03 0.04 0.06 0.09 0.20 0.24 0.27 0.29 0.34 0.42 0.61 0.87 1.27 1.55 2.10 2.55 2.80 3.13 2.86 2.75 2.57 2.48 2.40 2.18 2.14 2.35 2.49 2.41 2.34 2.35 2.53 2.64 2.65 2.72 3.02 3.13 3.36 3.26 3.03 2.95 2.94 2.89 3.04 3.01 2.58 2.28
0.03 0.04 0.05 0.06 0.05 0.05 0.08 0.22 0.26 0.25 0.28 0.35 0.49 0.71 0.94 1.25 1.56 1.82 2.14 2.49 2.98 3.05 2.84 2.80 2.54 2.46 2.60 2.61 2.84 2.83 2.89 3.02 2.94 2.95 3.16 3.20 3.26 3.36 3.40 3.40 3.39 3.26 3.22 3.44 3.48 3.39 3.34 3.14 2.83
0.05 0.04 0.05 0.06 0.05 0.05 0.06 0.19 0.30 0.24 0.25 0.36 0.53 0.81 1.16 1.22 1.42 1.53 1.82 2.12 2.49 2.56 2.66 2.80 2.75 2.65 2.66 2.83 3.18 3.34 3.48 3.69 3.88 3.93 4.14 4.05 3.86 3.80 3.81 3.76 3.85 3.69 3.70 3.66 3.50 3.75 3.66 3.49 3.17
0.02 0.04 0.04 0.05 0.05 0.05 0.06 0.14 0.32 0.37 0.39 0.48 0.53 0.70 1.00 1.11 1.45 1.68 1.80 1.91 2.28 2.49 2.68 2.84 2.98 3.12 3.04 3.08 3.29 3.71 3.93 4.09 4.48 4.55 4.56 4.63 4.63 4.51 4.46 4.33 4.32 4.21 4.10 3.96 3.87 3.85 3.63 3.47 3.21
0.02 0.03 0.04 0.04 0.04 0.06 0.11 0.20 0.31 0.39 0.45 0.60 0.76 0.82 0.85 1.02 1.44 1.84 2.02 2.15 2.47 2.71 2.88 2.86 3.02 3.31 3.54 3.93 3.92 4.10 4.54 4.89 5.05 5.17 5.13 5.05 4.96 4.92 4.76 4.60 4.63 4.46 4.26 4.04 3.90 3.81 3.70 3.38 3.18
0.01 0.02 0.03 0.05 0.07 0.09 0.16 0.27 0.36 0.45 0.51 0.64 0.82 0.88 0.82 1.01 1.33 1.78 2.02 2.35 2.59 2.73 2.98 3.12 3.21 3.61 4.10 4.65 5.18 5.57 5.91 5.92 6.04 6.00 5.86 5.55 5.35 5.21 5.00 4.96 4.82 4.57 4.38 4.14 3.94 3.82 3.70 3.40 3.27
0.01 0.02 0.04 0.06 0.09 0.13 0.20 0.38 0.50 0.59 0.67 0.74 0.83 0.87 0.94 1.13 1.43 1.66 1.92 2.24 2.52 2.74 3.01 3.19 3.48 4.06 4.87 5.39 5.87 6.44 6.76 6.49 6.23 5.94 5.85 5.74 5.66 5.54 5.35 5.27 4.98 4.73 4.44 4.10 3.83 3.65 3.54 3.42 3.34
0.03 0.04 0.04 0.05 0.09 0.19 0.22 0.45 0.72 0.82 0.94 0.88 0.96 1.08 1.22 1.33 1.47 1.66 1.90 2.18 2.48 2.83 2.96 3.15 3.70 4.40 5.05 5.60 6.22 6.82 7.10 7.16 6.96 6.38 5.89 5.46 5.17 4.93 4.80 4.75 4.56 4.34 4.03 3.79 3.53 3.39 3.28 3.37 3.21
0.03 0.03 0.03 0.06 0.09 0.17 0.20 0.42 0.87 1.10 1.22 1.19 1.23 1.27 1.29 1.32 1.42 1.59 1.81 2.02 2.16 2.51 2.98 3.30 3.86 4.52 5.16 5.88 6.61 7.04 7.29 7.31 6.94 6.13 5.35 4.82 4.49 4.20 3.95 3.88 3.77 3.61 3.40 3.20 3.11 3.08 2.99 2.95 2.83
0.02 0.03 0.06 0.10 0.14 0.23 0.22 0.41 0.99 1.36 1.58 1.56 1.45 1.43 1.41 1.33 1.31 1.36 1.58 1.74 2.03 2.39 2.78 3.26 3.57 4.16 4.84 5.44 6.00 6.19 6.35 6.30 5.90 5.46 4.98 4.56 4.02 3.53 3.16 3.01 2.91 2.78 2.67 2.65 2.64 2.64 2.59 2.57 2.54
0.02 0.06 0.19 0.31 0.35 0.35 0.26 0.51 1.07 1.39 1.40 1.40 1.39 1.45 1.42 1.25 1.27 1.49 1.76 1.73 1.98 2.27 2.66 3.09 3.48 3.85 4.37 4.89 5.37 5.61 5.75 5.64 5.15 4.69 4.25 3.82 3.31 2.91 2.60 2.41 2.35 2.26 2.21 2.21 2.29 2.33 2.26 2.20 2.22
0.03 0.08 0.25 0.42 0.48 0.50 0.47 0.82 1.25 1.28 1.18 1.13 1.12 1.16 1.29 1.33 1.36 1.46 1.60 1.67 1.93 2.14 2.39 2.78 3.12 3.49 3.73 3.96 4.32 4.55 4.68 4.56 4.21 3.72 3.24 2.92 2.63 2.34 2.16 2.02 1.93 1.86 1.78 1.76 1.85 1.95 2.00 1.95 1.97
0.05 0.08 0.16 0.20 0.27 0.49 0.85 1.15 1.50 1.44 1.31 1.21 1.09 1.10 1.21 1.18 1.20 1.29 1.44 1.57 1.75 2.04 2.39 2.66 2.79 2.99 3.20 3.40 3.46 3.45 3.54 3.45 3.18 2.87 2.56 2.27 2.00 1.75 1.64 1.57 1.51 1.46 1.44 1.48 1.59 1.65 1.63 1.62 1.68
0.06 0.08 0.12 0.21 0.47 0.70 0.98 1.45 1.80 1.91 1.80 1.66 1.36 1.25 1.18 1.20 1.20 1.21 1.30 1.45 1.54 1.64 1.97 2.29 2.35 2.47 2.57 2.66 2.70 2.62 2.65 2.53 2.46 2.29 2.05 1.78 1.62 1.44 1.34 1.28 1.25 1.24 1.22 1.25 1.28 1.35 1.39 1.36 1.39
0.09 0.10 0.14 0.22 0.33 0.68 1.07 1.65 1.86 2.16 2.23 2.07 1.73 1.57 1.50 1.44 1.34 1.30 1.31 1.31 1.40 1.51 1.66 1.90 2.10 2.13 2.17 2.30 2.28 2.15 2.17 2.15 2.11 1.99 1.83 1.68 1.61 1.50 1.34 1.22 1.23 1.21 1.16 1.12 1.13 1.15 1.20 1.26 1.28
0.10 0.13 0.22 0.39 0.43 0.49 0.94 1.83 2.14 2.27 2.21 1.97 1.79 1.65 1.56 1.47 1.32 1.26 1.21 1.14 1.20 1.37 1.48 1.60 1.80 1.87 1.89 1.96 2.03 2.07 2.04 1.95 1.87 1.69 1.55 1.42 1.29 1.19 1.12 1.06 1.08 1.07 1.02 1.01 0.97 0.92 0.94 0.99 1.04

GEFSSGP_prec_meanprecacc_216.txt.gz
Total_Precipitation_Accumulation
0.01 0.01 0.01 0.02 0.03 0.04 0.11 0.17 0.22 0.25 0.31 0.27 0.25 0.28 0.40 0.53 0.69 1.26 0.78 0.40 0.25 0.14 0.12 0.14 0.20 0.17 0.14 0.15 0.16 0.16 0.14 0.14 0.14 0.14 0.15 0.15 0.16 0.16 0.16 0.16 0.18 0.23 0.28 0.27 0.26 0.27 0.29 0.27 0.23
0.01 0.01 0.02 0.03 0.03 0.09 0.19 0.20 0.24 0.24 0.27 0.29 0.26 0.28 0.34 0.45 0.35 0.34 0.32 0.30 0.26 0.14 0.11 0.10 0.15 0.19 0.15 0.14 0.16 0.17 0.17 0.15 0.14 0.15 0.15 0.15 0.16 0.17 0.18 0.18 0.21 0.27 0.32 0.33 0.32 0.31 0.28 0.27 0.23
0.01 0.01 0.01 0.02 0.03 0.08 0.24 0.29 0.29 0.27 0.28 0.28 0.34 0.39 0.45 0.55 0.47 0.37 0.34 0.32 0.29 0.17 0.13 0.11 0.13 0.15 0.16 0.15 0.15 0.18 0.19 0.17 0.16 0.16 0.16 0.17 0.17 0.16 0.19 0.23 0.24 0.26 0.31 0.30 0.25 0.23 0.23 0.25 0.23
0.01 0.01 0.01 0.04 0.06 0.09 0.18 0.28 0.32 0.32 0.34 0.32 0.36 0.53 0.51 0.52 0.49 0.44 0.41 0.41 0.32 0.24 0.17 0.13 0.13 0.14 0.17 0.20 0.19 0.20 0.20 0.19 0.19 0.20 0.22 0.22 0.21 0.21 0.24 0.30 0.32 0.32 0.33 0.30 0.27 0.26 0.25 0.27 0.24
0.01 0.01 0.03 0.06 0.07 0.10 0.17 0.27 0.41 0.44 0.45 0.40 0.45 0.69 0.84 0.77 0.73 0.64 0.44 0.41 0.40 0.31 0.24 0.17 0.17 0.19 0.23 0.29 0.29 0.30 0.29 0.27 0.29 0.31 0.31 0.29 0.28 0.29 0.30 0.34 0.38 0.37 0.37 0.35 0.33 0.33 0.32 0.29 0.26
0.00 0.01 0.03 0.07 0.08 0.11 0.19 0.29 0.37 0.40 0.36 0.34 0.50 0.89 1.32 1.14 0.88 0.93 0.80 0.54 0.47 0.37 0.31 0.28 0.24 0.27 0.35 0.40 0.39 0.41 0.38 0.35 0.36 0.39 0.39 0.34 0.31 0.30 0.32 0.35 0.38 0.41 0.45 0.43 0.37 0.32 0.30 0.28 0.28
0.00 0.01 0.03 0.07 0.13 0.15 0.22 0.29 0.40 0.36 0.31 0.44 0.73 1.11 1.45 1.35 1.08 1.07 1.05 0.77 0.66 0.55 0.44 0.40 0.35 0.35 0.44 0.55 0.49 0.47 0.44 0.41 0.41 0.45 0.47 0.43 0.37 0.32 0.34 0.41 0.43 0.45 0.45 0.40 0.35 0.31 0.29 0.29 0.30
0.01 0.01 0.03 0.06 0.16 0.19 0.21 0.29 0.37 0.34 0.41 0.59 0.86 1.07 1.37 1.41 1.19 1.04 0.98 0.90 0.84 0.84 0.70 0.62 0.59 0.56 0.56 0.59 0.56 0.52 0.48 0.47 0.47 0.47 0.47 0.47 0.40 0.38 0.41 0.44 0.48 0.44 0.46 0.46 0.44 0.43 0.43 0.41 0.38
0.01 0.02 0.03 0.06 0.15 0.22 0.24 0.27 0.29 0.31 0.39 0.61 0.73 0.77 1.08 1.22 1.15 1.16 1.09 0.98 0.94 0.95 1.07 1.00 0.86 0.80 0.78 0.69 0.61 0.63 0.57 0.53 0.50 0.48 0.47 0.48 0.53 0.62 0.62 0.54 0.56 0.56 0.60 0.64 0.62 0.60 0.59 0.56 0.52
0.01 0.04 0.05 0.07 0.11 0.20 0.26 0.29 0.27 0.31 0.35 0.55 0.85 0.85 0.85 1.05 1.23 1.33 1.35 1.22 1.15 1.15 1.27 1.30 1.26 1.16 1.06 0.97 0.99 0.98 0.87 0.75 0.63 0.70 0.67 0.67 0.93 1.03 0.90 0.95 0.89 0.86 0.84 0.82 0.81 0.79 0.72 0.67 0.61
0.03 0.06 0.08 0.11 0.10 0.15 0.22 0.24 0.22 0.34 0.50 0.57 0.90 1.23 1.07 1.20 1.51 1.80 1.65 1.58 1.58 1.50 1.31 1.24 1.37 1.42 1.50 1.58 1.38 1.36 1.36 1.27 1.11 1.23 1.16 1.17 1.34 1.26 1.26 1.36 1.23 1.11 1.05 1.02 1.12 1.00 0.79 0.74 0.80
0.03 0.05 0.08 0.12 0.10 0.11 0.14 0.21 0.28 0.40 0.68 0.77 0.97 1.23 1.53 1.52 1.74 1.85 1.90 1.88 1.82 1.83 1.65 1.44 1.40 1.43 1.61 1.80 1.68 1.62 1.59 1.55 1.46 1.49 1.34 1.52 1.69 1.78 1.80 1.91 1.73 1.65 1.58 1.59 1.56 1.46 1.22 1.08 1.05
0.03 0.03 0.06 0.08 0.09 0.08 0.14 0.24 0.30 0.35 0.43 0.62 0.82 1.04 1.46 1.50 1.53 1.80 2.07 2.33 2.36 2.23 2.07 1.87 1.66 1.60 1.74 1.97 2.03 1.94 1.93 1.88 1.97 2.08 1.86 1.86 1.88 1.99 2.29 2.29 2.42 2.08 2.06 2.12 2.04 1.82 1.72 1.56 1.39
0.02 0.02 0.04 0.06 0.06 0.08 0.13 0.19 0.24 0.24 0.32 0.43 0.53 0.75 1.03 1.23 1.50 1.95 2.31 2.57 2.93 2.77 2.42 2.18 2.07 1.90 1.87 1.96 2.17 2.27 2.14 2.19 2.29 2.43 2.32 2.32 2.38 2.51 2.85 2.94 2.87 2.59 2.59 2.76 2.78 2.55 2.30 2.07 1.95
0.02 0.02 0.03 0.04 0.06 0.06 0.10 0.20 0.25 0.27 0.30 0.36 0.43 0.62 0.89 1.30 1.59 2.14 2.59 2.84 3.18 2.91 2.80 2.62 2.53 2.46 2.25 2.21 2.42 2.57 2.48 2.40 2.41 2.59 2.70 2.70 2.78 3.09 3.21 3.46 3.37 3.13 3.06 3.07 3.01 3.15 3.11 2.66 2.34
0.04 0.04 0.05 0.07 0.05 0.05 0.08 0.23 0.27 0.27 0.30 0.38 0.52 0.72 0.97 1.28 1.61 1.86 2.19 2.54 3.04 3.10 2.88 2.85 2.58 2.52 2.67 2.69 2.93 2.93 2.98 3.09 3.01 3.01 3.22 3.27 3.33 3.44 3.47 3.47 3.47 3.36 3.30 3.54 3.61 3.53 3.45 3.22 2.88
0.06 0.04 0.05 0.07 0.06 0.06 0.06 0.20 0.31 0.25 0.28 0.39 0.56 0.84 1.19 1.27 1.48 1.59 1.88 2.17 2.55 2.61 2.70 2.85 2.80 2.71 2.73 2.93 3.29 3.44 3.58 3.78 3.97 4.00 4.19 4.12 3.94 3.89 3.92 3.86 3.91 3.76 3.77 3.72 3.58 3.86 3.76 3.57 3.22
0.02 0.04 0.05 0.06 0.06 0.06 0.06 0.15 0.33 0.39 0.41 0.51 0.57 0.74 1.04 1.14 1.50 1.73 1.85 1.95 2.32 2.53 2.72 2.89 3.03 3.16 3.10 3.16 3.38 3.81 4.00 4.17 4.56 4.63 4.63 4.71 4.73 4.61 4.56 4.47 4.45 4.30 4.18 4.02 3.93 3.92 3.70 3.54 3.27
0.02 0.03 0.04 0.05 0.05 0.07 0.12 0.21 0.32 0.41 0.48 0.63 0.79 0.86 0.88 1.06 1.47 1.87 2.05 2.17 2.50 2.73 2.91 2.89 3.04 3.35 3.59 3.97 3.96 4.16 4.59 4.96 5.11 5.23 5.20 5.12 5.04 5.03 4.85 4.67 4.73 4.57 4.35 4.11 3.96 3.88 3.77 3.44 3.25
0.01 0.02 0.04 0.06 0.08 0.10 0.17 0.28 0.37 0.46 0.53 0.67 0.85 0.91 0.85 1.05 1.36 1.80 2.03 2.37 2.61 2.75 3.00 3.13 3.24 3.63 4.13 4.69 5.21 5.60 5.95 5.96 6.09 6.05 5.92 5.62 5.44 5.30 5.11 5.05 4.88 4.64 4.46 4.21 4.00 3.89 3.78 3.46 3.34
0.02 0.03 0.05 0.06 0.10 0.14 0.20 0.38 0.50 0.60 0.68 0.76 0.85 0.91 0.98 1.17 1.47 1.68 1.93 2.25 2.53 2.75 3.02 3.20 3.49 4.08 4.90 5.42 5.89 6.46 6.79 6.52 6.26 5.97 5.89 5.79 5.72 5.60 5.41 5.33 5.05 4.81 4.52 4.18 3.91 3.73 3.62 3.50 3.41
0.04 0.04 0.05 0.06 0.10 0.20 0.23 0.46 0.73 0.83 0.95 0.89 0.97 1.11 1.25 1.36 1.49 1.68 1.91 2.19 2.49 2.83 2.97 3.16 3.71 4.41 5.07 5.62 6.24 6.84 7.14 7.19 6.99 6.42 5.93 5.50 5.21 4.99 4.85 4.79 4.60 4.40 4.11 3.87 3.60 3.46 3.36 3.45 3.29
0.04 0.04 0.04 0.07 0.10 0.18 0.22 0.44 0.88 1.11 1.24 1.20 1.25 1.30 1.33 1.35 1.45 1.61 1.82 2.03 2.17 2.52 2.99 3.31 3.86 4.52 5.17 5.90 6.63 7.07 7.31 7.33 6.97 6.17 5.38 4.85 4.53 4.24 4.01 3.92 3.82 3.66 3.46 3.29 3.20 3.17 3.08 3.03 2.90
0.02 0.04 0.06 0.11 0.15 0.25 0.24 0.42 1.00 1.37 1.59 1.58 1.46 1.47 1.45 1.37 1.34 1.38 1.59 1.75 2.04 2.39 2.79 3.27 3.58 4.17 4.85 5.45 6.02 6.20 6.36 6.31 5.91 5.47 4.99 4.59 4.06 3.58 3.23 3.06 2.96 2.82 2.71 2.71 2.72 2.74 2.68 2.65 2.61
0.02 0.06 0.21 0.34 0.38 0.37 0.27 0.52 1.08 1.40 1.41 1.41 1.40 1.48 1.45 1.27 1.30 1.51 1.77 1.74 1.99 2.28 2.66 3.10 3.48 3.87 4.38 4.91 5.39 5.63 5.76 5.65 5.16 4.69 4.26 3.83 3.33 2.94 2.65 2.47 2.40 2.31 2.25 2.25 2.35 2.42 2.35 2.29 2.30
0.03 0.08 0.27 0.44 0.49 0.51 0.47 0.83 1.27 1.29 1.19 1.14 1.13 1.18 1.32 1.35 1.39 1.48 1.61 1.68 1.94 2.15 2.40 2.79 3.13 3.50 3.74 3.97 4.33 4.57 4.70 4.56 4.22 3.73 3.25 2.93 2.65 2.36 2.19 2.06 1.98 1.90 1.82 1.79 1.89 2.00 2.06 2.02 2.05
0.05 0.08 0.16 0.20 0.27 0.50 0.85 1.15 1.51 1.44 1.31 1.22 1.10 1.11 1.23 1.21 1.22 1.32 1.46 1.58 1.76 2.05 2.40 2.67 2.80 3.00 3.21 3.41 3.47 3.46 3.55 3.45 3.19 2.88 2.57 2.28 2.01 1.77 1.66 1.60 1.54 1.49 1.47 1.52 1.63 1.69 1.67 1.67 1.73
0.06 0.08 0.12 0.21 0.47 0.71 0.98 1.46 1.81 1.91 1.80 1.67 1.37 1.26 1.19 1.23 1.22 1.23 1.32 1.46 1.55 1.64 1.98 2.30 2.36 2.48 2.58 2.67 2.71 2.64 2.66 2.54 2.47 2.30 2.06 1.79 1.63 1.46 1.37 1.30 1.28 1.27 1.25 1.29 1.32 1.40 1.44 1.40 1.42
0.09 0.10 0.14 0.22 0.33 0.68 1.08 1.66 1.87 2.16 2.23 2.08 1.74 1.58 1.52 1.46 1.36 1.31 1.32 1.32 1.41 1.52 1.66 1.91 2.11 2.14 2.18 2.32 2.30 2.17 2.21 2.19 2.15 2.02 1.86 1.72 1.65 1.53 1.37 1.24 1.26 1.24 1.20 1.17 1.18 1.20 1.25 1.30 1.31
0.10 0.14 0.22 0.40 0.43 0.49 0.94 1.84 2.14 2.27 2.22 1.97 1.79 1.67 1.58 1.49 1.33 1.28 1.22 1.15 1.21 1.37 1.49 1.61 1.81 1.89 1.91 1.99 2.06 2.11 2.11 2.04 1.93 1.75 1.62 1.49 1.36 1.24 1.15 1.09 1.13 1.11 1.06 1.04 1.01 0.97 1.00 1.04 1.09

GEFSSGP_prec_meanprecacc_222.txt.gz
Total_Precipitation_Accumulation
0.01 0.01 0.01 0.02 0.03 0.04 0.12 0.17 0.23 0.26 0.31 0.28 0.26 0.29 0.41 0.55 0.71 1.28 0.78 0.41 0.25 0.15 0.13 0.15 0.22 0.18 0.16 0.17 0.18 0.22 0.27 0.21 0.17 0.16 0.16 0.17 0.17 0.17 0.17 0.17 0.19 0.25 0.30 0.29 0.28 0.29 0.31 0.28 0.24
0.01 0.01 0.02 0.03 0.03 0.09 0.20 0.21 0.24 0.24 0.28 0.29 0.27 0.28 0.35 0.46 0.36 0.34 0.32 0.31 0.26 0.15 0.12 0.11 0.16 0.20 0.17 0.16 0.18 0.23 0.29 0.21 0.19 0.18 0.17 0.17 0.17 0.18 0.19 0.20 0.23 0.30 0.35 0.35 0.34 0.32 0.30 0.28 0.25
0.01 0.01 0.01 0.02 0.03 0.09 0.25 0.29 0.29 0.28 0.29 0.29 0.34 0.40 0.45 0.56 0.47 0.38 0.34 0.33 0.29 0.18 0.14 0.13 0.14 0.17 0.17 0.18 0.18 0.27 0.31 0.23 0.20 0.19 0.18 0.18 0.18 0.17 0.20 0.24 0.26 0.29 0.34 0.33 0.28 0.25 0.25 0.29 0.27
0.01 0.01 0.01 0.04 0.06 0.09 0.19 0.29 0.32 0.32 0.34 0.32 0.37 0.55 0.53 0.53 0.50 0.45 0.41 0.41 0.32 0.24 0.18 0.14 0.15 0.17 0.19 0.22 0.23 0.32 0.28 0.24 0.23 0.22 0.24 0.24 0.23 0.22 0.26 0.31 0.35 0.35 0.37 0.35 0.32 0.30 0.29 0.32 0.28
0.01 0.01 0.03 0.06 0.08 0.11 0.18 0.27 0.41 0.44 0.45 0.41 0.45 0.71 0.86 0.79 0.73 0.65 0.44 0.42 0.40 0.31 0.25 0.18 0.19 0.21 0.26 0.32 0.34 0.43 0.35 0.31 0.32 0.33 0.33 0.30 0.29 0.30 0.32 0.37 0.41 0.40 0.41 0.40 0.39 0.40 0.38 0.35 0.30
0.00 0.01 0.04 0.08 0.08 0.11 0.20 0.30 0.37 0.40 0.36 0.34 0.50 0.91 1.35 1.16 0.89 0.94 0.81 0.55 0.47 0.37 0.31 0.29 0.26 0.30 0.38 0.45 0.46 0.53 0.44 0.40 0.39 0.42 0.41 0.36 0.32 0.32 0.34 0.38 0.42 0.46 0.49 0.48 0.42 0.38 0.36 0.34 0.33
0.00 0.01 0.03 0.08 0.13 0.15 0.22 0.29 0.41 0.36 0.32 0.44 0.74 1.12 1.49 1.37 1.09 1.08 1.05 0.77 0.67 0.55 0.45 0.41 0.37 0.39 0.48 0.59 0.57 0.57 0.49 0.46 0.44 0.49 0.51 0.46 0.39 0.35 0.37 0.43 0.47 0.49 0.49 0.44 0.40 0.36 0.35 0.36 0.36
0.01 0.01 0.03 0.06 0.16 0.19 0.21 0.29 0.37 0.34 0.41 0.59 0.87 1.08 1.38 1.43 1.21 1.06 0.98 0.91 0.85 0.85 0.71 0.63 0.61 0.59 0.60 0.64 0.65 0.60 0.53 0.52 0.50 0.50 0.51 0.50 0.43 0.41 0.44 0.46 0.51 0.48 0.51 0.51 0.49 0.48 0.47 0.47 0.45
0.01 0.02 0.03 0.07 0.15 0.22 0.24 0.27 0.29 0.31 0.40 0.61 0.73 0.77 1.08 1.23 1.16 1.17 1.10 0.98 0.95 0.96 1.08 1.01 0.87 0.84 0.82 0.75 0.69 0.71 0.63 0.59 0.55 0.53 0.51 0.51 0.57 0.66 0.66 0.57 0.60 0.59 0.65 0.75 0.71 0.66 0.64 0.60 0.58
0.02 0.04 0.05 0.07 0.11 0.20 0.27 0.29 0.27 0.32 0.36 0.56 0.86 0.85 0.85 1.05 1.23 1.34 1.36 1.23 1.16 1.17 1.29 1.31 1.27 1.20 1.12 1.02 1.06 1.07 0.94 0.82 0.69 0.76 0.74 0.73 0.99 1.09 0.96 1.00 0.94 0.90 0.88 0.93 0.95 0.87 0.78 0.72 0.66
0.03 0.06 0.08 0.11 0.10 0.15 0.23 0.24 0.23 0.35 0.51 0.57 0.91 1.24 1.07 1.20 1.51 1.81 1.66 1.59 1.59 1.52 1.33 1.25 1.39 1.46 1.58 1.64 1.47 1.46 1.44 1.35 1.19 1.30 1.25 1.27 1.44 1.35 1.35 1.44 1.31 1.17 1.11 1.10 1.27 1.13 0.86 0.79 0.84
0.03 0.05 0.08 0.12 0.10 0.12 0.14 0.21 0.28 0.40 0.69 0.77 0.97 1.23 1.53 1.52 1.75 1.85 1.91 1.89 1.83 1.85 1.67 1.45 1.42 1.47 1.68 1.86 1.76 1.72 1.70 1.67 1.57 1.59 1.43 1.62 1.80 1.89 1.91 1.99 1.80 1.71 1.64 1.66 1.66 1.57 1.31 1.14 1.09
0.03 0.04 0.06 0.09 0.10 0.09 0.14 0.25 0.30 0.35 0.43 0.62 0.83 1.05 1.47 1.50 1.55 1.82 2.10 2.36 2.38 2.24 2.08 1.89 1.68 1.65 1.81 2.03 2.11 2.03 2.01 1.98 2.08 2.18 1.95 1.96 1.98 2.08 2.37 2.37 2.49 2.16 2.15 2.20 2.12 1.92 1.81 1.63 1.44
0.03 0.03 0.04 0.06 0.07 0.09 0.14 0.20 0.25 0.26 0.32 0.44 0.54 0.76 1.05 1.25 1.52 1.98 2.34 2.60 2.96 2.79 2.45 2.22 2.11 1.95 1.93 2.01 2.22 2.33 2.20 2.26 2.36 2.49 2.37 2.38 2.46 2.58 2.91 2.99 2.94 2.67 2.69 2.85 2.88 2.68 2.41 2.16 2.02
0.02 0.03 0.04 0.05 0.07 0.07 0.10 0.21 0.26 0.29 0.32 0.38 0.46 0.65 0.91 1.31 1.62 2.17 2.62 2.87 3.20 2.95 2.86 2.69 2.59 2.52 2.30 2.25 2.46 2.62 2.53 2.47 2.47 2.65 2.76 2.76 2.84 3.14 3.25 3.50 3.42 3.19 3.15 3.17 3.12 3.29 3.24 2.76 2.42
0.04 0.05 0.06 0.08 0.06 0.06 0.09 0.24 0.29 0.28 0.31 0.39 0.54 0.75 0.99 1.31 1.63 1.90 2.22 2.56 3.06 3.14 2.93 2.89 2.62 2.57 2.72 2.72 2.96 2.97 3.03 3.15 3.08 3.07 3.27 3.31 3.37 3.48 3.52 3.51 3.53 3.42 3.36 3.61 3.70 3.63 3.56 3.32 2.98
0.06 0.04 0.06 0.07 0.06 0.06 0.07 0.21 0.33 0.26 0.29 0.41 0.57 0.85 1.21 1.29 1.51 1.62 1.91 2.20 2.57 2.64 2.74 2.89 2.84 2.75 2.77 2.96 3.31 3.48 3.63 3.83 4.02 4.05 4.22 4.15 3.97 3.92 3.96 3.92 3.98 3.83 3.84 3.79 3.65 3.94 3.83 3.65 3.31
0.03 0.04 0.05 0.06 0.06 0.06 0.07 0.16 0.35 0.40 0.42 0.52 0.58 0.75 1.05 1.16 1.53 1.76 1.88 1.97 2.34 2.55 2.74 2.92 3.05 3.19 3.14 3.18 3.40 3.84 4.04 4.21 4.60 4.66 4.66 4.73 4.76 4.64 4.60 4.53 4.52 4.37 4.24 4.09 4.01 4.00 3.76 3.61 3.34
0.02 0.04 0.04 0.05 0.05 0.07 0.12 0.21 0.33 0.44 0.50 0.65 0.81 0.87 0.90 1.07 1.50 1.90 2.08 2.18 2.51 2.75 2.93 2.90 3.06 3.36 3.60 3.98 3.97 4.18 4.62 4.98 5.13 5.25 5.22 5.14 5.06 5.05 4.89 4.71 4.79 4.64 4.42 4.18 4.03 3.97 3.84 3.51 3.33
0.02 0.03 0.04 0.06 0.08 0.10 0.17 0.29 0.38 0.47 0.54 0.68 0.86 0.92 0.87 1.08 1.39 1.82 2.05 2.38 2.62 2.76 3.02 3.15 3.25 3.64 4.14 4.70 5.22 5.62 5.97 5.98 6.10 6.06 5.94 5.64 5.45 5.33 5.14 5.09 4.93 4.71 4.54 4.30 4.09 3.99 3.86 3.52 3.41
0.02 0.03 0.05 0.07 0.10 0.15 0.21 0.39 0.51 0.61 0.69 0.77 0.86 0.92 0.99 1.19 1.49 1.70 1.95 2.27 2.54 2.76 3.03 3.21 3.50 4.09 4.91 5.43 5.90 6.47 6.80 6.53 6.27 5.99 5.91 5.81 5.74 5.61 5.43 5.37 5.10 4.87 4.59 4.25 3.98 3.82 3.71 3.57 3.49
0.04 0.05 0.05 0.07 0.11 0.21 0.24 0.47 0.74 0.85 0.96 0.90 0.99 1.13 1.26 1.37 1.51 1.70 1.92 2.20 2.50 2.84 2.97 3.17 3.71 4.42 5.08 5.63 6.25 6.85 7.15 7.21 7.01 6.45 5.95 5.52 5.23 5.00 4.87 4.81 4.64 4.44 4.16 3.92 3.65 3.52 3.44 3.53 3.36
0.04 0.04 0.05 0.08 0.11 0.19 0.23 0.45 0.91 1.15 1.25 1.21 1.26 1.31 1.33 1.37 1.47 1.63 1.83 2.05 2.18 2.53 3.00 3.32 3.87 4.53 5.18 5.91 6.64 7.08 7.33 7.34 6.98 6.19 5.42 4.89 4.55 4.26 4.03 3.95 3.85 3.68 3.49 3.31 3.23 3.21 3.14 3.11 2.97
0.02 0.04 0.07 0.11 0.16 0.25 0.25 0.43 1.02 1.39 1.60 1.58 1.47 1.48 1.46 1.38 1.37 1.40 1.61 1.78 2.06 2.40 2.80 3.28 3.60 4.19 4.86 5.46 6.03 6.22 6.38 6.33 5.92 5.50 5.02 4.61 4.08 3.60 3.25 3.10 3.00 2.86 2.75 2.73 2.75 2.77 2.72 2.70 2.67
0.02 0.07 0.22 0.35 0.39 0.37 0.28 0.53 1.10 1.41 1.42 1.42 1.41 1.49 1.47 1.29 1.32 1.52 1.79 1.77 2.02 2.29 2.67 3.11 3.49 3.88 4.39 4.92 5.40 5.64 5.78 5.66 5.18 4.72 4.28 3.85 3.35 2.96 2.67 2.50 2.45 2.36 2.29 2.29 2.39 2.46 2.40 2.34 2.35
0.04 0.09 0.27 0.45 0.50 0.52 0.49 0.85 1.28 1.30 1.20 1.15 1.14 1.19 1.33 1.36 1.39 1.51 1.64 1.71 1.98 2.18 2.42 2.80 3.14 3.52 3.75 3.98 4.35 4.59 4.73 4.59 4.25 3.76 3.27 2.95 2.67 2.38 2.20 2.09 2.02 1.95 1.86 1.84 1.95 2.06 2.12 2.08 2.10
0.06 0.08 0.16 0.21 0.27 0.51 0.87 1.17 1.52 1.45 1.32 1.22 1.10 1.12 1.23 1.21 1.23 1.34 1.50 1.62 1.81 2.09 2.42 2.68 2.82 3.01 3.22 3.42 3.49 3.48 3.58 3.48 3.22 2.91 2.59 2.30 2.03 1.79 1.68 1.62 1.59 1.55 1.52 1.57 1.69 1.75 1.72 1.73 1.78
0.07 0.08 0.12 0.21 0.48 0.72 0.99 1.47 1.81 1.91 1.81 1.67 1.37 1.26 1.20 1.23 1.23 1.25 1.36 1.52 1.60 1.70 2.02 2.32 2.39 2.50 2.60 2.68 2.72 2.65 2.68 2.57 2.49 2.33 2.09 1.82 1.66 1.48 1.39 1.34 1.33 1.33 1.32 1.35 1.39 1.47 1.49 1.46 1.48
0.09 0.11 0.14 0.22 0.34 0.68 1.09 1.66 1.87 2.16 2.24 2.08 1.74 1.58 1.52 1.46 1.37 1.33 1.37 1.40 1.46 1.56 1.71 1.94 2.14 2.16 2.20 2.33 2.31 2.19 2.22 2.21 2.17 2.05 1.89 1.75 1.68 1.56 1.40 1.28 1.31 1.30 1.27 1.24 1.27 1.27 1.31 1.35 1.37
0.10 0.14 0.22 0.40 0.43 0.49 0.95 1.85 2.15 2.27 2.22 1.98 1.80 1.67 1.59 1.50 1.34 1.29 1.25 1.21 1.26 1.42 1.53 1.64 1.84 1.91 1.93 2.01 2.07 2.13 2.12 2.05 1.95 1.77 1.65 1.52 1.40 1.28 1.19 1.13 1.17 1.16 1.12 1.12 1.09 1.05 1.07 1.11 1.16

GEFSSGP_prec_meanprecacc_228.txt.gz
Total_Precipitation_Accumulation
0.01 0.01 0.01 0.02 0.03 0.05 0.16 0.21 0.24 0.26 0.32 0.28 0.26 0.29 0.42 0.57 0.76 1.36 0.82 0.42 0.25 0.16 0.15 0.15 0.22 0.19 0.17 0.19 0.20 0.25 0.32 0.28 0.26 0.21 0.19 0.20 0.19 0.18 0.18 0.18 0.20 0.26 0.32 0.32 0.31 0.33 0.35 0.32 0.28
0.01 0.01 0.02 0.03 0.04 0.12 0.23 0.23 0.27 0.25 0.28 0.29 0.27 0.29 0.35 0.46 0.37 0.38 0.34 0.32 0.26 0.15 0.14 0.13 0.17 0.21 0.18 0.18 0.20 0.26 0.32 0.28 0.29 0.24 0.20 0.21 0.20 0.20 0.21 0.22 0.24 0.31 0.38 0.38 0.37 0.37 0.35 0.34 0.31
0.01 0.01 0.01 0.02 0.05 0.12 0.27 0.30 0.31 0.28 0.29 0.29 0.35 0.40 0.46 0.57 0.52 0.43 0.36 0.34 0.30 0.19 0.16 0.15 0.16 0.19 0.19 0.20 0.21 0.30 0.34 0.29 0.30 0.25 0.22 0.22 0.21 0.20 0.23 0.26 0.28 0.31 0.37 0.36 0.32 0.29 0.30 0.35 0.33
0.01 0.01 0.02 0.04 0.08 0.11 0.20 0.29 0.32 0.32 0.35 0.32 0.38 0.55 0.54 0.55 0.54 0.49 0.44 0.43 0.33 0.25 0.19 0.14 0.16 0.17 0.20 0.24 0.26 0.36 0.33 0.30 0.32 0.28 0.27 0.26 0.26 0.26 0.28 0.34 0.37 0.37 0.40 0.39 0.36 0.34 0.34 0.38 0.35
0.01 0.01 0.03 0.07 0.09 0.12 0.18 0.28 0.41 0.44 0.45 0.41 0.46 0.73 0.89 0.82 0.76 0.67 0.46 0.43 0.41 0.32 0.25 0.19 0.19 0.21 0.27 0.35 0.37 0.47 0.40 0.39 0.40 0.40 0.37 0.33 0.32 0.34 0.35 0.40 0.44 0.42 0.43 0.43 0.42 0.44 0.42 0.40 0.37
0.00 0.01 0.05 0.10 0.09 0.13 0.21 0.30 0.38 0.41 0.37 0.34 0.51 0.93 1.40 1.21 0.95 1.01 0.83 0.55 0.48 0.37 0.31 0.29 0.26 0.31 0.40 0.48 0.49 0.58 0.49 0.48 0.47 0.48 0.46 0.41 0.37 0.36 0.38 0.41 0.45 0.48 0.52 0.50 0.45 0.41 0.39 0.38 0.40
0.00 0.01 0.05 0.09 0.16 0.18 0.25 0.30 0.42 0.37 0.32 0.45 0.74 1.14 1.54 1.41 1.13 1.15 1.09 0.79 0.68 0.56 0.45 0.41 0.37 0.39 0.49 0.61 0.60 0.62 0.54 0.53 0.53 0.56 0.57 0.51 0.44 0.40 0.40 0.47 0.50 0.52 0.52 0.47 0.43 0.41 0.39 0.40 0.42
0.01 0.02 0.04 0.08 0.20 0.23 0.23 0.29 0.38 0.35 0.43 0.60 0.87 1.09 1.39 1.44 1.22 1.07 1.02 0.94 0.88 0.87 0.72 0.63 0.61 0.60 0.62 0.67 0.70 0.66 0.59 0.59 0.60 0.61 0.58 0.55 0.48 0.45 0.49 0.50 0.55 0.52 0.54 0.55 0.54 0.52 0.51 0.51 0.50
0.01 0.03 0.05 0.09 0.19 0.27 0.26 0.28 0.30 0.32 0.41 0.63 0.74 0.78 1.09 1.24 1.17 1.19 1.13 1.00 0.98 0.99 1.09 1.02 0.89 0.85 0.84 0.78 0.75 0.78 0.69 0.65 0.67 0.68 0.61 0.58 0.62 0.72 0.71 0.61 0.64 0.63 0.69 0.80 0.76 0.70 0.69 0.66 0.65
0.02 0.07 0.08 0.09 0.13 0.21 0.28 0.30 0.28 0.33 0.37 0.57 0.87 0.85 0.86 1.06 1.24 1.35 1.38 1.25 1.19 1.21 1.32 1.34 1.30 1.23 1.15 1.05 1.14 1.16 1.01 0.90 0.83 0.91 0.83 0.82 1.08 1.15 1.01 1.06 0.99 0.95 0.93 0.97 1.00 0.92 0.83 0.80 0.74
0.04 0.07 0.09 0.12 0.11 0.16 0.23 0.25 0.23 0.35 0.52 0.59 0.92 1.24 1.08 1.21 1.52 1.82 1.66 1.59 1.60 1.54 1.35 1.27 1.41 1.52 1.61 1.68 1.54 1.53 1.51 1.45 1.33 1.43 1.33 1.37 1.55 1.44 1.46 1.54 1.40 1.25 1.17 1.16 1.32 1.19 0.92 0.85 0.91
0.04 0.06 0.08 0.13 0.10 0.12 0.15 0.22 0.29 0.42 0.70 0.78 0.99 1.24 1.54 1.53 1.76 1.87 1.93 1.90 1.84 1.86 1.68 1.46 1.43 1.52 1.73 1.90 1.81 1.78 1.76 1.74 1.66 1.67 1.50 1.70 1.87 1.96 1.99 2.08 1.87 1.78 1.71 1.73 1.72 1.63 1.37 1.20 1.16
0.04 0.04 0.06 0.09 0.10 0.09 0.14 0.25 0.32 0.37 0.46 0.63 0.84 1.06 1.48 1.52 1.56 1.83 2.13 2.39 2.39 2.25 2.09 1.90 1.70 1.68 1.85 2.07 2.15 2.08 2.09 2.05 2.15 2.25 2.02 2.04 2.05 2.14 2.44 2.44 2.57 2.23 2.22 2.28 2.20 1.98 1.87 1.70 1.52
0.03 0.03 0.04 0.07 0.07 0.09 0.14 0.20 0.28 0.30 0.35 0.46 0.55 0.78 1.06 1.26 1.53 1.99 2.35 2.62 2.97 2.81 2.47 2.24 2.13 1.97 1.97 2.05 2.26 2.39 2.26 2.33 2.43 2.56 2.44 2.45 2.53 2.64 2.97 3.05 3.00 2.74 2.76 2.93 2.96 2.75 2.49 2.24 2.09
0.03 0.04 0.04 0.05 0.07 0.08 0.11 0.22 0.28 0.32 0.33 0.39 0.47 0.66 0.92 1.32 1.63 2.18 2.63 2.88 3.23 2.99 2.88 2.71 2.60 2.55 2.34 2.29 2.50 2.66 2.59 2.52 2.52 2.70 2.82 2.79 2.87 3.19 3.31 3.56 3.48 3.25 3.22 3.25 3.21 3.38 3.34 2.84 2.49
0.05 0.07 0.08 0.08 0.06 0.06 0.09 0.25 0.33 0.32 0.32 0.40 0.54 0.76 1.00 1.32 1.65 1.91 2.24 2.59 3.11 3.18 2.96 2.91 2.64 2.60 2.76 2.76 3.01 3.01 3.07 3.19 3.11 3.11 3.30 3.33 3.39 3.52 3.57 3.57 3.59 3.49 3.44 3.70 3.80 3.74 3.66 3.42 3.05
0.07 0.07 0.07 0.08 0.06 0.06 0.07 0.21 0.37 0.30 0.30 0.42 0.58 0.86 1.23 1.31 1.53 1.64 1.92 2.23 2.61 2.67 2.77 2.92 2.87 2.79 2.82 3.00 3.35 3.51 3.67 3.86 4.06 4.08 4.24 4.18 4.01 3.95 4.01 3.98 4.05 3.90 3.93 3.87 3.73 4.04 3.95 3.78 3.43
0.03 0.06 0.06 0.07 0.06 0.06 0.07 0.16 0.37 0.43 0.43 0.53 0.59 0.77 1.08 1.18 1.54 1.77 1.90 1.99 2.36 2.59 2.78 2.95 3.10 3.26 3.20 3.22 3.44 3.88 4.09 4.25 4.63 4.69 4.69 4.76 4.79 4.68 4.65 4.58 4.58 4.44 4.32 4.17 4.10 4.12 3.87 3.71 3.46
0.02 0.04 0.05 0.06 0.05 0.07 0.12 0.22 0.35 0.47 0.53 0.66 0.82 0.88 0.91 1.09 1.51 1.92 2.10 2.20 2.52 2.77 2.95 2.93 3.09 3.41 3.66 4.03 4.01 4.23 4.67 5.03 5.17 5.28 5.25 5.17 5.09 5.09 4.94 4.76 4.85 4.69 4.48 4.24 4.11 4.07 3.94 3.58 3.42
0.02 0.04 0.05 0.07 0.08 0.10 0.18 0.30 0.40 0.50 0.57 0.70 0.88 0.94 0.89 1.09 1.40 1.83 2.06 2.39 2.64 2.78 3.04 3.18 3.28 3.68 4.18 4.73 5.26 5.66 6.01 6.01 6.13 6.08 5.97 5.67 5.48 5.35 5.17 5.13 4.97 4.75 4.59 4.36 4.16 4.08 3.96 3.62 3.52
0.02 0.04 0.06 0.07 0.11 0.15 0.22 0.40 0.53 0.63 0.70 0.78 0.87 0.94 1.01 1.20 1.50 1.71 1.96 2.28 2.55 2.78 3.05 3.23 3.53 4.12 4.94 5.46 5.93 6.51 6.84 6.56 6.30 6.01 5.94 5.84 5.76 5.63 5.46 5.39 5.13 4.90 4.63 4.30 4.04 3.90 3.78 3.65 3.60
0.04 0.05 0.05 0.07 0.12 0.23 0.26 0.50 0.77 0.87 0.97 0.91 1.00 1.15 1.27 1.38 1.52 1.71 1.94 2.21 2.51 2.85 2.98 3.18 3.74 4.45 5.12 5.66 6.28 6.89 7.19 7.25 7.05 6.49 6.00 5.57 5.27 5.03 4.90 4.85 4.67 4.48 4.20 3.97 3.70 3.59 3.51 3.62 3.46
0.04 0.04 0.05 0.08 0.13 0.23 0.25 0.49 0.98 1.20 1.28 1.23 1.28 1.33 1.35 1.37 1.49 1.64 1.84 2.06 2.19 2.54 3.01 3.33 3.89 4.56 5.21 5.94 6.68 7.14 7.37 7.39 7.01 6.23 5.47 4.93 4.59 4.29 4.06 4.00 3.89 3.73 3.55 3.37 3.29 3.27 3.22 3.19 3.05
0.04 0.05 0.08 0.12 0.17 0.28 0.28 0.48 1.08 1.42 1.63 1.59 1.48 1.51 1.48 1.39 1.38 1.41 1.62 1.79 2.07 2.42 2.82 3.30 3.62 4.21 4.89 5.50 6.07 6.26 6.42 6.37 5.97 5.56 5.07 4.64 4.11 3.64 3.29 3.14 3.05 2.91 2.80 2.79 2.81 2.84 2.80 2.79 2.76
0.04 0.09 0.25 0.38 0.42 0.40 0.29 0.55 1.13 1.44 1.43 1.43 1.42 1.50 1.47 1.30 1.32 1.53 1.79 1.77 2.03 2.30 2.68 3.12 3.52 3.89 4.41 4.95 5.44 5.67 5.82 5.71 5.24 4.79 4.34 3.90 3.39 3.01 2.72 2.56 2.51 2.40 2.34 2.34 2.46 2.53 2.46 2.41 2.43
0.04 0.10 0.31 0.49 0.54 0.54 0.50 0.87 1.30 1.31 1.21 1.16 1.14 1.19 1.34 1.36 1.40 1.51 1.64 1.72 1.99 2.19 2.43 2.81 3.16 3.54 3.76 4.01 4.37 4.62 4.77 4.63 4.29 3.82 3.33 3.02 2.73 2.44 2.27 2.16 2.08 1.99 1.91 1.89 2.01 2.13 2.18 2.15 2.18
0.06 0.09 0.17 0.22 0.30 0.54 0.90 1.20 1.54 1.46 1.33 1.23 1.11 1.12 1.23 1.21 1.23 1.34 1.50 1.62 1.82 2.12 2.46 2.70 2.84 3.05 3.24 3.44 3.52 3.51 3.61 3.52 3.26 2.97 2.66 2.37 2.11 1.86 1.73 1.69 1.66 1.60 1.58 1.63 1.76 1.83 1.79 1.81 1.87
0.07 0.09 0.13 0.22 0.51 0.76 1.03 1.51 1.85 1.93 1.82 1.68 1.38 1.26 1.20 1.23 1.24 1.26 1.37 1.53 1.60 1.71 2.05 2.35 2.42 2.53 2.62 2.71 2.76 2.68 2.72 2.62 2.54 2.39 2.15 1.88 1.73 1.53 1.44 1.41 1.42 1.41 1.39 1.43 1.48 1.57 1.59 1.56 1.57
0.10 0.12 0.16 0.24 0.35 0.72 1.13 1.72 1.92 2.19 2.25 2.10 1.76 1.59 1.53 1.47 1.38 1.34 1.38 1.41 1.47 1.58 1.75 1.98 2.17 2.19 2.23 2.37 2.35 2.23 2.27 2.26 2.21 2.09 1.94 1.80 1.73 1.60 1.47 1.36 1.40 1.38 1.34 1.33 1.34 1.34 1.40 1.45 1.45
0.11 0.15 0.23 0.43 0.46 0.52 0.99 1.89 2.17 2.30 2.25 2.00 1.82 1.69 1.59 1.50 1.35 1.30 1.26 1.22 1.28 1.44 1.59 1.74 1.91 1.96 1.98 2.04 2.11 2.17 2.17 2.10 2.00 1.82 1.69 1.56 1.44 1.32 1.25 1.20 1.24 1.23 1.18 1.18 1.16 1.11 1.15 1.21 1.25

GEFSSGP_prec_meanprecacc_234.txt.gz
Total_Precipitation_Accumulation
0.01 0.01 0.01 0.02 0.05 0.08 0.24 0.31 0.30 0.29 0.35 0.29 0.27 0.30 0.44 0.59 0.78 1.40 0.87 0.47 0.29 0.18 0.16 0.16 0.24 0.19 0.17 0.19 0.21 0.26 0.33 0.30 0.29 0.23 0.21 0.21 0.21 0.20 0.20 0.19 0.21 0.27 0.33 0.33 0.33 0.35 0.37 0.36 0.33
0.01 0.01 0.02 0.03 0.07 0.17 0.33 0.32 0.33 0.28 0.30 0.31 0.28 0.29 0.36 0.48 0.39 0.44 0.38 0.37 0.29 0.17 0.16 0.13 0.18 0.23 0.19 0.19 0.21 0.27 0.34 0.30 0.32 0.26 0.22 0.22 0.22 0.23 0.24 0.23 0.25 0.33 0.39 0.40 0.39 0.39 0.38 0.38 0.35
0.01 0.01 0.02 0.03 0.08 0.17 0.34 0.35 0.36 0.31 0.31 0.30 0.36 0.41 0.47 0.59 0.55 0.51 0.45 0.41 0.35 0.23 0.18 0.16 0.17 0.20 0.20 0.21 0.22 0.31 0.37 0.32 0.34 0.28 0.24 0.24 0.23 0.23 0.25 0.29 0.30 0.33 0.39 0.38 0.34 0.32 0.33 0.38 0.37
0.01 0.01 0.02 0.06 0.12 0.14 0.23 0.33 0.36 0.37 0.38 0.34 0.38 0.56 0.55 0.56 0.56 0.54 0.51 0.51 0.40 0.31 0.22 0.16 0.17 0.18 0.21 0.25 0.27 0.38 0.36 0.36 0.37 0.31 0.31 0.30 0.29 0.28 0.31 0.37 0.40 0.40 0.42 0.41 0.39 0.37 0.37 0.41 0.39
0.01 0.01 0.03 0.09 0.12 0.14 0.21 0.32 0.45 0.48 0.48 0.42 0.47 0.74 0.92 0.84 0.79 0.72 0.53 0.52 0.51 0.37 0.27 0.19 0.20 0.22 0.28 0.35 0.38 0.48 0.44 0.44 0.45 0.44 0.41 0.37 0.37 0.38 0.39 0.43 0.46 0.45 0.44 0.44 0.45 0.46 0.44 0.43 0.40
0.01 0.02 0.07 0.11 0.11 0.16 0.23 0.33 0.43 0.45 0.40 0.37 0.52 0.95 1.44 1.23 0.98 1.05 0.89 0.63 0.57 0.41 0.32 0.30 0.27 0.32 0.41 0.49 0.50 0.60 0.53 0.53 0.53 0.55 0.52 0.45 0.42 0.40 0.41 0.44 0.47 0.51 0.55 0.52 0.47 0.43 0.42 0.41 0.44
0.00 0.02 0.07 0.11 0.19 0.22 0.28 0.34 0.46 0.41 0.38 0.50 0.76 1.17 1.57 1.44 1.16 1.19 1.13 0.86 0.73 0.58 0.46 0.42 0.38 0.40 0.51 0.63 0.63 0.65 0.58 0.58 0.61 0.65 0.64 0.56 0.50 0.44 0.44 0.51 0.53 0.55 0.55 0.49 0.45 0.42 0.42 0.44 0.46
0.01 0.02 0.04 0.10 0.26 0.31 0.31 0.35 0.41 0.37 0.46 0.66 0.89 1.10 1.41 1.47 1.24 1.10 1.05 0.98 0.93 0.91 0.74 0.65 0.62 0.61 0.63 0.69 0.73 0.69 0.63 0.66 0.70 0.71 0.65 0.61 0.53 0.50 0.53 0.53 0.58 0.54 0.57 0.58 0.56 0.55 0.54 0.54 0.54
0.01 0.03 0.07 0.14 0.28 0.36 0.34 0.32 0.32 0.34 0.44 0.70 0.79 0.79 1.09 1.25 1.18 1.21 1.15 1.04 1.02 1.04 1.12 1.04 0.90 0.86 0.85 0.80 0.78 0.83 0.75 0.73 0.77 0.76 0.67 0.64 0.67 0.76 0.75 0.64 0.68 0.67 0.73 0.84 0.80 0.74 0.72 0.70 0.69
0.02 0.08 0.10 0.15 0.20 0.26 0.32 0.34 0.31 0.35 0.40 0.62 0.91 0.87 0.87 1.07 1.24 1.36 1.39 1.28 1.22 1.25 1.36 1.36 1.32 1.24 1.16 1.08 1.18 1.20 1.05 0.94 0.90 0.97 0.88 0.87 1.12 1.21 1.05 1.09 1.04 1.01 0.99 1.03 1.05 0.97 0.88 0.85 0.78
0.04 0.09 0.13 0.19 0.15 0.19 0.25 0.28 0.27 0.37 0.54 0.62 0.97 1.27 1.08 1.21 1.52 1.82 1.68 1.63 1.64 1.57 1.39 1.30 1.44 1.55 1.64 1.71 1.60 1.58 1.55 1.48 1.38 1.47 1.39 1.42 1.62 1.51 1.50 1.58 1.43 1.28 1.22 1.20 1.36 1.22 0.95 0.88 0.94
0.06 0.09 0.13 0.15 0.12 0.14 0.17 0.24 0.32 0.43 0.72 0.83 1.04 1.26 1.55 1.54 1.77 1.89 1.95 1.93 1.87 1.88 1.70 1.48 1.45 1.54 1.75 1.93 1.87 1.83 1.80 1.78 1.70 1.72 1.55 1.77 1.94 2.02 2.04 2.10 1.89 1.81 1.74 1.75 1.74 1.65 1.40 1.23 1.19
0.08 0.08 0.09 0.10 0.11 0.10 0.16 0.26 0.32 0.39 0.49 0.70 0.91 1.08 1.49 1.53 1.59 1.86 2.14 2.40 2.41 2.27 2.11 1.93 1.73 1.71 1.87 2.10 2.20 2.13 2.13 2.10 2.20 2.30 2.07 2.10 2.12 2.19 2.48 2.48 2.60 2.27 2.25 2.30 2.22 2.01 1.91 1.73 1.56
0.07 0.06 0.06 0.08 0.08 0.10 0.15 0.21 0.29 0.32 0.40 0.52 0.59 0.80 1.07 1.28 1.56 2.02 2.37 2.68 3.02 2.85 2.51 2.27 2.16 2.00 2.00 2.09 2.32 2.44 2.30 2.37 2.47 2.60 2.48 2.49 2.56 2.67 3.00 3.08 3.03 2.78 2.80 2.96 2.98 2.78 2.53 2.29 2.15
0.05 0.05 0.06 0.06 0.08 0.08 0.12 0.23 0.29 0.36 0.40 0.44 0.49 0.68 0.93 1.35 1.67 2.22 2.66 2.93 3.30 3.05 2.93 2.74 2.63 2.57 2.39 2.33 2.55 2.70 2.62 2.57 2.57 2.74 2.84 2.82 2.90 3.20 3.32 3.57 3.50 3.27 3.25 3.30 3.26 3.43 3.39 2.89 2.54
0.07 0.08 0.11 0.09 0.07 0.07 0.10 0.26 0.35 0.36 0.41 0.48 0.58 0.80 1.04 1.35 1.69 1.97 2.30 2.63 3.16 3.23 3.00 2.93 2.65 2.61 2.80 2.80 3.04 3.05 3.12 3.25 3.16 3.13 3.33 3.35 3.40 3.53 3.58 3.58 3.60 3.50 3.47 3.75 3.85 3.79 3.72 3.46 3.10
0.09 0.08 0.09 0.11 0.08 0.07 0.08 0.22 0.38 0.34 0.34 0.50 0.64 0.90 1.26 1.35 1.57 1.69 2.02 2.29 2.65 2.71 2.80 2.95 2.89 2.81 2.85 3.03 3.39 3.57 3.73 3.92 4.10 4.11 4.27 4.21 4.03 3.97 4.03 4.00 4.06 3.91 3.95 3.90 3.77 4.08 4.01 3.84 3.49
0.04 0.06 0.07 0.09 0.08 0.07 0.08 0.17 0.39 0.47 0.47 0.57 0.64 0.82 1.12 1.23 1.59 1.83 1.95 2.03 2.40 2.62 2.81 2.98 3.13 3.28 3.23 3.25 3.48 3.94 4.15 4.30 4.67 4.73 4.74 4.82 4.83 4.71 4.67 4.60 4.60 4.46 4.34 4.19 4.14 4.15 3.93 3.77 3.53
0.03 0.06 0.07 0.07 0.06 0.07 0.13 0.23 0.36 0.50 0.57 0.71 0.86 0.91 0.96 1.16 1.59 2.00 2.17 2.25 2.56 2.80 2.98 2.96 3.12 3.46 3.70 4.06 4.06 4.29 4.73 5.09 5.22 5.33 5.32 5.23 5.13 5.12 4.97 4.79 4.87 4.72 4.50 4.26 4.15 4.12 4.00 3.64 3.49
0.02 0.05 0.07 0.08 0.09 0.11 0.18 0.31 0.41 0.52 0.60 0.76 0.95 0.99 0.95 1.15 1.47 1.93 2.14 2.44 2.66 2.80 3.06 3.21 3.32 3.73 4.23 4.78 5.29 5.70 6.05 6.05 6.17 6.12 6.01 5.72 5.52 5.39 5.21 5.18 5.02 4.79 4.62 4.38 4.19 4.11 4.00 3.66 3.57
0.03 0.04 0.06 0.09 0.12 0.16 0.23 0.42 0.54 0.64 0.72 0.82 0.93 0.98 1.06 1.26 1.57 1.78 2.01 2.32 2.57 2.79 3.06 3.24 3.54 4.14 4.96 5.49 5.96 6.53 6.87 6.59 6.32 6.03 5.96 5.88 5.80 5.67 5.50 5.44 5.18 4.94 4.66 4.33 4.07 3.93 3.81 3.68 3.63
0.05 0.05 0.06 0.08 0.13 0.25 0.27 0.51 0.80 0.91 1.01 0.93 1.03 1.17 1.30 1.43 1.59 1.78 1.98 2.24 2.53 2.87 3.00 3.19 3.75 4.46 5.13 5.68 6.30 6.91 7.20 7.26 7.06 6.50 6.01 5.59 5.30 5.08 4.93 4.88 4.70 4.51 4.24 4.00 3.73 3.63 3.56 3.66 3.49
0.05 0.05 0.06 0.09 0.14 0.24 0.28 0.52 1.03 1.26 1.31 1.26 1.31 1.35 1.38 1.41 1.54 1.70 1.87 2.08 2.21 2.56 3.03 3.35 3.91 4.59 5.24 5.97 6.70 7.16 7.39 7.40 7.02 6.24 5.48 4.94 4.60 4.32 4.08 4.01 3.91 3.77 3.58 3.40 3.32 3.32 3.27 3.24 3.09
0.04 0.06 0.09 0.13 0.19 0.30 0.30 0.50 1.10 1.44 1.66 1.63 1.50 1.52 1.50 1.40 1.39 1.43 1.63 1.81 2.10 2.45 2.84 3.32 3.64 4.24 4.92 5.52 6.10 6.30 6.45 6.39 5.99 5.57 5.08 4.65 4.12 3.66 3.31 3.16 3.07 2.94 2.84 2.84 2.86 2.90 2.87 2.87 2.83
0.04 0.10 0.26 0.40 0.46 0.42 0.31 0.56 1.15 1.46 1.45 1.45 1.44 1.52 1.49 1.32 1.34 1.54 1.81 1.80 2.05 2.33 2.71 3.15 3.54 3.91 4.43 4.97 5.46 5.70 5.85 5.73 5.25 4.80 4.35 3.92 3.41 3.03 2.75 2.58 2.53 2.43 2.38 2.38 2.50 2.58 2.52 2.48 2.50
0.04 0.11 0.32 0.52 0.57 0.57 0.52 0.90 1.34 1.35 1.24 1.19 1.17 1.21 1.35 1.39 1.43 1.53 1.66 1.74 2.03 2.25 2.49 2.88 3.20 3.56 3.79 4.03 4.40 4.65 4.80 4.66 4.32 3.85 3.37 3.05 2.76 2.47 2.30 2.18 2.11 2.02 1.94 1.92 2.05 2.17 2.23 2.20 2.23
0.07 0.10 0.18 0.24 0.32 0.57 0.92 1.22 1.57 1.49 1.36 1.25 1.13 1.15 1.26 1.24 1.27 1.40 1.57 1.68 1.87 2.17 2.51 2.76 2.88 3.09 3.27 3.47 3.55 3.54 3.64 3.55 3.30 3.02 2.71 2.42 2.16 1.90 1.78 1.73 1.70 1.64 1.61 1.67 1.80 1.87 1.83 1.85 1.91
0.08 0.10 0.14 0.24 0.54 0.81 1.06 1.54 1.88 1.97 1.86 1.71 1.40 1.28 1.22 1.25 1.26 1.29 1.44 1.62 1.70 1.78 2.10 2.40 2.46 2.57 2.67 2.76 2.80 2.72 2.76 2.66 2.59 2.43 2.20 1.94 1.80 1.59 1.50 1.46 1.46 1.45 1.43 1.47 1.52 1.62 1.64 1.61 1.62
0.11 0.13 0.16 0.25 0.38 0.76 1.17 1.75 1.94 2.21 2.29 2.14 1.78 1.60 1.54 1.48 1.39 1.36 1.41 1.48 1.58 1.71 1.86 2.08 2.24 2.25 2.30 2.43 2.39 2.27 2.32 2.31 2.27 2.15 1.99 1.85 1.78 1.65 1.52 1.42 1.45 1.45 1.40 1.38 1.42 1.41 1.46 1.51 1.52
0.11 0.15 0.24 0.45 0.48 0.53 1.01 1.94 2.20 2.33 2.28 2.03 1.84 1.70 1.61 1.51 1.36 1.32 1.29 1.26 1.34 1.54 1.75 1.92 2.02 2.02 2.05 2.11 2.18 2.24 2.24 2.16 2.06 1.88 1.75 1.61 1.49 1.36 1.30 1.27 1.31 1.30 1.23 1.22 1.20 1.16 1.19 1.26 1.34

GEFSSGP_prec_meanprecacc_240.txt.gz
Total_Precipitation_Accumulation
0.01 0.01 0.01 0.03 0.05 0.09 0.24 0.32 0.32 0.33 0.38 0.31 0.29 0.31 0.44 0.60 0.80 1.42 0.89 0.50 0.31 0.20 0.19 0.20 0.26 0.21 0.18 0.20 0.21 0.27 0.35 0.32 0.31 0.26 0.22 0.23 0.23 0.22 0.23 0.22 0.24 0.30 0.36 0.36 0.35 0.37 0.40 0.41 0.40
0.01 0.01 0.02 0.04 0.07 0.18 0.34 0.34 0.34 0.31 0.33 0.33 0.30 0.31 0.37 0.48 0.40 0.47 0.40 0.39 0.32 0.20 0.18 0.17 0.22 0.25 0.20 0.19 0.21 0.27 0.36 0.34 0.35 0.28 0.23 0.23 0.23 0.25 0.27 0.26 0.29 0.36 0.42 0.43 0.43 0.43 0.42 0.42 0.41
0.01 0.01 0.02 0.04 0.09 0.18 0.35 0.36 0.38 0.34 0.33 0.33 0.39 0.43 0.48 0.60 0.56 0.53 0.47 0.43 0.38 0.27 0.21 0.18 0.20 0.23 0.22 0.22 0.22 0.32 0.38 0.36 0.39 0.31 0.26 0.25 0.25 0.25 0.29 0.32 0.33 0.37 0.42 0.41 0.37 0.37 0.38 0.42 0.41
0.01 0.01 0.02 0.06 0.13 0.15 0.25 0.35 0.38 0.40 0.40 0.36 0.40 0.57 0.57 0.57 0.56 0.55 0.53 0.53 0.42 0.33 0.25 0.19 0.20 0.21 0.24 0.27 0.28 0.39 0.37 0.39 0.42 0.36 0.35 0.34 0.31 0.30 0.34 0.40 0.42 0.42 0.45 0.44 0.42 0.41 0.41 0.45 0.43
0.01 0.02 0.04 0.10 0.14 0.16 0.24 0.33 0.47 0.51 0.50 0.43 0.49 0.77 0.96 0.87 0.79 0.72 0.55 0.53 0.53 0.39 0.29 0.22 0.23 0.25 0.31 0.38 0.39 0.50 0.47 0.48 0.51 0.52 0.49 0.44 0.42 0.41 0.41 0.46 0.49 0.48 0.47 0.46 0.47 0.49 0.47 0.46 0.44
0.01 0.02 0.07 0.12 0.12 0.16 0.25 0.36 0.45 0.47 0.41 0.38 0.54 0.97 1.46 1.26 1.00 1.06 0.91 0.65 0.59 0.42 0.33 0.31 0.29 0.35 0.45 0.52 0.53 0.63 0.57 0.60 0.60 0.63 0.60 0.54 0.48 0.45 0.45 0.47 0.51 0.54 0.58 0.55 0.50 0.46 0.45 0.45 0.47
0.00 0.02 0.07 0.12 0.20 0.23 0.29 0.35 0.48 0.42 0.39 0.51 0.77 1.18 1.58 1.46 1.18 1.22 1.17 0.88 0.77 0.60 0.46 0.42 0.39 0.42 0.54 0.67 0.67 0.69 0.63 0.64 0.68 0.73 0.72 0.64 0.55 0.49 0.49 0.54 0.57 0.59 0.59 0.53 0.48 0.45 0.44 0.47 0.49
0.01 0.02 0.05 0.10 0.28 0.33 0.32 0.36 0.42 0.39 0.47 0.67 0.90 1.12 1.42 1.48 1.27 1.14 1.09 1.02 0.95 0.93 0.76 0.66 0.63 0.62 0.64 0.71 0.78 0.75 0.70 0.74 0.77 0.79 0.75 0.70 0.61 0.56 0.58 0.57 0.62 0.59 0.62 0.62 0.60 0.57 0.56 0.57 0.57
0.01 0.03 0.07 0.14 0.29 0.37 0.35 0.35 0.34 0.36 0.45 0.71 0.80 0.82 1.12 1.26 1.20 1.24 1.19 1.07 1.05 1.05 1.14 1.07 0.93 0.89 0.88 0.82 0.82 0.89 0.81 0.80 0.85 0.84 0.76 0.73 0.74 0.82 0.80 0.69 0.71 0.72 0.79 0.89 0.84 0.78 0.76 0.73 0.72
0.02 0.08 0.10 0.15 0.20 0.27 0.33 0.36 0.32 0.36 0.41 0.62 0.92 0.90 0.88 1.07 1.26 1.38 1.41 1.30 1.25 1.27 1.39 1.40 1.36 1.28 1.20 1.12 1.23 1.25 1.09 1.00 0.98 1.06 0.95 0.93 1.17 1.25 1.09 1.14 1.10 1.07 1.05 1.08 1.10 1.01 0.92 0.88 0.80
0.04 0.09 0.13 0.19 0.15 0.19 0.26 0.30 0.28 0.38 0.56 0.63 0.98 1.29 1.11 1.23 1.54 1.84 1.69 1.64 1.67 1.60 1.42 1.33 1.47 1.57 1.67 1.75 1.63 1.61 1.57 1.52 1.44 1.54 1.45 1.46 1.65 1.55 1.54 1.61 1.47 1.34 1.29 1.27 1.41 1.27 0.98 0.90 0.97
0.06 0.09 0.13 0.15 0.12 0.14 0.18 0.27 0.34 0.44 0.73 0.84 1.06 1.28 1.58 1.56 1.80 1.92 1.97 1.95 1.90 1.90 1.73 1.51 1.48 1.56 1.77 1.95 1.90 1.85 1.82 1.80 1.73 1.76 1.61 1.81 1.97 2.05 2.08 2.14 1.91 1.83 1.77 1.80 1.79 1.70 1.43 1.25 1.22
0.08 0.09 0.09 0.11 0.11 0.11 0.17 0.28 0.34 0.39 0.49 0.70 0.92 1.10 1.51 1.55 1.61 1.90 2.19 2.43 2.44 2.30 2.15 1.96 1.75 1.72 1.88 2.12 2.25 2.15 2.14 2.10 2.21 2.32 2.09 2.13 2.15 2.22 2.52 2.52 2.64 2.30 2.27 2.33 2.25 2.05 1.95 1.76 1.58
0.07 0.06 0.06 0.08 0.09 0.11 0.16 0.22 0.29 0.32 0.40 0.53 0.61 0.82 1.09 1.28 1.58 2.05 2.42 2.72 3.06 2.90 2.56 2.31 2.19 2.02 2.01 2.11 2.39 2.45 2.31 2.38 2.49 2.61 2.49 2.50 2.57 2.68 3.02 3.12 3.06 2.81 2.82 2.98 3.00 2.80 2.57 2.33 2.18
0.05 0.05 0.06 0.07 0.09 0.09 0.12 0.24 0.30 0.36 0.41 0.47 0.52 0.69 0.95 1.36 1.68 2.25 2.71 2.98 3.35 3.11 2.98 2.78 2.67 2.60 2.41 2.37 2.61 2.72 2.63 2.58 2.59 2.75 2.86 2.83 2.91 3.21 3.34 3.59 3.52 3.30 3.28 3.32 3.27 3.45 3.42 2.94 2.58
0.07 0.09 0.11 0.10 0.08 0.07 0.10 0.26 0.36 0.37 0.43 0.51 0.61 0.81 1.05 1.37 1.72 2.01 2.36 2.70 3.24 3.31 3.08 3.00 2.70 2.65 2.84 2.84 3.11 3.07 3.14 3.27 3.18 3.16 3.35 3.37 3.43 3.55 3.60 3.60 3.63 3.53 3.49 3.78 3.89 3.83 3.76 3.50 3.13
0.09 0.09 0.09 0.11 0.09 0.07 0.08 0.23 0.40 0.36 0.37 0.52 0.66 0.91 1.27 1.40 1.63 1.75 2.08 2.35 2.72 2.78 2.87 2.99 2.92 2.86 2.91 3.08 3.44 3.59 3.76 3.96 4.14 4.15 4.32 4.25 4.06 4.01 4.06 4.02 4.08 3.94 3.99 3.93 3.81 4.12 4.05 3.88 3.52
0.04 0.07 0.08 0.09 0.08 0.08 0.08 0.17 0.40 0.49 0.50 0.60 0.67 0.84 1.14 1.27 1.65 1.89 2.02 2.10 2.47 2.70 2.87 3.04 3.18 3.36 3.29 3.29 3.51 3.97 4.19 4.34 4.72 4.78 4.79 4.87 4.87 4.74 4.71 4.63 4.63 4.48 4.37 4.23 4.16 4.19 3.96 3.81 3.57
0.03 0.06 0.07 0.07 0.06 0.08 0.13 0.23 0.37 0.51 0.59 0.75 0.90 0.94 0.99 1.18 1.63 2.05 2.22 2.31 2.62 2.88 3.05 3.02 3.21 3.56 3.77 4.11 4.10 4.33 4.77 5.12 5.26 5.37 5.35 5.27 5.17 5.17 5.01 4.83 4.91 4.75 4.53 4.30 4.19 4.15 4.03 3.67 3.55
0.02 0.05 0.07 0.09 0.10 0.12 0.19 0.31 0.42 0.52 0.61 0.77 0.97 1.01 0.97 1.17 1.50 1.96 2.19 2.49 2.71 2.86 3.13 3.26 3.41 3.85 4.32 4.83 5.34 5.75 6.09 6.09 6.19 6.14 6.03 5.74 5.55 5.43 5.27 5.24 5.09 4.84 4.67 4.42 4.23 4.15 4.03 3.69 3.62
0.03 0.05 0.07 0.09 0.13 0.17 0.23 0.42 0.54 0.65 0.73 0.83 0.94 0.99 1.07 1.28 1.59 1.80 2.06 2.37 2.61 2.83 3.11 3.30 3.63 4.26 5.07 5.56 6.02 6.60 6.92 6.63 6.34 6.05 5.97 5.89 5.82 5.70 5.54 5.49 5.23 4.99 4.72 4.37 4.11 3.96 3.84 3.71 3.67
0.05 0.06 0.06 0.09 0.13 0.25 0.27 0.52 0.80 0.92 1.01 0.94 1.03 1.18 1.31 1.44 1.60 1.79 1.99 2.25 2.54 2.89 3.02 3.24 3.83 4.56 5.22 5.77 6.38 6.98 7.28 7.32 7.10 6.52 6.02 5.60 5.32 5.11 4.97 4.91 4.73 4.54 4.27 4.03 3.76 3.66 3.59 3.69 3.52
0.05 0.05 0.06 0.10 0.14 0.24 0.28 0.53 1.04 1.26 1.32 1.27 1.31 1.36 1.39 1.42 1.55 1.71 1.88 2.09 2.23 2.57 3.05 3.38 3.96 4.65 5.31 6.05 6.79 7.24 7.47 7.46 7.07 6.27 5.49 4.95 4.63 4.35 4.12 4.04 3.93 3.78 3.60 3.43 3.35 3.35 3.31 3.28 3.13
0.05 0.07 0.10 0.14 0.20 0.31 0.31 0.51 1.12 1.46 1.67 1.64 1.50 1.53 1.51 1.41 1.40 1.44 1.65 1.83 2.13 2.48 2.87 3.35 3.67 4.28 4.96 5.57 6.14 6.35 6.52 6.46 6.04 5.60 5.10 4.69 4.17 3.71 3.35 3.19 3.10 2.97 2.86 2.85 2.88 2.92 2.90 2.90 2.87
0.05 0.11 0.27 0.41 0.47 0.43 0.32 0.57 1.17 1.49 1.47 1.46 1.44 1.52 1.49 1.32 1.34 1.55 1.82 1.82 2.09 2.38 2.76 3.21 3.60 3.97 4.48 5.01 5.50 5.73 5.88 5.77 5.30 4.85 4.40 3.98 3.49 3.10 2.80 2.61 2.55 2.45 2.39 2.40 2.52 2.61 2.55 2.51 2.54
0.05 0.12 0.33 0.53 0.58 0.57 0.53 0.90 1.36 1.38 1.26 1.19 1.17 1.22 1.36 1.39 1.43 1.53 1.67 1.76 2.06 2.30 2.56 2.95 3.30 3.66 3.86 4.08 4.45 4.68 4.82 4.69 4.36 3.89 3.41 3.11 2.82 2.51 2.32 2.20 2.12 2.03 1.95 1.94 2.07 2.19 2.26 2.23 2.26
0.07 0.11 0.19 0.25 0.32 0.58 0.93 1.23 1.58 1.51 1.39 1.27 1.13 1.15 1.26 1.24 1.28 1.41 1.59 1.71 1.91 2.23 2.58 2.83 2.97 3.18 3.36 3.54 3.61 3.59 3.69 3.60 3.35 3.06 2.75 2.45 2.18 1.93 1.79 1.75 1.71 1.65 1.62 1.68 1.82 1.89 1.86 1.88 1.94
0.08 0.10 0.15 0.25 0.54 0.81 1.07 1.55 1.89 1.98 1.88 1.74 1.40 1.28 1.22 1.26 1.26 1.30 1.44 1.63 1.73 1.81 2.15 2.46 2.51 2.63 2.72 2.82 2.86 2.78 2.81 2.71 2.63 2.46 2.23 1.97 1.82 1.61 1.52 1.48 1.47 1.46 1.44 1.48 1.54 1.65 1.68 1.65 1.66
0.12 0.13 0.17 0.26 0.38 0.77 1.17 1.76 1.95 2.21 2.31 2.17 1.79 1.60 1.54 1.48 1.39 1.36 1.42 1.49 1.60 1.73 1.90 2.13 2.30 2.31 2.35 2.47 2.45 2.35 2.40 2.37 2.31 2.18 2.01 1.87 1.80 1.67 1.55 1.44 1.46 1.46 1.42 1.40 1.44 1.43 1.48 1.55 1.57
0.12 0.16 0.25 0.45 0.48 0.54 1.02 1.94 2.20 2.33 2.28 2.03 1.84 1.70 1.61 1.51 1.36 1.32 1.30 1.27 1.35 1.57 1.79 1.96 2.07 2.07 2.10 2.16 2.23 2.32 2.34 2.25 2.13 1.93 1.80 1.68 1.55 1.40 1.34 1.31 1.35 1.33 1.25 1.24 1.22 1.16 1.20 1.28 1.39

GEFSSGP_prec_meanprecacc_246.txt.gz
Total_Precipitation_Accumulation
0.01 0.01 0.02 0.03 0.05 0.10 0.26 0.33 0.32 0.34 0.38 0.31 0.29 0.31 0.44 0.60 0.81 1.44 0.91 0.51 0.32 0.22 0.22 0.22 0.28 0.22 0.19 0.21 0.23 0.29 0.38 0.36 0.35 0.31 0.26 0.27 0.27 0.25 0.26 0.25 0.29 0.35 0.40 0.41 0.41 0.43 0.46 0.46 0.47
0.01 0.01 0.02 0.04 0.08 0.18 0.35 0.34 0.36 0.33 0.34 0.34 0.30 0.31 0.38 0.49 0.41 0.48 0.41 0.40 0.33 0.21 0.20 0.19 0.25 0.27 0.21 0.21 0.23 0.30 0.39 0.38 0.40 0.34 0.29 0.28 0.27 0.28 0.30 0.31 0.33 0.41 0.47 0.47 0.48 0.47 0.48 0.47 0.46
0.01 0.01 0.03 0.04 0.09 0.18 0.35 0.37 0.39 0.35 0.34 0.33 0.39 0.44 0.50 0.62 0.56 0.53 0.47 0.44 0.38 0.28 0.24 0.22 0.23 0.26 0.24 0.24 0.25 0.34 0.41 0.40 0.44 0.38 0.34 0.32 0.31 0.30 0.32 0.36 0.38 0.42 0.47 0.45 0.41 0.40 0.42 0.46 0.45
0.01 0.01 0.03 0.07 0.13 0.16 0.25 0.35 0.39 0.41 0.40 0.36 0.41 0.58 0.59 0.59 0.57 0.55 0.53 0.53 0.43 0.35 0.28 0.22 0.25 0.25 0.28 0.31 0.32 0.42 0.41 0.44 0.50 0.44 0.43 0.41 0.38 0.37 0.39 0.44 0.46 0.46 0.49 0.48 0.46 0.44 0.44 0.50 0.49
0.01 0.02 0.04 0.11 0.14 0.16 0.24 0.34 0.47 0.51 0.50 0.44 0.49 0.78 0.97 0.88 0.80 0.73 0.55 0.54 0.54 0.41 0.31 0.25 0.27 0.31 0.37 0.43 0.44 0.56 0.52 0.54 0.61 0.60 0.57 0.52 0.49 0.46 0.46 0.50 0.54 0.52 0.51 0.51 0.52 0.54 0.51 0.50 0.49
0.01 0.02 0.07 0.13 0.12 0.17 0.25 0.36 0.45 0.48 0.42 0.39 0.54 0.98 1.47 1.27 1.00 1.07 0.92 0.66 0.60 0.44 0.35 0.32 0.32 0.42 0.52 0.59 0.58 0.69 0.64 0.67 0.69 0.71 0.68 0.62 0.56 0.50 0.49 0.52 0.55 0.59 0.62 0.59 0.53 0.50 0.49 0.49 0.51
0.01 0.02 0.08 0.12 0.20 0.23 0.29 0.35 0.48 0.42 0.39 0.52 0.78 1.19 1.58 1.47 1.18 1.23 1.17 0.89 0.78 0.62 0.48 0.44 0.41 0.48 0.64 0.76 0.72 0.73 0.68 0.72 0.76 0.81 0.80 0.72 0.63 0.56 0.55 0.59 0.62 0.64 0.63 0.57 0.52 0.49 0.49 0.51 0.52
0.01 0.02 0.06 0.12 0.28 0.33 0.32 0.36 0.42 0.39 0.47 0.68 0.91 1.13 1.43 1.48 1.27 1.15 1.10 1.04 0.98 0.95 0.77 0.66 0.65 0.66 0.70 0.75 0.81 0.78 0.74 0.80 0.85 0.88 0.84 0.78 0.69 0.64 0.64 0.62 0.67 0.63 0.67 0.67 0.65 0.62 0.61 0.60 0.60
0.02 0.04 0.08 0.15 0.29 0.37 0.36 0.35 0.34 0.36 0.45 0.71 0.80 0.82 1.13 1.27 1.20 1.24 1.19 1.08 1.07 1.08 1.17 1.09 0.94 0.91 0.90 0.85 0.86 0.93 0.87 0.86 0.91 0.92 0.86 0.81 0.82 0.91 0.88 0.76 0.78 0.78 0.85 0.94 0.90 0.84 0.81 0.77 0.75
0.03 0.09 0.11 0.15 0.21 0.27 0.34 0.37 0.32 0.36 0.42 0.63 0.93 0.90 0.89 1.08 1.26 1.38 1.41 1.31 1.27 1.29 1.43 1.44 1.39 1.31 1.22 1.14 1.26 1.29 1.13 1.04 1.02 1.11 1.02 1.00 1.25 1.34 1.17 1.22 1.17 1.14 1.12 1.15 1.15 1.08 0.98 0.91 0.83
0.05 0.09 0.14 0.19 0.15 0.20 0.27 0.31 0.29 0.38 0.56 0.63 0.98 1.29 1.11 1.24 1.56 1.85 1.70 1.65 1.69 1.64 1.47 1.38 1.51 1.60 1.70 1.78 1.66 1.64 1.60 1.57 1.49 1.58 1.50 1.53 1.72 1.63 1.62 1.69 1.53 1.40 1.36 1.35 1.48 1.33 1.02 0.93 1.00
0.07 0.10 0.14 0.16 0.12 0.14 0.18 0.28 0.34 0.44 0.74 0.84 1.06 1.29 1.58 1.57 1.82 1.94 1.99 1.96 1.92 1.95 1.79 1.57 1.54 1.61 1.81 1.98 1.92 1.86 1.84 1.83 1.77 1.81 1.66 1.87 2.04 2.12 2.13 2.21 1.98 1.89 1.83 1.88 1.88 1.76 1.48 1.29 1.26
0.09 0.09 0.10 0.12 0.11 0.11 0.18 0.29 0.34 0.40 0.50 0.71 0.92 1.11 1.51 1.56 1.62 1.92 2.21 2.46 2.48 2.35 2.21 2.05 1.84 1.79 1.92 2.16 2.28 2.17 2.17 2.13 2.24 2.36 2.13 2.17 2.19 2.27 2.57 2.58 2.72 2.38 2.33 2.40 2.36 2.13 2.00 1.81 1.63
0.07 0.07 0.07 0.10 0.09 0.12 0.18 0.24 0.30 0.33 0.41 0.54 0.62 0.84 1.10 1.29 1.59 2.07 2.45 2.76 3.09 2.94 2.65 2.40 2.24 2.08 2.06 2.15 2.43 2.49 2.34 2.41 2.52 2.65 2.54 2.53 2.60 2.71 3.05 3.16 3.12 2.88 2.90 3.04 3.14 2.91 2.65 2.37 2.23
0.05 0.06 0.08 0.08 0.11 0.10 0.14 0.25 0.31 0.37 0.42 0.48 0.53 0.71 0.97 1.38 1.71 2.28 2.74 3.02 3.38 3.15 3.04 2.82 2.70 2.62 2.44 2.40 2.66 2.74 2.65 2.60 2.61 2.79 2.90 2.87 2.94 3.24 3.37 3.62 3.56 3.34 3.35 3.40 3.38 3.57 3.51 2.99 2.63
0.08 0.09 0.12 0.11 0.10 0.08 0.12 0.28 0.37 0.38 0.45 0.53 0.63 0.83 1.07 1.39 1.75 2.05 2.40 2.73 3.27 3.35 3.12 3.04 2.73 2.67 2.86 2.87 3.15 3.09 3.16 3.29 3.20 3.18 3.39 3.42 3.47 3.59 3.65 3.64 3.66 3.57 3.55 3.86 3.97 3.93 3.82 3.54 3.16
0.10 0.09 0.10 0.12 0.10 0.08 0.09 0.24 0.41 0.38 0.39 0.55 0.68 0.95 1.35 1.43 1.65 1.78 2.13 2.40 2.77 2.82 2.90 3.02 2.94 2.88 2.94 3.12 3.48 3.61 3.77 3.97 4.16 4.17 4.35 4.28 4.10 4.04 4.11 4.06 4.11 3.98 4.03 4.00 3.88 4.22 4.13 3.96 3.56
0.04 0.07 0.08 0.10 0.09 0.08 0.10 0.18 0.41 0.52 0.54 0.63 0.71 0.88 1.22 1.33 1.69 1.93 2.08 2.15 2.51 2.73 2.89 3.05 3.20 3.39 3.33 3.34 3.56 3.99 4.21 4.36 4.74 4.80 4.81 4.89 4.90 4.77 4.74 4.67 4.67 4.52 4.41 4.28 4.22 4.25 4.04 3.92 3.64
0.03 0.06 0.07 0.07 0.06 0.09 0.14 0.24 0.39 0.55 0.62 0.77 0.92 0.98 1.03 1.23 1.70 2.14 2.28 2.34 2.64 2.90 3.07 3.04 3.24 3.59 3.81 4.17 4.15 4.34 4.78 5.14 5.28 5.38 5.37 5.29 5.20 5.20 5.05 4.87 4.95 4.79 4.56 4.33 4.24 4.20 4.08 3.74 3.63
0.02 0.05 0.07 0.09 0.10 0.12 0.19 0.32 0.42 0.53 0.61 0.78 0.99 1.06 1.02 1.20 1.53 1.99 2.21 2.51 2.73 2.87 3.14 3.27 3.42 3.87 4.35 4.88 5.39 5.77 6.10 6.11 6.21 6.16 6.04 5.76 5.56 5.47 5.31 5.28 5.12 4.87 4.70 4.45 4.27 4.20 4.07 3.74 3.68
0.03 0.05 0.07 0.09 0.13 0.17 0.24 0.43 0.55 0.66 0.73 0.84 0.95 1.00 1.10 1.32 1.63 1.82 2.07 2.38 2.62 2.83 3.11 3.30 3.65 4.30 5.10 5.60 6.06 6.62 6.95 6.66 6.38 6.08 6.00 5.92 5.85 5.74 5.57 5.52 5.26 5.02 4.75 4.40 4.13 4.00 3.89 3.76 3.72
0.06 0.06 0.06 0.09 0.14 0.26 0.28 0.53 0.80 0.92 1.02 0.95 1.04 1.19 1.32 1.46 1.62 1.80 2.00 2.25 2.55 2.89 3.03 3.26 3.88 4.61 5.26 5.81 6.42 7.01 7.30 7.35 7.13 6.57 6.07 5.65 5.36 5.14 5.00 4.94 4.77 4.58 4.30 4.06 3.79 3.69 3.62 3.73 3.57
0.05 0.05 0.06 0.10 0.16 0.26 0.30 0.54 1.04 1.27 1.32 1.27 1.32 1.37 1.40 1.43 1.56 1.72 1.89 2.10 2.23 2.58 3.08 3.42 4.00 4.68 5.34 6.09 6.83 7.28 7.51 7.50 7.12 6.33 5.55 5.00 4.67 4.39 4.15 4.07 3.97 3.82 3.63 3.45 3.37 3.37 3.34 3.31 3.16
0.05 0.07 0.11 0.15 0.21 0.32 0.32 0.52 1.13 1.48 1.68 1.64 1.51 1.54 1.52 1.41 1.40 1.44 1.65 1.84 2.14 2.50 2.92 3.39 3.71 4.30 4.99 5.61 6.19 6.41 6.60 6.53 6.11 5.67 5.17 4.75 4.23 3.76 3.40 3.23 3.14 3.00 2.89 2.88 2.90 2.95 2.93 2.93 2.90
0.06 0.12 0.28 0.42 0.48 0.44 0.33 0.58 1.19 1.50 1.48 1.47 1.46 1.53 1.49 1.32 1.35 1.55 1.82 1.82 2.11 2.40 2.78 3.23 3.63 4.00 4.52 5.06 5.57 5.81 5.97 5.86 5.38 4.93 4.49 4.07 3.57 3.17 2.84 2.64 2.59 2.49 2.43 2.42 2.55 2.64 2.59 2.54 2.57
0.06 0.12 0.34 0.54 0.59 0.59 0.54 0.91 1.37 1.39 1.27 1.20 1.18 1.22 1.36 1.39 1.43 1.54 1.68 1.77 2.07 2.31 2.57 2.97 3.32 3.69 3.92 4.15 4.52 4.77 4.92 4.79 4.44 3.96 3.48 3.18 2.89 2.57 2.38 2.25 2.16 2.07 1.99 1.97 2.11 2.24 2.30 2.27 2.31
0.07 0.11 0.19 0.25 0.33 0.59 0.94 1.23 1.58 1.52 1.39 1.27 1.13 1.15 1.26 1.24 1.28 1.41 1.59 1.72 1.92 2.23 2.59 2.84 2.98 3.20 3.39 3.60 3.68 3.66 3.76 3.68 3.43 3.13 2.81 2.50 2.24 1.98 1.84 1.79 1.76 1.69 1.66 1.72 1.86 1.93 1.90 1.92 1.98
0.08 0.11 0.15 0.26 0.56 0.82 1.08 1.56 1.90 1.98 1.88 1.75 1.41 1.28 1.22 1.26 1.26 1.30 1.45 1.64 1.73 1.82 2.16 2.47 2.53 2.65 2.75 2.84 2.90 2.82 2.86 2.76 2.69 2.51 2.28 2.02 1.86 1.64 1.55 1.50 1.51 1.51 1.48 1.52 1.58 1.68 1.71 1.69 1.70
0.12 0.14 0.17 0.27 0.39 0.78 1.18 1.76 1.95 2.21 2.31 2.17 1.79 1.61 1.54 1.48 1.39 1.36 1.42 1.49 1.61 1.74 1.91 2.14 2.32 2.33 2.37 2.50 2.48 2.39 2.44 2.41 2.36 2.22 2.05 1.91 1.84 1.70 1.57 1.47 1.50 1.51 1.45 1.43 1.46 1.45 1.51 1.58 1.61
0.12 0.16 0.25 0.46 0.50 0.55 1.03 1.94 2.21 2.33 2.29 2.04 1.85 1.71 1.61 1.52 1.36 1.33 1.30 1.28 1.36 1.58 1.80 1.97 2.09 2.10 2.14 2.20 2.27 2.35 2.38 2.28 2.15 1.95 1.83 1.71 1.59 1.44 1.38 1.34 1.40 1.38 1.28 1.27 1.24 1.19 1.23 1.31 1.42

GEFSSGP_prec_meanprecacc_252.txt.gz
Total_Precipitation_Accumulation
0.01 0.01 0.02 0.03 0.07 0.14 0.31 0.34 0.33 0.34 0.39 0.32 0.29 0.31 0.45 0.61 0.82 1.49 0.93 0.51 0.32 0.23 0.24 0.23 0.29 0.22 0.19 0.22 0.24 0.32 0.41 0.39 0.39 0.34 0.29 0.30 0.31 0.29 0.29 0.29 0.32 0.38 0.44 0.45 0.47 0.48 0.51 0.52 0.54
0.01 0.02 0.03 0.04 0.10 0.24 0.39 0.35 0.36 0.34 0.34 0.34 0.30 0.31 0.38 0.50 0.41 0.48 0.41 0.40 0.33 0.22 0.23 0.21 0.25 0.27 0.22 0.22 0.25 0.33 0.42 0.41 0.45 0.40 0.33 0.33 0.32 0.33 0.35 0.37 0.38 0.45 0.51 0.52 0.53 0.52 0.53 0.52 0.51
0.01 0.01 0.03 0.04 0.11 0.24 0.40 0.37 0.40 0.36 0.34 0.33 0.39 0.44 0.50 0.63 0.57 0.54 0.48 0.44 0.38 0.28 0.25 0.23 0.23 0.26 0.25 0.25 0.27 0.37 0.45 0.44 0.50 0.45 0.40 0.38 0.37 0.36 0.38 0.41 0.42 0.46 0.52 0.51 0.46 0.45 0.47 0.52 0.51
0.01 0.02 0.03 0.09 0.16 0.18 0.28 0.36 0.40 0.42 0.40 0.36 0.41 0.58 0.59 0.59 0.57 0.56 0.53 0.53 0.43 0.35 0.29 0.23 0.25 0.26 0.29 0.32 0.34 0.45 0.45 0.48 0.55 0.52 0.50 0.47 0.46 0.45 0.44 0.48 0.50 0.49 0.53 0.52 0.51 0.50 0.50 0.55 0.55
0.01 0.02 0.05 0.14 0.16 0.17 0.25 0.35 0.48 0.52 0.51 0.44 0.49 0.78 0.98 0.88 0.80 0.73 0.55 0.54 0.55 0.43 0.34 0.26 0.27 0.32 0.38 0.44 0.46 0.60 0.56 0.59 0.66 0.69 0.65 0.58 0.56 0.53 0.52 0.54 0.57 0.56 0.56 0.55 0.56 0.58 0.57 0.56 0.55
0.01 0.03 0.09 0.17 0.15 0.18 0.26 0.37 0.45 0.48 0.42 0.39 0.55 0.98 1.47 1.28 1.01 1.07 0.92 0.66 0.63 0.47 0.40 0.35 0.33 0.43 0.55 0.62 0.60 0.71 0.66 0.70 0.74 0.78 0.74 0.68 0.62 0.56 0.55 0.57 0.60 0.64 0.68 0.63 0.57 0.54 0.53 0.56 0.58
0.01 0.03 0.11 0.16 0.22 0.25 0.31 0.37 0.49 0.43 0.39 0.52 0.78 1.19 1.59 1.48 1.19 1.23 1.18 0.90 0.80 0.65 0.53 0.46 0.42 0.52 0.72 0.81 0.75 0.76 0.72 0.74 0.80 0.87 0.86 0.76 0.69 0.63 0.61 0.64 0.67 0.70 0.70 0.63 0.57 0.54 0.54 0.56 0.58
0.01 0.02 0.08 0.14 0.30 0.35 0.33 0.38 0.44 0.40 0.48 0.68 0.91 1.14 1.45 1.50 1.28 1.15 1.10 1.06 1.01 0.97 0.79 0.67 0.66 0.71 0.79 0.81 0.84 0.81 0.78 0.84 0.90 0.93 0.89 0.83 0.74 0.71 0.71 0.68 0.73 0.69 0.71 0.72 0.70 0.67 0.66 0.64 0.63
0.02 0.04 0.09 0.17 0.31 0.38 0.36 0.36 0.34 0.36 0.46 0.71 0.81 0.83 1.14 1.28 1.21 1.24 1.20 1.11 1.11 1.11 1.18 1.09 0.94 0.93 0.94 0.90 0.89 0.96 0.93 0.92 0.96 0.97 0.91 0.87 0.89 0.98 0.94 0.81 0.84 0.84 0.89 0.97 0.93 0.87 0.86 0.81 0.78
0.03 0.10 0.12 0.16 0.21 0.28 0.34 0.37 0.33 0.37 0.42 0.63 0.93 0.90 0.89 1.08 1.27 1.39 1.43 1.33 1.29 1.33 1.46 1.47 1.41 1.35 1.27 1.20 1.32 1.33 1.16 1.08 1.05 1.16 1.06 1.04 1.31 1.42 1.23 1.28 1.23 1.20 1.18 1.19 1.19 1.11 1.02 0.94 0.86
0.05 0.10 0.14 0.19 0.16 0.20 0.27 0.32 0.30 0.41 0.58 0.65 0.99 1.29 1.13 1.24 1.56 1.86 1.71 1.68 1.72 1.68 1.52 1.43 1.55 1.64 1.75 1.85 1.71 1.66 1.63 1.60 1.52 1.62 1.54 1.58 1.77 1.69 1.68 1.75 1.59 1.45 1.41 1.40 1.54 1.38 1.07 0.95 1.03
0.07 0.10 0.15 0.17 0.13 0.15 0.18 0.29 0.36 0.49 0.77 0.88 1.09 1.30 1.61 1.59 1.83 1.95 2.01 1.99 1.95 1.99 1.84 1.61 1.56 1.64 1.84 2.01 1.95 1.89 1.86 1.86 1.81 1.86 1.70 1.92 2.10 2.18 2.19 2.25 2.02 1.93 1.89 1.93 1.93 1.81 1.52 1.33 1.30
0.09 0.09 0.11 0.15 0.12 0.11 0.19 0.30 0.35 0.44 0.56 0.75 0.96 1.15 1.54 1.57 1.63 1.93 2.22 2.48 2.50 2.36 2.23 2.07 1.85 1.82 1.97 2.21 2.32 2.20 2.20 2.18 2.30 2.41 2.18 2.21 2.24 2.31 2.60 2.62 2.76 2.41 2.38 2.46 2.41 2.18 2.05 1.87 1.68
0.07 0.07 0.08 0.12 0.11 0.13 0.19 0.25 0.31 0.34 0.45 0.57 0.67 0.89 1.13 1.31 1.60 2.08 2.46 2.78 3.11 2.96 2.67 2.43 2.27 2.11 2.11 2.21 2.47 2.53 2.38 2.45 2.56 2.70 2.58 2.57 2.63 2.74 3.08 3.20 3.18 2.93 2.96 3.14 3.21 2.98 2.70 2.43 2.31
0.06 0.07 0.08 0.09 0.12 0.11 0.15 0.27 0.33 0.38 0.43 0.50 0.57 0.75 0.98 1.39 1.73 2.30 2.75 3.03 3.40 3.17 3.06 2.84 2.72 2.65 2.48 2.45 2.70 2.78 2.69 2.63 2.65 2.85 2.94 2.90 2.98 3.29 3.41 3.68 3.62 3.40 3.41 3.46 3.45 3.66 3.60 3.06 2.71
0.08 0.10 0.14 0.12 0.10 0.09 0.13 0.30 0.39 0.40 0.47 0.55 0.64 0.84 1.08 1.40 1.75 2.06 2.41 2.75 3.29 3.36 3.13 3.04 2.74 2.69 2.90 2.93 3.21 3.14 3.20 3.32 3.23 3.24 3.43 3.45 3.50 3.63 3.69 3.69 3.72 3.64 3.63 3.94 4.05 4.01 3.91 3.63 3.24
0.10 0.10 0.11 0.13 0.11 0.09 0.10 0.26 0.44 0.40 0.41 0.56 0.69 0.97 1.35 1.44 1.66 1.79 2.13 2.41 2.78 2.85 2.92 3.03 2.95 2.91 2.97 3.17 3.53 3.66 3.83 4.01 4.20 4.21 4.40 4.33 4.13 4.08 4.15 4.12 4.19 4.06 4.11 4.09 3.94 4.31 4.22 4.04 3.64
0.06 0.07 0.08 0.11 0.10 0.09 0.10 0.19 0.43 0.53 0.54 0.65 0.72 0.90 1.22 1.34 1.70 1.95 2.10 2.16 2.54 2.77 2.91 3.07 3.23 3.42 3.36 3.39 3.61 4.04 4.27 4.42 4.78 4.84 4.87 4.95 4.95 4.82 4.79 4.73 4.73 4.58 4.47 4.35 4.29 4.33 4.13 3.99 3.70
0.04 0.06 0.07 0.08 0.07 0.09 0.15 0.25 0.41 0.56 0.64 0.78 0.94 0.99 1.05 1.25 1.72 2.17 2.31 2.37 2.67 2.93 3.10 3.08 3.28 3.63 3.85 4.21 4.19 4.39 4.84 5.20 5.33 5.42 5.40 5.32 5.24 5.25 5.09 4.91 5.01 4.84 4.61 4.37 4.28 4.25 4.14 3.80 3.69
0.03 0.05 0.08 0.10 0.11 0.13 0.20 0.34 0.44 0.57 0.67 0.84 1.02 1.08 1.04 1.23 1.55 2.01 2.23 2.54 2.75 2.90 3.17 3.31 3.45 3.91 4.39 4.92 5.42 5.80 6.15 6.15 6.26 6.19 6.08 5.78 5.60 5.52 5.35 5.33 5.15 4.91 4.74 4.48 4.30 4.24 4.13 3.79 3.74
0.04 0.05 0.07 0.10 0.14 0.19 0.26 0.46 0.57 0.67 0.76 0.85 0.96 1.02 1.12 1.34 1.64 1.84 2.08 2.40 2.64 2.85 3.13 3.32 3.68 4.33 5.15 5.66 6.11 6.67 6.99 6.69 6.41 6.12 6.04 5.96 5.89 5.79 5.64 5.58 5.31 5.07 4.80 4.44 4.17 4.04 3.95 3.81 3.78
0.06 0.06 0.06 0.09 0.15 0.27 0.31 0.57 0.85 0.94 1.04 0.96 1.04 1.20 1.33 1.47 1.63 1.81 2.00 2.26 2.56 2.90 3.04 3.27 3.92 4.65 5.30 5.86 6.47 7.06 7.35 7.39 7.17 6.61 6.12 5.71 5.43 5.21 5.06 5.00 4.82 4.63 4.35 4.11 3.83 3.73 3.68 3.79 3.63
0.05 0.05 0.06 0.10 0.16 0.27 0.32 0.58 1.09 1.29 1.35 1.30 1.33 1.38 1.41 1.44 1.56 1.72 1.89 2.11 2.24 2.59 3.09 3.44 4.03 4.72 5.37 6.12 6.87 7.32 7.57 7.56 7.18 6.39 5.62 5.07 4.75 4.46 4.21 4.11 4.02 3.88 3.68 3.51 3.42 3.43 3.39 3.36 3.22
0.05 0.08 0.11 0.15 0.22 0.37 0.35 0.57 1.19 1.53 1.71 1.66 1.52 1.54 1.52 1.42 1.41 1.45 1.66 1.84 2.15 2.52 2.94 3.42 3.73 4.33 5.02 5.64 6.23 6.46 6.65 6.59 6.17 5.75 5.25 4.83 4.30 3.84 3.47 3.30 3.21 3.07 2.96 2.95 2.96 3.00 2.97 2.98 2.97
0.06 0.13 0.31 0.46 0.51 0.47 0.35 0.61 1.22 1.53 1.49 1.47 1.46 1.53 1.50 1.33 1.35 1.55 1.83 1.83 2.11 2.42 2.81 3.26 3.66 4.03 4.55 5.08 5.59 5.83 6.01 5.92 5.43 4.99 4.56 4.14 3.64 3.24 2.91 2.71 2.66 2.57 2.52 2.50 2.61 2.69 2.63 2.59 2.62
0.06 0.13 0.36 0.58 0.61 0.60 0.55 0.93 1.39 1.41 1.28 1.21 1.18 1.22 1.36 1.40 1.44 1.54 1.68 1.77 2.08 2.32 2.59 2.99 3.34 3.70 3.94 4.16 4.54 4.79 4.95 4.83 4.49 4.02 3.54 3.23 2.94 2.62 2.43 2.31 2.23 2.13 2.05 2.04 2.18 2.30 2.36 2.33 2.36
0.08 0.11 0.19 0.27 0.34 0.61 0.95 1.24 1.61 1.54 1.39 1.27 1.13 1.15 1.27 1.24 1.28 1.42 1.60 1.72 1.93 2.24 2.60 2.85 3.00 3.21 3.41 3.62 3.70 3.69 3.81 3.73 3.49 3.19 2.85 2.55 2.29 2.02 1.89 1.85 1.82 1.76 1.72 1.78 1.93 2.01 1.97 1.99 2.04
0.08 0.11 0.15 0.27 0.58 0.85 1.10 1.57 1.92 1.99 1.89 1.75 1.41 1.28 1.22 1.26 1.27 1.30 1.45 1.64 1.74 1.82 2.16 2.48 2.54 2.66 2.76 2.86 2.92 2.85 2.91 2.82 2.75 2.58 2.34 2.08 1.92 1.69 1.59 1.56 1.56 1.57 1.54 1.59 1.65 1.75 1.78 1.75 1.75
0.12 0.14 0.17 0.28 0.41 0.81 1.21 1.80 1.96 2.22 2.31 2.18 1.80 1.62 1.55 1.48 1.40 1.37 1.42 1.50 1.62 1.75 1.92 2.16 2.34 2.35 2.39 2.52 2.51 2.43 2.48 2.45 2.42 2.30 2.13 1.98 1.91 1.76 1.63 1.52 1.56 1.57 1.50 1.48 1.51 1.50 1.55 1.64 1.67
0.12 0.16 0.25 0.48 0.52 0.57 1.06 1.98 2.22 2.33 2.29 2.04 1.85 1.71 1.62 1.53 1.37 1.33 1.31 1.29 1.37 1.60 1.82 1.99 2.10 2.11 2.16 2.23 2.31 2.40 2.43 2.34 2.21 2.01 1.89 1.77 1.65 1.50 1.44 1.40 1.45 1.44 1.33 1.31 1.28 1.23 1.28 1.37 1.48

GEFSSGP_prec_meanprecacc_258.txt.gz
Total_Precipitation_Accumulation
0.01 0.01 0.02 0.04 0.11 0.20 0.34 0.38 0.36 0.36 0.40 0.32 0.30 0.33 0.46 0.61 0.83 1.50 0.95 0.53 0.35 0.26 0.29 0.25 0.29 0.23 0.20 0.22 0.25 0.33 0.42 0.40 0.41 0.36 0.32 0.32 0.32 0.30 0.30 0.31 0.34 0.41 0.48 0.48 0.50 0.52 0.55 0.56 0.59
0.01 0.02 0.03 0.07 0.14 0.31 0.45 0.39 0.40 0.36 0.35 0.35 0.32 0.33 0.38 0.50 0.42 0.49 0.43 0.42 0.36 0.25 0.26 0.23 0.26 0.28 0.23 0.23 0.25 0.34 0.43 0.42 0.47 0.42 0.36 0.36 0.34 0.35 0.37 0.39 0.41 0.49 0.56 0.58 0.57 0.56 0.57 0.57 0.55
0.01 0.02 0.04 0.07 0.16 0.30 0.47 0.40 0.44 0.39 0.35 0.35 0.41 0.45 0.51 0.63 0.57 0.55 0.49 0.45 0.40 0.31 0.27 0.24 0.25 0.27 0.26 0.26 0.27 0.38 0.46 0.45 0.52 0.48 0.43 0.42 0.42 0.39 0.40 0.43 0.45 0.50 0.56 0.57 0.52 0.48 0.50 0.57 0.56
0.01 0.02 0.04 0.13 0.24 0.23 0.34 0.39 0.41 0.44 0.41 0.37 0.42 0.59 0.60 0.60 0.58 0.58 0.55 0.55 0.44 0.38 0.31 0.24 0.26 0.27 0.30 0.33 0.34 0.46 0.46 0.50 0.58 0.56 0.54 0.51 0.50 0.49 0.48 0.51 0.52 0.52 0.56 0.56 0.55 0.55 0.54 0.60 0.61
0.01 0.02 0.06 0.18 0.23 0.21 0.28 0.37 0.50 0.53 0.51 0.45 0.50 0.78 0.98 0.88 0.80 0.75 0.61 0.56 0.56 0.45 0.37 0.28 0.29 0.34 0.40 0.45 0.46 0.60 0.57 0.60 0.69 0.75 0.69 0.61 0.59 0.56 0.55 0.57 0.59 0.58 0.58 0.58 0.59 0.62 0.61 0.61 0.61
0.01 0.03 0.12 0.22 0.22 0.21 0.28 0.39 0.47 0.49 0.42 0.40 0.55 0.98 1.48 1.28 1.02 1.08 0.95 0.68 0.64 0.49 0.42 0.36 0.35 0.45 0.57 0.62 0.60 0.71 0.67 0.71 0.77 0.83 0.80 0.70 0.64 0.58 0.57 0.59 0.62 0.66 0.69 0.65 0.60 0.57 0.57 0.60 0.63
0.01 0.04 0.13 0.20 0.28 0.28 0.32 0.39 0.50 0.43 0.40 0.53 0.79 1.20 1.60 1.49 1.21 1.25 1.19 0.91 0.81 0.66 0.53 0.46 0.43 0.53 0.73 0.82 0.75 0.76 0.73 0.75 0.82 0.92 0.91 0.80 0.72 0.65 0.63 0.66 0.69 0.71 0.71 0.65 0.59 0.57 0.58 0.60 0.62
0.01 0.03 0.09 0.17 0.34 0.37 0.34 0.39 0.45 0.41 0.48 0.69 0.92 1.14 1.46 1.50 1.29 1.17 1.13 1.09 1.03 0.98 0.79 0.67 0.66 0.71 0.79 0.82 0.86 0.83 0.80 0.86 0.92 0.97 0.94 0.86 0.78 0.73 0.74 0.70 0.75 0.72 0.74 0.74 0.72 0.70 0.70 0.68 0.67
0.02 0.05 0.11 0.20 0.35 0.41 0.37 0.37 0.37 0.38 0.47 0.72 0.82 0.84 1.15 1.29 1.22 1.26 1.24 1.15 1.15 1.14 1.20 1.10 0.96 0.94 0.95 0.91 0.91 0.98 0.95 0.94 0.97 1.00 0.95 0.89 0.91 1.02 0.97 0.84 0.87 0.87 0.92 1.00 0.95 0.89 0.88 0.84 0.83
0.03 0.10 0.13 0.17 0.22 0.29 0.35 0.39 0.35 0.40 0.45 0.66 0.96 0.93 0.90 1.10 1.29 1.41 1.46 1.37 1.34 1.37 1.48 1.48 1.42 1.37 1.29 1.21 1.34 1.34 1.16 1.09 1.07 1.18 1.09 1.06 1.32 1.44 1.26 1.31 1.27 1.24 1.22 1.22 1.21 1.14 1.05 0.97 0.90
0.05 0.10 0.14 0.20 0.16 0.21 0.28 0.32 0.32 0.43 0.63 0.69 1.02 1.34 1.18 1.26 1.59 1.89 1.75 1.72 1.76 1.73 1.55 1.45 1.57 1.66 1.78 1.87 1.73 1.68 1.63 1.61 1.53 1.63 1.55 1.58 1.78 1.71 1.70 1.77 1.63 1.51 1.47 1.43 1.56 1.40 1.09 0.98 1.06
0.07 0.10 0.15 0.17 0.13 0.15 0.19 0.29 0.37 0.50 0.80 0.90 1.10 1.34 1.69 1.68 1.89 2.00 2.05 2.03 1.98 2.02 1.88 1.64 1.59 1.67 1.87 2.05 1.99 1.92 1.87 1.87 1.82 1.87 1.71 1.93 2.11 2.19 2.21 2.27 2.05 1.97 1.94 1.99 1.97 1.84 1.54 1.36 1.32
0.09 0.09 0.11 0.15 0.12 0.12 0.19 0.31 0.35 0.45 0.58 0.77 0.99 1.20 1.62 1.68 1.71 2.00 2.27 2.53 2.54 2.41 2.28 2.11 1.89 1.86 2.00 2.25 2.36 2.22 2.22 2.20 2.31 2.43 2.19 2.22 2.25 2.32 2.63 2.63 2.80 2.46 2.42 2.50 2.44 2.22 2.09 1.90 1.72
0.07 0.07 0.08 0.12 0.12 0.13 0.19 0.26 0.32 0.37 0.49 0.59 0.70 0.93 1.24 1.46 1.69 2.15 2.50 2.82 3.15 3.01 2.72 2.47 2.30 2.14 2.14 2.24 2.51 2.56 2.41 2.47 2.59 2.71 2.58 2.58 2.64 2.75 3.10 3.23 3.21 2.98 3.02 3.21 3.25 3.02 2.73 2.46 2.36
0.06 0.07 0.08 0.09 0.13 0.11 0.15 0.28 0.34 0.42 0.46 0.52 0.60 0.80 1.14 1.55 1.81 2.39 2.83 3.08 3.44 3.20 3.09 2.86 2.74 2.68 2.51 2.47 2.73 2.81 2.71 2.65 2.66 2.86 2.94 2.91 2.99 3.30 3.42 3.72 3.68 3.45 3.46 3.51 3.49 3.70 3.63 3.10 2.75
0.09 0.11 0.14 0.12 0.11 0.09 0.13 0.31 0.40 0.45 0.51 0.58 0.67 0.87 1.16 1.50 1.83 2.13 2.47 2.79 3.31 3.38 3.14 3.06 2.76 2.71 2.92 2.95 3.23 3.15 3.22 3.34 3.24 3.25 3.44 3.46 3.51 3.65 3.71 3.73 3.81 3.71 3.68 3.98 4.10 4.06 3.95 3.67 3.29
0.10 0.10 0.12 0.14 0.12 0.10 0.11 0.26 0.44 0.43 0.45 0.59 0.71 1.02 1.41 1.51 1.79 1.88 2.19 2.44 2.81 2.87 2.92 3.04 2.96 2.92 2.99 3.19 3.55 3.68 3.85 4.03 4.21 4.23 4.42 4.34 4.15 4.10 4.19 4.15 4.26 4.10 4.15 4.12 4.00 4.36 4.26 4.09 3.69
0.06 0.08 0.09 0.12 0.11 0.10 0.11 0.20 0.44 0.54 0.56 0.66 0.73 0.92 1.25 1.37 1.80 2.03 2.17 2.20 2.56 2.79 2.92 3.08 3.24 3.43 3.38 3.41 3.63 4.07 4.30 4.44 4.81 4.86 4.89 4.98 4.97 4.84 4.84 4.80 4.79 4.63 4.50 4.38 4.33 4.38 4.18 4.05 3.77
0.05 0.07 0.08 0.10 0.10 0.12 0.16 0.26 0.42 0.57 0.65 0.79 0.96 1.03 1.08 1.27 1.76 2.21 2.34 2.40 2.70 2.94 3.10 3.09 3.29 3.65 3.88 4.24 4.22 4.41 4.86 5.23 5.35 5.44 5.42 5.34 5.27 5.27 5.11 4.95 5.05 4.88 4.64 4.40 4.32 4.29 4.19 3.87 3.77
0.03 0.06 0.09 0.12 0.13 0.14 0.22 0.35 0.45 0.58 0.68 0.85 1.06 1.11 1.09 1.27 1.60 2.07 2.27 2.58 2.80 2.93 3.19 3.32 3.47 3.93 4.41 4.94 5.44 5.82 6.17 6.16 6.27 6.22 6.10 5.80 5.62 5.54 5.38 5.36 5.18 4.94 4.77 4.50 4.33 4.27 4.16 3.83 3.79
0.04 0.05 0.08 0.11 0.16 0.20 0.27 0.48 0.58 0.68 0.77 0.88 1.00 1.05 1.15 1.38 1.71 1.94 2.16 2.44 2.67 2.87 3.15 3.33 3.69 4.35 5.17 5.69 6.16 6.72 7.03 6.72 6.43 6.15 6.07 5.99 5.91 5.81 5.67 5.64 5.38 5.12 4.84 4.48 4.22 4.09 3.98 3.84 3.82
0.06 0.06 0.07 0.10 0.17 0.29 0.32 0.60 0.87 0.96 1.06 0.99 1.07 1.23 1.36 1.51 1.69 1.89 2.06 2.29 2.58 2.92 3.05 3.28 3.92 4.66 5.32 5.89 6.50 7.10 7.40 7.43 7.20 6.64 6.16 5.76 5.47 5.25 5.12 5.07 4.91 4.71 4.41 4.16 3.86 3.76 3.71 3.83 3.67
0.05 0.05 0.07 0.10 0.17 0.28 0.32 0.60 1.11 1.30 1.36 1.34 1.40 1.45 1.45 1.48 1.61 1.77 1.93 2.12 2.25 2.61 3.10 3.45 4.04 4.74 5.40 6.16 6.91 7.37 7.61 7.59 7.22 6.43 5.65 5.11 4.80 4.51 4.26 4.18 4.09 3.94 3.74 3.55 3.46 3.46 3.41 3.39 3.25
0.05 0.08 0.11 0.15 0.23 0.37 0.36 0.58 1.22 1.57 1.73 1.70 1.62 1.63 1.56 1.44 1.43 1.47 1.67 1.86 2.16 2.54 2.95 3.44 3.75 4.36 5.05 5.67 6.26 6.50 6.69 6.63 6.20 5.78 5.28 4.86 4.34 3.88 3.52 3.36 3.26 3.12 3.01 2.99 3.00 3.04 3.02 3.02 3.00
0.07 0.14 0.32 0.47 0.52 0.47 0.36 0.62 1.24 1.55 1.51 1.50 1.51 1.57 1.52 1.34 1.36 1.56 1.83 1.83 2.12 2.44 2.82 3.28 3.67 4.04 4.56 5.11 5.61 5.86 6.03 5.94 5.46 5.01 4.58 4.18 3.68 3.28 2.95 2.74 2.68 2.60 2.56 2.57 2.68 2.77 2.71 2.65 2.66
0.07 0.14 0.37 0.59 0.62 0.60 0.56 0.94 1.42 1.46 1.33 1.22 1.20 1.24 1.38 1.41 1.44 1.54 1.68 1.78 2.08 2.33 2.61 3.02 3.35 3.71 3.95 4.18 4.56 4.81 4.97 4.85 4.51 4.04 3.56 3.26 2.96 2.65 2.47 2.34 2.25 2.16 2.08 2.07 2.22 2.36 2.43 2.38 2.40
0.09 0.12 0.20 0.27 0.35 0.62 0.96 1.25 1.63 1.56 1.41 1.28 1.14 1.16 1.28 1.25 1.29 1.42 1.60 1.73 1.93 2.25 2.61 2.87 3.01 3.22 3.42 3.64 3.73 3.72 3.83 3.76 3.51 3.21 2.88 2.58 2.32 2.06 1.92 1.88 1.85 1.79 1.75 1.82 1.98 2.05 2.01 2.03 2.08
0.09 0.11 0.16 0.28 0.59 0.87 1.12 1.59 1.94 2.01 1.90 1.76 1.42 1.30 1.24 1.26 1.27 1.31 1.46 1.65 1.75 1.83 2.18 2.51 2.59 2.71 2.80 2.90 2.96 2.89 2.95 2.86 2.79 2.62 2.39 2.12 1.95 1.72 1.62 1.58 1.59 1.61 1.59 1.63 1.70 1.79 1.81 1.79 1.79
0.13 0.14 0.18 0.29 0.43 0.83 1.24 1.82 2.00 2.25 2.34 2.20 1.82 1.63 1.56 1.49 1.40 1.38 1.45 1.53 1.64 1.78 1.95 2.20 2.40 2.41 2.44 2.56 2.55 2.47 2.53 2.51 2.48 2.37 2.20 2.04 1.97 1.80 1.66 1.56 1.60 1.62 1.55 1.53 1.56 1.53 1.58 1.67 1.70
0.13 0.17 0.26 0.49 0.54 0.59 1.08 2.01 2.27 2.38 2.32 2.05 1.87 1.72 1.64 1.54 1.38 1.35 1.34 1.33 1.41 1.63 1.86 2.03 2.16 2.17 2.21 2.29 2.36 2.45 2.48 2.40 2.28 2.09 1.97 1.84 1.72 1.55 1.48 1.45 1.50 1.48 1.36 1.35 1.33 1.27 1.31 1.41 1.51

GEFSSGP_prec_meanprecacc_264.txt.gz
Total_Precipitation_Accumulation
0.02 0.02 0.02 0.04 0.11 0.20 0.36 0.40 0.37 0.37 0.41 0.33 0.30 0.33 0.47 0.62 0.84 1.51 0.96 0.54 0.35 0.26 0.30 0.26 0.32 0.26 0.22 0.24 0.27 0.34 0.43 0.42 0.43 0.39 0.34 0.34 0.34 0.31 0.32 0.34 0.37 0.45 0.54 0.52 0.53 0.58 0.62 0.64 0.65
0.03 0.03 0.04 0.07 0.15 0.31 0.46 0.40 0.40 0.37 0.36 0.35 0.33 0.33 0.39 0.51 0.42 0.49 0.43 0.42 0.36 0.25 0.27 0.24 0.28 0.31 0.25 0.24 0.27 0.36 0.45 0.44 0.49 0.44 0.38 0.38 0.36 0.37 0.38 0.42 0.43 0.52 0.60 0.62 0.62 0.62 0.65 0.64 0.62
0.02 0.03 0.04 0.08 0.17 0.30 0.47 0.40 0.44 0.40 0.36 0.36 0.43 0.47 0.51 0.64 0.58 0.55 0.49 0.45 0.40 0.31 0.28 0.26 0.27 0.29 0.28 0.28 0.29 0.40 0.48 0.47 0.55 0.50 0.45 0.44 0.44 0.42 0.42 0.45 0.47 0.51 0.59 0.60 0.57 0.54 0.57 0.64 0.63
0.02 0.03 0.05 0.13 0.24 0.23 0.35 0.39 0.42 0.45 0.43 0.41 0.45 0.61 0.61 0.60 0.58 0.58 0.55 0.55 0.45 0.39 0.33 0.26 0.29 0.29 0.33 0.35 0.36 0.48 0.48 0.52 0.60 0.58 0.56 0.54 0.54 0.52 0.50 0.54 0.55 0.54 0.59 0.60 0.60 0.61 0.61 0.66 0.69
0.02 0.04 0.07 0.19 0.24 0.21 0.29 0.37 0.51 0.54 0.53 0.48 0.53 0.80 0.99 0.89 0.81 0.75 0.61 0.56 0.58 0.47 0.39 0.30 0.32 0.37 0.42 0.46 0.47 0.61 0.58 0.63 0.71 0.76 0.71 0.64 0.62 0.59 0.57 0.59 0.62 0.61 0.61 0.62 0.63 0.68 0.67 0.67 0.70
0.01 0.04 0.13 0.23 0.23 0.22 0.29 0.39 0.48 0.50 0.43 0.42 0.58 1.00 1.49 1.30 1.02 1.09 0.95 0.69 0.66 0.53 0.44 0.38 0.37 0.49 0.61 0.65 0.62 0.72 0.68 0.73 0.80 0.86 0.82 0.73 0.67 0.60 0.59 0.61 0.65 0.69 0.72 0.69 0.64 0.62 0.61 0.65 0.71
0.01 0.05 0.14 0.21 0.29 0.29 0.32 0.39 0.50 0.44 0.41 0.55 0.81 1.21 1.63 1.50 1.21 1.26 1.20 0.92 0.81 0.66 0.54 0.47 0.44 0.56 0.76 0.86 0.78 0.78 0.73 0.77 0.85 0.96 0.96 0.84 0.74 0.67 0.65 0.69 0.73 0.75 0.75 0.68 0.62 0.62 0.64 0.64 0.68
0.01 0.03 0.10 0.18 0.35 0.38 0.34 0.40 0.46 0.42 0.50 0.71 0.93 1.16 1.48 1.52 1.30 1.18 1.14 1.10 1.04 0.99 0.79 0.68 0.68 0.72 0.81 0.84 0.88 0.85 0.81 0.87 0.94 1.00 0.99 0.93 0.84 0.77 0.77 0.73 0.79 0.77 0.79 0.78 0.76 0.75 0.74 0.71 0.71
0.02 0.05 0.11 0.20 0.35 0.41 0.37 0.38 0.38 0.39 0.47 0.73 0.83 0.85 1.16 1.31 1.23 1.27 1.25 1.16 1.16 1.15 1.21 1.12 0.98 0.96 0.97 0.94 0.94 1.00 0.96 0.95 0.99 1.02 0.98 0.95 0.96 1.06 1.02 0.87 0.91 0.92 0.99 1.05 1.00 0.94 0.93 0.88 0.88
0.03 0.10 0.13 0.17 0.22 0.29 0.36 0.39 0.36 0.41 0.46 0.67 0.97 0.94 0.92 1.11 1.30 1.43 1.47 1.38 1.35 1.38 1.50 1.50 1.44 1.39 1.33 1.25 1.36 1.37 1.18 1.10 1.08 1.19 1.10 1.07 1.35 1.46 1.29 1.35 1.32 1.30 1.29 1.29 1.28 1.19 1.09 1.01 0.93
0.05 0.10 0.14 0.20 0.16 0.21 0.28 0.33 0.32 0.44 0.63 0.69 1.03 1.35 1.19 1.28 1.61 1.91 1.77 1.73 1.78 1.75 1.57 1.47 1.60 1.70 1.82 1.93 1.77 1.70 1.65 1.62 1.55 1.64 1.56 1.59 1.80 1.73 1.74 1.80 1.66 1.55 1.53 1.51 1.64 1.47 1.13 1.01 1.09
0.07 0.10 0.15 0.17 0.13 0.15 0.19 0.29 0.37 0.50 0.80 0.91 1.11 1.35 1.71 1.70 1.91 2.01 2.08 2.06 2.02 2.05 1.90 1.68 1.63 1.70 1.90 2.10 2.06 1.96 1.90 1.89 1.84 1.88 1.72 1.94 2.14 2.22 2.24 2.29 2.07 1.99 1.97 2.04 2.03 1.91 1.60 1.40 1.36
0.09 0.09 0.11 0.15 0.12 0.12 0.19 0.31 0.35 0.45 0.58 0.77 0.99 1.21 1.63 1.70 1.73 2.03 2.32 2.57 2.58 2.44 2.32 2.15 1.92 1.88 2.03 2.28 2.41 2.29 2.28 2.24 2.35 2.45 2.21 2.23 2.27 2.35 2.65 2.65 2.81 2.48 2.44 2.52 2.46 2.26 2.15 1.95 1.76
0.08 0.07 0.08 0.12 0.12 0.13 0.19 0.26 0.32 0.37 0.49 0.59 0.70 0.94 1.25 1.47 1.70 2.17 2.53 2.85 3.18 3.04 2.74 2.50 2.32 2.16 2.16 2.27 2.55 2.61 2.46 2.55 2.67 2.76 2.62 2.59 2.65 2.77 3.12 3.24 3.23 2.99 3.04 3.22 3.26 3.03 2.76 2.50 2.40
0.06 0.07 0.09 0.09 0.13 0.12 0.16 0.29 0.34 0.43 0.46 0.53 0.61 0.80 1.15 1.56 1.82 2.41 2.85 3.10 3.46 3.23 3.11 2.89 2.76 2.71 2.52 2.50 2.76 2.85 2.76 2.71 2.75 2.94 2.99 2.93 3.00 3.31 3.44 3.74 3.70 3.47 3.49 3.52 3.50 3.72 3.65 3.13 2.78
0.09 0.11 0.14 0.12 0.11 0.10 0.14 0.31 0.41 0.45 0.51 0.58 0.68 0.87 1.16 1.51 1.84 2.14 2.48 2.80 3.32 3.40 3.17 3.08 2.78 2.73 2.95 2.97 3.26 3.18 3.25 3.38 3.29 3.31 3.51 3.50 3.53 3.66 3.72 3.75 3.83 3.73 3.73 4.01 4.12 4.08 3.97 3.69 3.31
0.11 0.11 0.12 0.15 0.12 0.10 0.11 0.26 0.44 0.43 0.45 0.60 0.72 1.02 1.41 1.52 1.80 1.89 2.20 2.46 2.83 2.89 2.95 3.07 3.00 2.95 3.01 3.21 3.58 3.71 3.88 4.06 4.25 4.28 4.47 4.37 4.17 4.12 4.20 4.17 4.28 4.14 4.19 4.16 4.04 4.39 4.28 4.11 3.71
0.06 0.08 0.09 0.13 0.11 0.11 0.11 0.20 0.44 0.54 0.56 0.67 0.75 0.93 1.26 1.39 1.82 2.04 2.19 2.21 2.58 2.83 2.95 3.10 3.27 3.48 3.43 3.46 3.68 4.11 4.33 4.47 4.84 4.90 4.93 5.01 5.00 4.85 4.87 4.82 4.82 4.67 4.54 4.43 4.39 4.42 4.21 4.08 3.80
0.05 0.07 0.08 0.10 0.10 0.12 0.17 0.26 0.42 0.57 0.65 0.80 0.97 1.04 1.09 1.29 1.80 2.24 2.36 2.41 2.71 2.97 3.14 3.11 3.32 3.70 3.93 4.29 4.26 4.45 4.90 5.25 5.38 5.47 5.46 5.37 5.30 5.31 5.14 4.99 5.09 4.94 4.69 4.45 4.38 4.35 4.25 3.92 3.83
0.03 0.06 0.09 0.12 0.14 0.15 0.22 0.35 0.45 0.58 0.68 0.86 1.07 1.12 1.11 1.30 1.65 2.09 2.28 2.58 2.83 2.99 3.23 3.35 3.49 3.97 4.44 4.97 5.47 5.86 6.20 6.19 6.30 6.25 6.15 5.85 5.66 5.57 5.40 5.38 5.22 4.99 4.83 4.56 4.37 4.33 4.23 3.89 3.85
0.04 0.05 0.08 0.11 0.16 0.20 0.27 0.48 0.58 0.68 0.78 0.88 1.01 1.07 1.16 1.41 1.74 1.96 2.17 2.45 2.69 2.95 3.20 3.36 3.72 4.38 5.20 5.73 6.20 6.75 7.05 6.73 6.45 6.17 6.10 6.02 5.95 5.84 5.69 5.66 5.40 5.16 4.89 4.54 4.27 4.13 4.03 3.89 3.86
0.06 0.06 0.07 0.10 0.17 0.29 0.32 0.60 0.87 0.96 1.06 1.00 1.08 1.24 1.37 1.53 1.71 1.92 2.09 2.30 2.58 2.94 3.09 3.31 3.97 4.70 5.35 5.92 6.54 7.13 7.41 7.43 7.21 6.65 6.17 5.77 5.49 5.27 5.14 5.09 4.94 4.75 4.45 4.20 3.91 3.80 3.74 3.85 3.70
0.05 0.05 0.07 0.10 0.17 0.28 0.33 0.60 1.11 1.30 1.36 1.34 1.41 1.46 1.47 1.49 1.63 1.80 1.96 2.14 2.27 2.62 3.13 3.49 4.09 4.78 5.42 6.18 6.93 7.38 7.62 7.60 7.23 6.43 5.66 5.11 4.80 4.52 4.28 4.20 4.12 3.98 3.78 3.59 3.50 3.51 3.45 3.41 3.27
0.05 0.08 0.11 0.16 0.23 0.37 0.36 0.58 1.22 1.57 1.73 1.71 1.63 1.64 1.57 1.45 1.44 1.51 1.72 1.87 2.17 2.55 2.97 3.46 3.77 4.38 5.07 5.69 6.28 6.51 6.71 6.64 6.21 5.78 5.29 4.88 4.36 3.90 3.54 3.38 3.29 3.15 3.04 3.04 3.05 3.10 3.07 3.08 3.04
0.07 0.14 0.32 0.47 0.52 0.47 0.36 0.62 1.25 1.55 1.51 1.51 1.52 1.57 1.53 1.35 1.37 1.58 1.85 1.85 2.13 2.45 2.84 3.30 3.68 4.05 4.57 5.13 5.63 5.89 6.06 5.96 5.47 5.03 4.61 4.21 3.72 3.31 2.98 2.77 2.71 2.64 2.60 2.60 2.72 2.81 2.75 2.69 2.71
0.07 0.14 0.37 0.60 0.62 0.61 0.56 0.94 1.42 1.46 1.33 1.23 1.21 1.25 1.38 1.42 1.45 1.55 1.69 1.78 2.09 2.34 2.62 3.03 3.36 3.72 3.95 4.19 4.59 4.84 5.01 4.88 4.55 4.09 3.63 3.33 3.03 2.70 2.50 2.37 2.28 2.20 2.12 2.11 2.26 2.40 2.47 2.43 2.45
0.09 0.13 0.21 0.28 0.35 0.62 0.96 1.25 1.63 1.56 1.42 1.29 1.15 1.17 1.28 1.25 1.29 1.43 1.61 1.74 1.94 2.25 2.62 2.88 3.03 3.24 3.43 3.66 3.76 3.76 3.87 3.80 3.57 3.28 2.98 2.68 2.39 2.10 1.97 1.93 1.89 1.84 1.80 1.86 2.02 2.09 2.06 2.08 2.14
0.09 0.12 0.16 0.29 0.60 0.87 1.12 1.60 1.94 2.02 1.90 1.76 1.42 1.30 1.24 1.27 1.28 1.32 1.47 1.66 1.76 1.85 2.20 2.53 2.62 2.75 2.84 2.94 3.00 2.93 2.99 2.90 2.85 2.67 2.44 2.18 2.01 1.78 1.68 1.64 1.65 1.67 1.63 1.67 1.73 1.82 1.85 1.83 1.83
0.13 0.15 0.19 0.30 0.44 0.84 1.24 1.83 2.00 2.25 2.34 2.20 1.82 1.63 1.57 1.50 1.42 1.40 1.47 1.54 1.67 1.81 1.99 2.23 2.44 2.45 2.49 2.62 2.60 2.51 2.57 2.55 2.53 2.41 2.25 2.10 2.03 1.87 1.73 1.62 1.67 1.68 1.60 1.57 1.60 1.58 1.63 1.72 1.74
0.13 0.18 0.27 0.50 0.54 0.60 1.09 2.02 2.27 2.39 2.32 2.06 1.87 1.73 1.64 1.55 1.40 1.37 1.37 1.36 1.44 1.67 1.90 2.06 2.19 2.20 2.26 2.34 2.42 2.51 2.53 2.44 2.32 2.13 2.02 1.90 1.79 1.63 1.55 1.51 1.57 1.54 1.42 1.41 1.38 1.32 1.36 1.46 1.56

GEFSSGP_prec_meanprecacc_270.txt.gz
Total_Precipitation_Accumulation
0.03 0.02 0.03 0.04 0.11 0.21 0.37 0.41 0.37 0.37 0.41 0.33 0.30 0.33 0.48 0.63 0.85 1.53 0.96 0.54 0.35 0.26 0.30 0.26 0.32 0.28 0.24 0.26 0.29 0.36 0.46 0.45 0.46 0.42 0.38 0.38 0.37 0.35 0.36 0.38 0.40 0.48 0.58 0.58 0.61 0.69 0.74 0.75 0.74
0.03 0.04 0.05 0.07 0.15 0.32 0.47 0.41 0.40 0.37 0.36 0.35 0.33 0.34 0.40 0.51 0.42 0.50 0.43 0.43 0.36 0.26 0.27 0.24 0.28 0.31 0.26 0.26 0.29 0.38 0.48 0.47 0.53 0.48 0.43 0.42 0.40 0.40 0.42 0.45 0.46 0.55 0.63 0.66 0.68 0.71 0.75 0.72 0.70
0.02 0.03 0.05 0.09 0.17 0.31 0.48 0.41 0.44 0.40 0.36 0.36 0.43 0.47 0.53 0.64 0.58 0.56 0.49 0.45 0.41 0.32 0.28 0.26 0.27 0.30 0.30 0.29 0.31 0.42 0.50 0.50 0.58 0.55 0.52 0.51 0.49 0.46 0.45 0.48 0.49 0.55 0.64 0.65 0.62 0.60 0.63 0.70 0.71
0.02 0.03 0.05 0.13 0.25 0.23 0.35 0.39 0.42 0.45 0.43 0.41 0.46 0.62 0.62 0.61 0.58 0.58 0.55 0.55 0.46 0.40 0.33 0.26 0.29 0.30 0.35 0.37 0.38 0.50 0.51 0.55 0.64 0.63 0.63 0.61 0.62 0.58 0.53 0.57 0.60 0.58 0.64 0.65 0.65 0.67 0.67 0.71 0.76
0.02 0.04 0.08 0.19 0.24 0.22 0.29 0.37 0.51 0.54 0.53 0.48 0.53 0.81 1.00 0.89 0.81 0.75 0.61 0.56 0.58 0.48 0.40 0.30 0.33 0.39 0.45 0.49 0.50 0.64 0.61 0.65 0.75 0.80 0.76 0.69 0.69 0.65 0.62 0.65 0.68 0.66 0.65 0.66 0.69 0.75 0.74 0.73 0.79
0.02 0.05 0.14 0.24 0.23 0.22 0.29 0.39 0.48 0.50 0.44 0.42 0.58 1.00 1.50 1.30 1.02 1.09 0.95 0.69 0.67 0.54 0.45 0.39 0.39 0.53 0.65 0.67 0.65 0.76 0.72 0.76 0.84 0.90 0.86 0.77 0.71 0.66 0.65 0.68 0.71 0.75 0.78 0.73 0.69 0.68 0.67 0.73 0.82
0.01 0.05 0.14 0.22 0.29 0.29 0.33 0.39 0.50 0.45 0.42 0.55 0.81 1.21 1.63 1.50 1.22 1.26 1.20 0.92 0.82 0.67 0.54 0.48 0.47 0.65 0.88 0.91 0.82 0.82 0.77 0.80 0.89 1.01 1.01 0.89 0.79 0.72 0.70 0.74 0.78 0.82 0.81 0.73 0.66 0.66 0.68 0.70 0.76
0.02 0.03 0.10 0.19 0.35 0.38 0.34 0.40 0.46 0.42 0.50 0.71 0.93 1.16 1.48 1.52 1.30 1.18 1.14 1.10 1.04 0.99 0.80 0.70 0.70 0.78 0.88 0.90 0.93 0.89 0.84 0.91 0.98 1.05 1.07 0.99 0.90 0.83 0.82 0.79 0.84 0.83 0.87 0.85 0.81 0.79 0.79 0.77 0.77
0.02 0.05 0.11 0.20 0.35 0.41 0.37 0.38 0.38 0.39 0.47 0.73 0.83 0.85 1.16 1.31 1.24 1.28 1.25 1.16 1.16 1.15 1.21 1.13 1.00 0.98 1.00 0.97 0.98 1.04 1.00 1.00 1.03 1.06 1.05 1.01 1.02 1.13 1.07 0.92 0.97 0.98 1.06 1.13 1.07 1.01 0.98 0.93 0.93
0.04 0.10 0.13 0.17 0.22 0.29 0.36 0.39 0.36 0.41 0.46 0.67 0.97 0.94 0.92 1.11 1.31 1.44 1.49 1.39 1.36 1.39 1.51 1.51 1.46 1.41 1.35 1.27 1.40 1.41 1.22 1.13 1.11 1.22 1.14 1.12 1.39 1.50 1.33 1.40 1.40 1.38 1.36 1.38 1.35 1.25 1.15 1.07 0.98
0.05 0.10 0.14 0.20 0.16 0.21 0.28 0.33 0.32 0.44 0.63 0.69 1.03 1.35 1.19 1.28 1.62 1.93 1.80 1.78 1.81 1.77 1.58 1.49 1.63 1.73 1.85 1.96 1.80 1.74 1.70 1.66 1.58 1.68 1.60 1.62 1.84 1.77 1.77 1.84 1.71 1.61 1.61 1.61 1.72 1.53 1.19 1.07 1.15
0.07 0.10 0.15 0.17 0.13 0.15 0.19 0.29 0.37 0.51 0.81 0.91 1.11 1.35 1.71 1.70 1.91 2.03 2.12 2.12 2.08 2.12 1.95 1.71 1.68 1.74 1.93 2.13 2.10 2.01 1.95 1.93 1.88 1.92 1.77 1.97 2.17 2.25 2.26 2.32 2.10 2.03 2.02 2.11 2.10 1.98 1.66 1.45 1.39
0.09 0.09 0.11 0.15 0.12 0.12 0.19 0.31 0.36 0.45 0.59 0.77 0.99 1.21 1.63 1.70 1.73 2.03 2.33 2.60 2.62 2.48 2.36 2.18 1.95 1.90 2.05 2.31 2.44 2.33 2.34 2.29 2.39 2.49 2.24 2.26 2.29 2.37 2.67 2.67 2.85 2.51 2.47 2.56 2.52 2.30 2.17 1.97 1.78
0.08 0.08 0.08 0.12 0.12 0.13 0.19 0.27 0.33 0.37 0.49 0.59 0.70 0.94 1.25 1.47 1.71 2.18 2.55 2.87 3.20 3.05 2.76 2.51 2.34 2.18 2.19 2.31 2.58 2.65 2.51 2.60 2.72 2.82 2.66 2.62 2.67 2.79 3.13 3.25 3.25 3.02 3.07 3.25 3.29 3.06 2.78 2.52 2.42
0.06 0.07 0.09 0.09 0.13 0.12 0.16 0.29 0.35 0.43 0.46 0.53 0.61 0.80 1.15 1.56 1.83 2.41 2.86 3.11 3.47 3.24 3.13 2.91 2.78 2.72 2.55 2.54 2.80 2.89 2.81 2.77 2.82 3.00 3.05 2.98 3.03 3.33 3.46 3.77 3.72 3.49 3.51 3.56 3.54 3.75 3.68 3.15 2.80
0.09 0.11 0.14 0.12 0.11 0.10 0.14 0.31 0.41 0.45 0.51 0.59 0.68 0.87 1.17 1.52 1.84 2.14 2.49 2.81 3.33 3.42 3.18 3.10 2.79 2.75 2.97 3.00 3.29 3.22 3.29 3.42 3.35 3.39 3.57 3.56 3.57 3.70 3.76 3.78 3.85 3.76 3.75 4.05 4.16 4.11 4.00 3.72 3.35
0.11 0.11 0.12 0.15 0.12 0.10 0.11 0.26 0.44 0.43 0.46 0.60 0.72 1.03 1.42 1.53 1.81 1.90 2.21 2.47 2.85 2.91 2.97 3.09 3.01 2.96 3.03 3.23 3.61 3.74 3.91 4.10 4.29 4.34 4.53 4.44 4.24 4.17 4.24 4.20 4.32 4.17 4.22 4.20 4.07 4.43 4.32 4.15 3.76
0.06 0.08 0.09 0.13 0.12 0.11 0.11 0.20 0.44 0.54 0.56 0.67 0.75 0.93 1.27 1.40 1.83 2.05 2.20 2.23 2.60 2.85 2.98 3.12 3.29 3.50 3.46 3.50 3.73 4.16 4.38 4.52 4.89 4.95 4.98 5.06 5.05 4.90 4.89 4.85 4.85 4.71 4.58 4.47 4.43 4.47 4.26 4.13 3.86
0.05 0.07 0.09 0.10 0.10 0.12 0.17 0.26 0.42 0.57 0.65 0.80 0.97 1.04 1.10 1.30 1.82 2.25 2.38 2.43 2.74 3.00 3.17 3.13 3.33 3.72 3.96 4.33 4.33 4.52 4.98 5.31 5.41 5.51 5.51 5.43 5.35 5.35 5.18 5.01 5.12 4.97 4.73 4.50 4.43 4.40 4.30 3.97 3.88
0.03 0.06 0.09 0.12 0.14 0.15 0.22 0.35 0.45 0.58 0.68 0.86 1.07 1.13 1.11 1.31 1.68 2.10 2.30 2.61 2.87 3.02 3.26 3.37 3.50 3.99 4.47 5.03 5.56 5.93 6.29 6.28 6.36 6.30 6.19 5.89 5.71 5.62 5.44 5.41 5.25 5.03 4.88 4.62 4.43 4.38 4.29 3.95 3.91
0.04 0.05 0.08 0.11 0.16 0.20 0.27 0.48 0.58 0.68 0.78 0.88 1.01 1.07 1.17 1.41 1.75 1.97 2.18 2.46 2.72 2.98 3.24 3.38 3.73 4.40 5.24 5.78 6.27 6.81 7.11 6.80 6.51 6.22 6.14 6.06 5.99 5.89 5.74 5.70 5.44 5.20 4.92 4.57 4.32 4.19 4.09 3.95 3.94
0.06 0.06 0.07 0.10 0.17 0.29 0.32 0.60 0.87 0.96 1.06 1.00 1.08 1.24 1.38 1.54 1.72 1.92 2.09 2.31 2.60 2.97 3.12 3.33 3.98 4.71 5.37 5.95 6.59 7.19 7.47 7.50 7.26 6.69 6.20 5.79 5.51 5.30 5.19 5.13 4.98 4.78 4.49 4.24 3.96 3.86 3.80 3.94 3.78
0.05 0.05 0.07 0.10 0.17 0.28 0.33 0.60 1.11 1.30 1.36 1.35 1.42 1.46 1.48 1.50 1.64 1.81 1.96 2.14 2.28 2.64 3.14 3.50 4.10 4.80 5.44 6.20 6.96 7.43 7.66 7.64 7.26 6.47 5.69 5.13 4.83 4.56 4.34 4.25 4.16 4.02 3.82 3.64 3.55 3.57 3.52 3.47 3.33
0.05 0.08 0.11 0.16 0.23 0.37 0.36 0.58 1.22 1.57 1.73 1.71 1.65 1.65 1.58 1.46 1.45 1.52 1.72 1.88 2.18 2.56 2.97 3.47 3.79 4.39 5.08 5.70 6.29 6.54 6.73 6.66 6.23 5.81 5.32 4.90 4.39 3.95 3.60 3.43 3.35 3.20 3.08 3.08 3.10 3.15 3.12 3.13 3.10
0.07 0.15 0.33 0.48 0.53 0.48 0.36 0.62 1.25 1.55 1.51 1.51 1.52 1.58 1.53 1.36 1.38 1.59 1.86 1.86 2.14 2.45 2.84 3.31 3.71 4.07 4.58 5.14 5.65 5.90 6.08 5.98 5.48 5.05 4.62 4.23 3.74 3.36 3.04 2.83 2.77 2.68 2.63 2.64 2.76 2.85 2.79 2.74 2.77
0.07 0.15 0.39 0.61 0.63 0.61 0.56 0.94 1.42 1.46 1.33 1.23 1.21 1.25 1.39 1.42 1.45 1.56 1.70 1.79 2.10 2.35 2.62 3.05 3.38 3.74 3.96 4.21 4.60 4.86 5.03 4.90 4.57 4.11 3.64 3.35 3.06 2.74 2.54 2.40 2.32 2.24 2.16 2.15 2.31 2.46 2.52 2.48 2.49
0.10 0.14 0.22 0.29 0.36 0.63 0.97 1.26 1.63 1.56 1.42 1.29 1.15 1.17 1.28 1.26 1.30 1.44 1.62 1.75 1.95 2.27 2.63 2.89 3.05 3.26 3.46 3.69 3.78 3.78 3.90 3.83 3.59 3.31 3.00 2.71 2.42 2.13 1.99 1.95 1.93 1.88 1.85 1.91 2.06 2.13 2.10 2.13 2.18
0.10 0.13 0.17 0.30 0.61 0.88 1.13 1.61 1.95 2.02 1.90 1.76 1.43 1.31 1.25 1.28 1.28 1.33 1.48 1.68 1.77 1.87 2.22 2.56 2.65 2.78 2.87 2.97 3.04 2.97 3.04 2.94 2.88 2.71 2.47 2.21 2.04 1.81 1.71 1.68 1.69 1.71 1.67 1.71 1.78 1.87 1.89 1.88 1.88
0.14 0.15 0.20 0.31 0.45 0.85 1.25 1.84 2.01 2.26 2.34 2.20 1.82 1.64 1.57 1.51 1.42 1.41 1.49 1.56 1.69 1.83 2.01 2.27 2.49 2.51 2.53 2.65 2.64 2.55 2.61 2.59 2.57 2.45 2.29 2.14 2.07 1.91 1.77 1.66 1.71 1.71 1.64 1.61 1.66 1.64 1.68 1.76 1.79
0.14 0.18 0.27 0.51 0.55 0.61 1.10 2.02 2.28 2.39 2.33 2.06 1.87 1.73 1.65 1.56 1.41 1.39 1.39 1.38 1.46 1.69 1.93 2.10 2.24 2.26 2.31 2.39 2.46 2.55 2.56 2.48 2.35 2.17 2.05 1.93 1.82 1.66 1.58 1.54 1.60 1.58 1.47 1.45 1.42 1.36 1.40 1.50 1.60

GEFSSGP_prec_meanprecacc_276.txt.gz
Total_Precipitation_Accumulation
0.03 0.02 0.03 0.04 0.12 0.24 0.41 0.41 0.37 0.37 0.41 0.33 0.30 0.33 0.48 0.64 0.87 1.58 0.97 0.54 0.35 0.26 0.30 0.26 0.32 0.28 0.24 0.26 0.30 0.37 0.48 0.48 0.50 0.48 0.44 0.42 0.43 0.40 0.40 0.41 0.44 0.53 0.67 0.69 0.71 0.77 0.86 0.86 0.85
0.03 0.04 0.05 0.08 0.17 0.36 0.50 0.41 0.41 0.37 0.36 0.35 0.33 0.34 0.40 0.51 0.43 0.50 0.43 0.43 0.36 0.26 0.27 0.24 0.28 0.31 0.26 0.26 0.30 0.39 0.50 0.51 0.57 0.52 0.48 0.47 0.45 0.46 0.46 0.49 0.50 0.60 0.70 0.75 0.80 0.81 0.83 0.82 0.81
0.02 0.03 0.05 0.09 0.19 0.33 0.51 0.41 0.45 0.40 0.36 0.36 0.43 0.47 0.53 0.64 0.58 0.56 0.49 0.46 0.41 0.33 0.29 0.26 0.27 0.30 0.30 0.30 0.31 0.43 0.53 0.54 0.62 0.59 0.57 0.58 0.56 0.51 0.48 0.51 0.54 0.60 0.71 0.74 0.72 0.71 0.72 0.77 0.79
0.02 0.03 0.05 0.14 0.26 0.25 0.38 0.41 0.42 0.45 0.43 0.41 0.46 0.62 0.63 0.61 0.58 0.58 0.55 0.55 0.47 0.42 0.35 0.27 0.29 0.31 0.36 0.37 0.39 0.51 0.53 0.60 0.69 0.68 0.69 0.69 0.69 0.63 0.58 0.62 0.64 0.63 0.70 0.73 0.75 0.76 0.75 0.78 0.83
0.02 0.04 0.09 0.20 0.25 0.22 0.30 0.39 0.54 0.56 0.54 0.48 0.53 0.81 1.01 0.90 0.81 0.75 0.61 0.57 0.60 0.50 0.41 0.31 0.33 0.40 0.46 0.50 0.52 0.66 0.63 0.69 0.79 0.85 0.82 0.77 0.75 0.71 0.67 0.71 0.74 0.73 0.71 0.73 0.78 0.84 0.81 0.80 0.88
0.02 0.05 0.15 0.25 0.24 0.23 0.29 0.40 0.49 0.53 0.45 0.42 0.58 1.01 1.52 1.30 1.02 1.09 0.96 0.71 0.68 0.54 0.45 0.39 0.39 0.53 0.66 0.69 0.67 0.78 0.74 0.79 0.88 0.96 0.93 0.84 0.75 0.70 0.69 0.73 0.75 0.80 0.84 0.79 0.75 0.75 0.75 0.81 0.91
0.02 0.06 0.15 0.22 0.30 0.30 0.33 0.39 0.50 0.45 0.42 0.55 0.81 1.23 1.65 1.50 1.22 1.26 1.21 0.94 0.83 0.67 0.54 0.48 0.47 0.65 0.88 0.92 0.83 0.83 0.80 0.84 0.94 1.07 1.08 0.95 0.83 0.74 0.74 0.79 0.81 0.87 0.87 0.78 0.70 0.71 0.73 0.76 0.82
0.02 0.04 0.11 0.19 0.36 0.38 0.34 0.40 0.46 0.43 0.51 0.72 0.94 1.19 1.50 1.53 1.30 1.18 1.14 1.10 1.05 1.00 0.81 0.70 0.70 0.79 0.89 0.91 0.94 0.90 0.87 0.96 1.03 1.10 1.12 1.05 0.95 0.86 0.86 0.83 0.87 0.88 0.92 0.89 0.84 0.83 0.83 0.80 0.81
0.02 0.05 0.12 0.20 0.36 0.41 0.37 0.38 0.38 0.39 0.48 0.74 0.83 0.86 1.17 1.31 1.24 1.28 1.25 1.17 1.17 1.17 1.23 1.14 1.01 1.00 1.01 0.99 1.00 1.05 1.03 1.04 1.08 1.11 1.09 1.05 1.06 1.16 1.11 0.96 1.00 1.02 1.11 1.17 1.10 1.05 1.03 0.97 0.97
0.04 0.11 0.13 0.17 0.23 0.29 0.36 0.39 0.37 0.41 0.46 0.67 0.97 0.94 0.92 1.11 1.31 1.45 1.50 1.40 1.37 1.41 1.54 1.56 1.51 1.43 1.37 1.29 1.42 1.44 1.25 1.17 1.15 1.27 1.17 1.16 1.43 1.53 1.36 1.43 1.43 1.42 1.41 1.42 1.38 1.29 1.20 1.13 1.05
0.05 0.11 0.15 0.20 0.16 0.21 0.28 0.33 0.33 0.45 0.63 0.70 1.03 1.35 1.19 1.28 1.62 1.93 1.81 1.81 1.86 1.81 1.62 1.56 1.73 1.76 1.87 1.99 1.83 1.77 1.73 1.70 1.64 1.74 1.65 1.68 1.88 1.81 1.82 1.88 1.75 1.65 1.64 1.64 1.75 1.57 1.24 1.15 1.29
0.07 0.10 0.15 0.18 0.13 0.15 0.19 0.29 0.37 0.51 0.82 0.93 1.15 1.36 1.71 1.70 1.92 2.03 2.12 2.15 2.11 2.15 1.97 1.75 1.78 1.81 1.96 2.16 2.14 2.05 1.99 1.98 1.94 1.99 1.83 2.02 2.22 2.30 2.30 2.35 2.13 2.07 2.06 2.16 2.15 2.03 1.71 1.50 1.45
0.09 0.10 0.11 0.15 0.12 0.12 0.19 0.31 0.36 0.45 0.59 0.80 1.05 1.23 1.63 1.70 1.73 2.04 2.34 2.62 2.64 2.49 2.37 2.19 1.98 1.94 2.08 2.35 2.49 2.39 2.40 2.35 2.45 2.55 2.29 2.30 2.33 2.42 2.73 2.72 2.89 2.55 2.51 2.61 2.58 2.36 2.22 2.02 1.82
0.08 0.08 0.08 0.13 0.12 0.13 0.19 0.27 0.33 0.38 0.49 0.60 0.71 0.94 1.25 1.47 1.71 2.18 2.56 2.89 3.24 3.08 2.77 2.52 2.35 2.20 2.21 2.34 2.62 2.69 2.55 2.66 2.78 2.88 2.70 2.67 2.73 2.85 3.19 3.30 3.30 3.07 3.11 3.29 3.34 3.12 2.85 2.58 2.47
0.06 0.07 0.09 0.09 0.13 0.12 0.16 0.29 0.35 0.43 0.47 0.53 0.61 0.81 1.15 1.56 1.83 2.42 2.87 3.13 3.49 3.26 3.15 2.92 2.79 2.75 2.58 2.56 2.83 2.94 2.85 2.82 2.89 3.08 3.12 3.03 3.10 3.40 3.53 3.83 3.78 3.56 3.57 3.62 3.59 3.80 3.74 3.21 2.85
0.09 0.11 0.14 0.12 0.11 0.10 0.14 0.32 0.41 0.45 0.51 0.60 0.69 0.88 1.17 1.52 1.84 2.15 2.49 2.81 3.35 3.44 3.21 3.13 2.81 2.78 3.00 3.03 3.32 3.26 3.32 3.47 3.40 3.46 3.66 3.63 3.65 3.75 3.82 3.84 3.91 3.82 3.81 4.10 4.23 4.17 4.06 3.81 3.42
0.11 0.11 0.13 0.15 0.12 0.10 0.11 0.26 0.44 0.43 0.46 0.61 0.73 1.03 1.42 1.53 1.81 1.91 2.21 2.47 2.86 2.93 3.00 3.12 3.05 3.01 3.08 3.28 3.64 3.77 3.95 4.15 4.33 4.39 4.60 4.52 4.31 4.23 4.30 4.27 4.39 4.24 4.29 4.27 4.14 4.52 4.44 4.29 3.88
0.07 0.08 0.09 0.13 0.12 0.11 0.11 0.20 0.44 0.54 0.56 0.67 0.75 0.93 1.27 1.40 1.84 2.06 2.21 2.23 2.61 2.88 3.01 3.17 3.35 3.56 3.52 3.56 3.78 4.22 4.43 4.58 4.95 5.01 5.04 5.13 5.13 4.97 4.97 4.93 4.92 4.78 4.65 4.53 4.50 4.58 4.39 4.25 3.96
0.05 0.07 0.09 0.10 0.10 0.12 0.17 0.26 0.42 0.57 0.65 0.80 0.97 1.04 1.10 1.31 1.83 2.26 2.38 2.44 2.75 3.02 3.19 3.16 3.39 3.79 4.03 4.39 4.37 4.57 5.04 5.37 5.48 5.58 5.57 5.50 5.43 5.43 5.27 5.09 5.19 5.04 4.80 4.56 4.50 4.48 4.40 4.08 4.00
0.03 0.06 0.09 0.12 0.14 0.15 0.22 0.35 0.45 0.58 0.68 0.86 1.07 1.13 1.11 1.32 1.68 2.10 2.30 2.61 2.88 3.04 3.28 3.39 3.54 4.04 4.54 5.09 5.61 5.99 6.37 6.38 6.45 6.37 6.27 5.96 5.77 5.68 5.50 5.50 5.32 5.09 4.96 4.70 4.50 4.46 4.38 4.05 4.03
0.04 0.05 0.08 0.11 0.17 0.21 0.29 0.50 0.58 0.68 0.78 0.88 1.01 1.07 1.17 1.42 1.75 1.97 2.19 2.47 2.73 3.00 3.26 3.41 3.77 4.43 5.28 5.84 6.32 6.87 7.19 6.89 6.60 6.31 6.22 6.12 6.03 5.94 5.81 5.78 5.49 5.25 4.99 4.64 4.38 4.26 4.18 4.04 4.03
0.06 0.06 0.07 0.10 0.17 0.29 0.34 0.63 0.88 0.98 1.07 1.00 1.08 1.24 1.38 1.54 1.72 1.93 2.11 2.32 2.61 3.00 3.15 3.37 4.03 4.75 5.41 6.00 6.63 7.22 7.50 7.53 7.29 6.73 6.24 5.82 5.54 5.34 5.23 5.18 5.02 4.82 4.53 4.29 4.00 3.92 3.88 4.02 3.86
0.05 0.06 0.07 0.10 0.17 0.29 0.33 0.61 1.14 1.35 1.41 1.36 1.42 1.47 1.48 1.50 1.64 1.83 1.99 2.16 2.30 2.67 3.16 3.52 4.13 4.83 5.48 6.23 7.00 7.46 7.69 7.66 7.28 6.50 5.71 5.16 4.86 4.59 4.37 4.29 4.20 4.05 3.86 3.68 3.60 3.63 3.58 3.54 3.40
0.05 0.08 0.12 0.16 0.24 0.38 0.37 0.60 1.26 1.63 1.77 1.73 1.65 1.65 1.58 1.46 1.46 1.56 1.78 1.91 2.20 2.57 2.99 3.49 3.82 4.43 5.12 5.73 6.33 6.56 6.76 6.69 6.26 5.84 5.34 4.94 4.44 3.99 3.63 3.48 3.40 3.25 3.12 3.13 3.15 3.21 3.18 3.20 3.18
0.07 0.16 0.35 0.50 0.55 0.49 0.37 0.64 1.28 1.59 1.53 1.51 1.52 1.58 1.53 1.36 1.38 1.60 1.88 1.88 2.16 2.47 2.85 3.34 3.76 4.11 4.63 5.18 5.69 5.94 6.12 6.02 5.52 5.08 4.67 4.27 3.78 3.40 3.08 2.88 2.81 2.72 2.68 2.68 2.82 2.91 2.85 2.79 2.83
0.07 0.15 0.41 0.64 0.66 0.64 0.59 0.97 1.45 1.47 1.33 1.23 1.21 1.25 1.39 1.42 1.46 1.56 1.71 1.80 2.11 2.37 2.64 3.06 3.42 3.78 4.00 4.24 4.64 4.90 5.08 4.95 4.62 4.16 3.69 3.40 3.11 2.79 2.59 2.44 2.36 2.28 2.21 2.20 2.37 2.51 2.57 2.53 2.54
0.10 0.14 0.23 0.31 0.38 0.65 1.00 1.28 1.65 1.58 1.43 1.30 1.16 1.18 1.30 1.29 1.35 1.47 1.64 1.77 1.97 2.29 2.66 2.92 3.08 3.29 3.50 3.73 3.83 3.83 3.96 3.89 3.67 3.39 3.07 2.78 2.50 2.20 2.04 2.00 1.98 1.93 1.91 1.97 2.13 2.21 2.17 2.21 2.25
0.10 0.13 0.18 0.31 0.63 0.90 1.16 1.65 2.00 2.07 1.95 1.79 1.46 1.33 1.27 1.31 1.34 1.37 1.51 1.71 1.80 1.89 2.25 2.59 2.70 2.81 2.93 3.03 3.10 3.03 3.11 3.03 2.99 2.82 2.57 2.31 2.13 1.89 1.78 1.73 1.77 1.80 1.75 1.79 1.87 1.96 1.98 1.96 1.95
0.15 0.16 0.21 0.33 0.47 0.88 1.30 1.89 2.07 2.38 2.45 2.27 1.86 1.65 1.59 1.55 1.47 1.44 1.50 1.58 1.70 1.85 2.03 2.30 2.54 2.56 2.59 2.72 2.72 2.64 2.71 2.70 2.68 2.55 2.37 2.22 2.16 1.99 1.84 1.72 1.78 1.78 1.70 1.69 1.74 1.72 1.76 1.83 1.87
0.14 0.18 0.28 0.52 0.57 0.64 1.14 2.08 2.37 2.52 2.40 2.09 1.89 1.74 1.65 1.58 1.44 1.41 1.40 1.39 1.48 1.71 1.95 2.13 2.28 2.31 2.37 2.45 2.52 2.61 2.63 2.55 2.42 2.23 2.12 2.01 1.91 1.75 1.66 1.60 1.66 1.65 1.53 1.52 1.49 1.43 1.48 1.58 1.69

GEFSSGP_prec_meanprecacc_282.txt.gz
Total_Precipitation_Accumulation
0.03 0.02 0.03 0.06 0.14 0.30 0.48 0.44 0.40 0.39 0.42 0.34 0.31 0.34 0.49 0.64 0.87 1.59 0.98 0.54 0.36 0.26 0.30 0.26 0.32 0.28 0.24 0.26 0.30 0.38 0.49 0.48 0.51 0.50 0.46 0.44 0.45 0.41 0.41 0.43 0.47 0.57 0.71 0.73 0.74 0.83 0.94 0.96 0.96
0.03 0.04 0.05 0.09 0.20 0.42 0.54 0.43 0.44 0.40 0.37 0.36 0.33 0.34 0.40 0.53 0.43 0.51 0.44 0.43 0.36 0.26 0.27 0.24 0.28 0.31 0.27 0.26 0.30 0.40 0.52 0.53 0.58 0.54 0.49 0.48 0.47 0.47 0.47 0.50 0.53 0.64 0.76 0.82 0.86 0.88 0.90 0.89 0.90
0.02 0.03 0.06 0.13 0.26 0.39 0.54 0.44 0.48 0.43 0.37 0.37 0.43 0.47 0.53 0.65 0.58 0.57 0.50 0.46 0.42 0.33 0.29 0.27 0.27 0.30 0.30 0.30 0.31 0.43 0.54 0.56 0.64 0.60 0.59 0.59 0.57 0.52 0.50 0.53 0.56 0.63 0.76 0.78 0.78 0.78 0.77 0.82 0.85
0.02 0.04 0.07 0.19 0.31 0.29 0.41 0.44 0.44 0.48 0.44 0.41 0.46 0.63 0.64 0.61 0.59 0.59 0.55 0.55 0.47 0.42 0.35 0.27 0.30 0.31 0.36 0.38 0.39 0.51 0.54 0.62 0.70 0.69 0.71 0.71 0.70 0.64 0.59 0.63 0.66 0.66 0.73 0.76 0.78 0.81 0.81 0.84 0.89
0.03 0.05 0.10 0.23 0.28 0.24 0.32 0.41 0.55 0.57 0.55 0.49 0.54 0.83 1.05 0.91 0.82 0.76 0.62 0.57 0.60 0.50 0.42 0.31 0.34 0.40 0.46 0.51 0.53 0.66 0.64 0.70 0.81 0.86 0.84 0.79 0.78 0.73 0.69 0.73 0.76 0.75 0.73 0.75 0.80 0.86 0.85 0.85 0.93
0.02 0.06 0.17 0.27 0.25 0.23 0.31 0.42 0.51 0.55 0.47 0.43 0.59 1.03 1.54 1.31 1.04 1.10 0.98 0.71 0.68 0.55 0.46 0.40 0.40 0.53 0.66 0.69 0.67 0.78 0.74 0.80 0.90 0.98 0.96 0.87 0.78 0.72 0.71 0.75 0.77 0.82 0.85 0.81 0.77 0.77 0.78 0.84 0.95
0.03 0.09 0.18 0.25 0.34 0.33 0.35 0.40 0.51 0.46 0.45 0.57 0.82 1.27 1.69 1.51 1.23 1.26 1.22 0.94 0.83 0.68 0.55 0.49 0.48 0.65 0.88 0.92 0.83 0.84 0.81 0.85 0.96 1.12 1.13 0.98 0.85 0.77 0.76 0.80 0.82 0.88 0.88 0.79 0.72 0.73 0.76 0.80 0.86
0.02 0.06 0.14 0.20 0.38 0.42 0.36 0.41 0.47 0.43 0.52 0.73 0.95 1.25 1.56 1.53 1.31 1.18 1.15 1.11 1.06 1.02 0.82 0.71 0.71 0.80 0.90 0.92 0.94 0.90 0.88 0.97 1.06 1.17 1.18 1.08 0.97 0.88 0.88 0.84 0.88 0.89 0.94 0.90 0.86 0.85 0.85 0.84 0.86
0.02 0.06 0.13 0.22 0.36 0.42 0.38 0.39 0.39 0.40 0.48 0.74 0.84 0.89 1.20 1.32 1.25 1.29 1.26 1.17 1.18 1.18 1.26 1.18 1.07 1.05 1.04 1.00 1.01 1.06 1.05 1.08 1.11 1.18 1.15 1.08 1.07 1.17 1.12 0.97 1.01 1.04 1.14 1.18 1.11 1.07 1.05 0.99 1.01
0.04 0.11 0.14 0.18 0.23 0.30 0.36 0.40 0.37 0.42 0.47 0.67 0.99 0.97 0.96 1.15 1.33 1.46 1.51 1.41 1.38 1.42 1.55 1.58 1.56 1.50 1.42 1.31 1.43 1.44 1.27 1.22 1.19 1.32 1.21 1.17 1.43 1.54 1.37 1.45 1.45 1.45 1.43 1.44 1.40 1.31 1.23 1.16 1.09
0.05 0.11 0.15 0.20 0.16 0.21 0.28 0.33 0.33 0.45 0.64 0.70 1.06 1.41 1.26 1.34 1.65 1.94 1.82 1.82 1.87 1.82 1.63 1.58 1.84 1.94 1.98 2.03 1.85 1.78 1.75 1.73 1.66 1.76 1.66 1.69 1.90 1.81 1.82 1.89 1.77 1.66 1.66 1.66 1.77 1.60 1.26 1.18 1.32
0.08 0.11 0.15 0.18 0.13 0.15 0.19 0.30 0.38 0.51 0.82 0.93 1.19 1.47 1.81 1.75 1.94 2.05 2.14 2.16 2.13 2.17 2.00 1.79 1.84 1.92 2.04 2.20 2.17 2.06 2.00 1.99 1.94 1.99 1.84 2.04 2.24 2.32 2.31 2.37 2.15 2.08 2.08 2.18 2.18 2.05 1.74 1.53 1.50
0.10 0.10 0.11 0.15 0.12 0.12 0.20 0.32 0.36 0.46 0.60 0.81 1.06 1.27 1.66 1.71 1.74 2.05 2.35 2.64 2.67 2.53 2.41 2.23 2.01 1.96 2.11 2.37 2.51 2.40 2.40 2.36 2.46 2.55 2.31 2.34 2.39 2.44 2.74 2.74 2.90 2.56 2.53 2.63 2.60 2.41 2.28 2.06 1.86
0.08 0.08 0.08 0.13 0.12 0.13 0.19 0.27 0.33 0.38 0.50 0.60 0.72 0.94 1.26 1.48 1.72 2.19 2.56 2.91 3.28 3.14 2.81 2.55 2.39 2.24 2.23 2.36 2.64 2.70 2.56 2.67 2.79 2.89 2.73 2.73 2.78 2.88 3.21 3.30 3.31 3.09 3.13 3.31 3.35 3.14 2.90 2.63 2.53
0.06 0.07 0.09 0.09 0.13 0.12 0.16 0.30 0.35 0.43 0.48 0.55 0.63 0.81 1.16 1.59 1.84 2.42 2.87 3.14 3.52 3.29 3.18 2.94 2.81 2.78 2.62 2.59 2.85 2.94 2.85 2.83 2.90 3.10 3.15 3.07 3.15 3.44 3.56 3.85 3.79 3.57 3.59 3.64 3.61 3.81 3.76 3.23 2.89
0.09 0.11 0.14 0.12 0.11 0.10 0.14 0.32 0.42 0.46 0.52 0.62 0.71 0.89 1.18 1.54 1.86 2.15 2.49 2.82 3.36 3.45 3.23 3.14 2.82 2.80 3.04 3.09 3.36 3.29 3.34 3.49 3.43 3.50 3.70 3.67 3.69 3.78 3.83 3.86 3.92 3.84 3.83 4.13 4.25 4.20 4.10 3.85 3.45
0.11 0.11 0.13 0.15 0.12 0.11 0.11 0.26 0.45 0.43 0.46 0.61 0.74 1.04 1.44 1.59 1.83 1.91 2.22 2.48 2.86 2.94 3.01 3.13 3.07 3.04 3.12 3.34 3.72 3.82 3.98 4.18 4.37 4.43 4.63 4.55 4.35 4.25 4.31 4.29 4.41 4.26 4.32 4.30 4.18 4.56 4.48 4.35 3.92
0.07 0.08 0.10 0.14 0.12 0.11 0.12 0.20 0.44 0.54 0.57 0.68 0.77 0.95 1.29 1.42 1.85 2.06 2.21 2.24 2.61 2.88 3.02 3.18 3.37 3.58 3.56 3.62 3.88 4.31 4.49 4.61 4.99 5.07 5.10 5.17 5.17 5.01 5.01 4.96 4.96 4.83 4.69 4.57 4.54 4.61 4.42 4.29 4.00
0.05 0.07 0.09 0.11 0.11 0.13 0.17 0.27 0.42 0.59 0.67 0.82 1.01 1.08 1.13 1.33 1.85 2.27 2.40 2.45 2.76 3.03 3.20 3.17 3.40 3.80 4.07 4.46 4.46 4.68 5.12 5.41 5.51 5.62 5.63 5.56 5.49 5.49 5.34 5.17 5.26 5.10 4.86 4.62 4.55 4.53 4.44 4.12 4.05
0.04 0.06 0.09 0.12 0.14 0.15 0.23 0.35 0.46 0.60 0.72 0.93 1.14 1.20 1.17 1.34 1.70 2.12 2.32 2.62 2.89 3.06 3.30 3.41 3.55 4.05 4.55 5.11 5.64 6.03 6.41 6.42 6.50 6.41 6.30 6.00 5.83 5.75 5.58 5.59 5.42 5.19 5.05 4.78 4.56 4.52 4.44 4.11 4.12
0.04 0.06 0.09 0.12 0.17 0.21 0.29 0.50 0.59 0.70 0.84 0.99 1.11 1.12 1.19 1.43 1.77 1.99 2.21 2.50 2.80 3.04 3.28 3.43 3.78 4.45 5.31 5.89 6.36 6.90 7.22 6.91 6.63 6.34 6.25 6.15 6.08 5.99 5.87 5.85 5.58 5.35 5.08 4.72 4.43 4.30 4.22 4.09 4.11
0.06 0.07 0.07 0.10 0.18 0.30 0.34 0.64 0.90 1.02 1.16 1.07 1.11 1.26 1.40 1.55 1.73 1.94 2.12 2.34 2.64 3.02 3.19 3.43 4.07 4.78 5.45 6.07 6.70 7.27 7.54 7.56 7.31 6.75 6.27 5.84 5.56 5.37 5.28 5.25 5.10 4.91 4.63 4.37 4.06 3.96 3.91 4.04 3.90
0.06 0.06 0.07 0.11 0.18 0.29 0.34 0.63 1.15 1.38 1.48 1.41 1.45 1.50 1.51 1.52 1.66 1.85 2.02 2.21 2.33 2.69 3.19 3.56 4.17 4.87 5.52 6.29 7.06 7.50 7.73 7.70 7.32 6.53 5.75 5.19 4.90 4.63 4.42 4.36 4.26 4.11 3.92 3.75 3.66 3.68 3.62 3.56 3.42
0.06 0.08 0.12 0.17 0.25 0.39 0.38 0.61 1.28 1.68 1.84 1.78 1.69 1.69 1.62 1.49 1.49 1.59 1.82 1.96 2.23 2.59 3.01 3.52 3.86 4.47 5.17 5.80 6.43 6.66 6.81 6.73 6.30 5.89 5.40 5.00 4.51 4.06 3.72 3.57 3.46 3.29 3.16 3.16 3.18 3.24 3.22 3.23 3.21
0.07 0.16 0.35 0.51 0.57 0.51 0.40 0.66 1.32 1.65 1.59 1.57 1.58 1.64 1.59 1.40 1.41 1.63 1.91 1.90 2.17 2.48 2.87 3.36 3.78 4.15 4.67 5.24 5.75 6.00 6.17 6.08 5.59 5.16 4.74 4.33 3.83 3.45 3.14 2.94 2.87 2.77 2.71 2.72 2.85 2.95 2.90 2.84 2.87
0.07 0.16 0.41 0.65 0.67 0.68 0.65 1.04 1.54 1.55 1.40 1.29 1.28 1.33 1.46 1.47 1.50 1.60 1.73 1.82 2.14 2.39 2.66 3.09 3.45 3.82 4.05 4.31 4.71 4.96 5.13 4.99 4.67 4.22 3.74 3.45 3.15 2.82 2.62 2.49 2.42 2.34 2.26 2.24 2.41 2.56 2.64 2.62 2.64
0.10 0.14 0.24 0.32 0.40 0.69 1.06 1.37 1.75 1.66 1.52 1.40 1.25 1.25 1.35 1.34 1.42 1.55 1.71 1.82 2.02 2.35 2.75 3.02 3.14 3.35 3.56 3.83 3.94 3.93 4.02 3.93 3.71 3.43 3.12 2.83 2.55 2.24 2.10 2.07 2.07 2.03 1.99 2.04 2.20 2.28 2.25 2.31 2.34
0.10 0.13 0.19 0.32 0.65 0.93 1.22 1.72 2.08 2.16 2.12 1.97 1.55 1.39 1.34 1.37 1.44 1.53 1.65 1.82 1.89 1.95 2.33 2.74 2.85 2.97 3.07 3.18 3.24 3.14 3.20 3.08 3.04 2.87 2.62 2.35 2.16 1.93 1.84 1.80 1.83 1.87 1.84 1.88 1.99 2.08 2.10 2.06 2.03
0.15 0.17 0.21 0.34 0.48 0.91 1.35 1.97 2.16 2.46 2.55 2.40 1.97 1.74 1.71 1.63 1.58 1.61 1.63 1.65 1.77 1.91 2.09 2.34 2.61 2.66 2.72 2.87 2.86 2.76 2.81 2.78 2.76 2.62 2.42 2.28 2.22 2.06 1.90 1.77 1.83 1.84 1.76 1.76 1.81 1.78 1.83 1.90 1.94
0.14 0.19 0.29 0.54 0.60 0.67 1.18 2.15 2.45 2.59 2.50 2.22 1.99 1.81 1.72 1.62 1.49 1.49 1.47 1.44 1.52 1.76 2.00 2.17 2.33 2.37 2.44 2.53 2.59 2.67 2.70 2.62 2.50 2.31 2.20 2.09 1.99 1.84 1.75 1.69 1.76 1.74 1.60 1.58 1.55 1.49 1.55 1.65 1.75

GEFSSGP_prec_meanprecacc_288.txt.gz
Total_Precipitation_Accumulation
0.03 0.03 0.03 0.06 0.14 0.30 0.48 0.44 0.41 0.41 0.44 0.35 0.32 0.35 0.49 0.64 0.88 1.59 0.98 0.54 0.36 0.26 0.30 0.27 0.33 0.29 0.25 0.27 0.31 0.39 0.51 0.51 0.53 0.51 0.48 0.46 0.47 0.44 0.44 0.47 0.51 0.61 0.75 0.77 0.79 0.88 1.00 1.03 1.05
0.03 0.04 0.05 0.09 0.20 0.42 0.55 0.44 0.46 0.42 0.40 0.38 0.34 0.34 0.40 0.53 0.43 0.52 0.44 0.43 0.36 0.26 0.27 0.24 0.29 0.32 0.27 0.27 0.31 0.42 0.55 0.56 0.61 0.55 0.51 0.51 0.49 0.49 0.50 0.54 0.57 0.69 0.81 0.85 0.89 0.92 0.94 0.96 0.98
0.02 0.03 0.06 0.13 0.26 0.40 0.55 0.44 0.49 0.43 0.39 0.38 0.44 0.48 0.54 0.66 0.59 0.57 0.50 0.46 0.42 0.33 0.29 0.27 0.27 0.30 0.30 0.31 0.32 0.45 0.57 0.59 0.67 0.63 0.61 0.62 0.60 0.54 0.53 0.56 0.60 0.68 0.82 0.84 0.83 0.82 0.80 0.87 0.93
0.02 0.04 0.07 0.19 0.32 0.30 0.44 0.46 0.45 0.49 0.45 0.43 0.47 0.63 0.64 0.62 0.59 0.59 0.55 0.55 0.47 0.42 0.35 0.28 0.31 0.31 0.36 0.39 0.40 0.53 0.57 0.65 0.74 0.73 0.73 0.74 0.73 0.67 0.63 0.67 0.70 0.70 0.78 0.81 0.81 0.84 0.85 0.88 0.94
0.03 0.05 0.10 0.23 0.28 0.25 0.34 0.43 0.55 0.58 0.56 0.51 0.56 0.84 1.05 0.92 0.82 0.76 0.62 0.57 0.60 0.50 0.42 0.33 0.36 0.42 0.47 0.51 0.53 0.67 0.66 0.74 0.85 0.90 0.87 0.82 0.80 0.76 0.73 0.77 0.80 0.78 0.77 0.79 0.83 0.89 0.88 0.87 0.96
0.02 0.06 0.17 0.27 0.25 0.23 0.31 0.42 0.51 0.55 0.48 0.45 0.61 1.05 1.55 1.32 1.04 1.10 0.98 0.71 0.68 0.55 0.47 0.40 0.41 0.55 0.67 0.70 0.69 0.79 0.76 0.83 0.94 1.02 0.99 0.89 0.80 0.74 0.74 0.78 0.81 0.85 0.88 0.83 0.80 0.80 0.81 0.87 0.99
0.03 0.09 0.18 0.25 0.34 0.33 0.35 0.40 0.51 0.47 0.46 0.58 0.83 1.28 1.69 1.52 1.24 1.27 1.22 0.94 0.83 0.69 0.56 0.50 0.49 0.67 0.89 0.93 0.84 0.84 0.82 0.86 0.98 1.14 1.15 1.00 0.87 0.79 0.78 0.82 0.85 0.91 0.91 0.81 0.74 0.75 0.79 0.84 0.89
0.02 0.06 0.14 0.20 0.38 0.42 0.36 0.41 0.47 0.44 0.52 0.74 0.96 1.26 1.57 1.55 1.32 1.19 1.15 1.11 1.06 1.02 0.83 0.71 0.72 0.81 0.91 0.92 0.95 0.91 0.89 0.97 1.07 1.18 1.20 1.10 0.99 0.90 0.90 0.86 0.91 0.91 0.96 0.92 0.88 0.86 0.87 0.87 0.89
0.02 0.06 0.13 0.22 0.36 0.42 0.38 0.39 0.39 0.40 0.48 0.74 0.85 0.89 1.20 1.33 1.26 1.30 1.27 1.18 1.18 1.18 1.26 1.19 1.08 1.07 1.05 1.00 1.02 1.08 1.06 1.09 1.13 1.19 1.17 1.10 1.08 1.18 1.14 0.99 1.03 1.06 1.16 1.21 1.14 1.09 1.07 1.03 1.04
0.04 0.11 0.14 0.18 0.23 0.30 0.36 0.40 0.37 0.42 0.47 0.68 0.99 0.97 0.96 1.16 1.34 1.48 1.52 1.41 1.39 1.42 1.55 1.59 1.57 1.52 1.44 1.32 1.44 1.46 1.28 1.24 1.21 1.33 1.23 1.19 1.44 1.54 1.38 1.47 1.48 1.48 1.47 1.49 1.44 1.34 1.26 1.18 1.11
0.05 0.11 0.15 0.20 0.16 0.21 0.28 0.33 0.33 0.45 0.64 0.70 1.06 1.41 1.27 1.35 1.67 1.96 1.83 1.83 1.88 1.83 1.64 1.58 1.85 1.95 2.00 2.06 1.89 1.82 1.77 1.75 1.67 1.77 1.68 1.70 1.90 1.82 1.83 1.90 1.78 1.68 1.68 1.69 1.80 1.62 1.28 1.19 1.33
0.08 0.11 0.15 0.18 0.13 0.15 0.19 0.30 0.38 0.51 0.82 0.93 1.19 1.48 1.82 1.76 1.95 2.07 2.16 2.19 2.15 2.18 2.01 1.79 1.85 1.93 2.08 2.26 2.21 2.09 2.02 2.00 1.95 2.00 1.85 2.05 2.25 2.32 2.32 2.37 2.16 2.10 2.09 2.19 2.20 2.07 1.75 1.53 1.50
0.10 0.10 0.11 0.15 0.12 0.12 0.20 0.32 0.36 0.46 0.60 0.81 1.07 1.28 1.67 1.72 1.75 2.06 2.37 2.66 2.69 2.55 2.43 2.26 2.05 2.00 2.14 2.42 2.55 2.43 2.42 2.36 2.46 2.56 2.32 2.35 2.40 2.45 2.74 2.74 2.91 2.57 2.54 2.65 2.61 2.41 2.29 2.07 1.87
0.08 0.08 0.08 0.13 0.12 0.13 0.19 0.27 0.33 0.38 0.50 0.61 0.72 0.96 1.27 1.50 1.73 2.20 2.57 2.93 3.30 3.16 2.83 2.57 2.42 2.27 2.27 2.41 2.70 2.74 2.57 2.68 2.80 2.89 2.74 2.74 2.79 2.88 3.21 3.31 3.31 3.10 3.15 3.33 3.36 3.15 2.91 2.63 2.53
0.06 0.07 0.09 0.10 0.13 0.12 0.16 0.30 0.35 0.43 0.48 0.56 0.64 0.83 1.18 1.61 1.86 2.43 2.88 3.16 3.53 3.30 3.19 2.96 2.82 2.81 2.64 2.61 2.89 2.98 2.88 2.85 2.92 3.10 3.16 3.09 3.16 3.45 3.56 3.86 3.80 3.59 3.61 3.66 3.62 3.82 3.77 3.24 2.90
0.09 0.11 0.14 0.13 0.11 0.10 0.14 0.32 0.42 0.46 0.52 0.62 0.72 0.91 1.20 1.57 1.88 2.17 2.52 2.84 3.38 3.46 3.24 3.16 2.84 2.81 3.06 3.11 3.39 3.34 3.40 3.54 3.49 3.53 3.72 3.68 3.70 3.80 3.84 3.87 3.93 3.86 3.85 4.15 4.27 4.23 4.12 3.87 3.47
0.11 0.11 0.13 0.15 0.13 0.11 0.11 0.27 0.45 0.43 0.46 0.61 0.75 1.07 1.47 1.61 1.85 1.93 2.24 2.50 2.88 2.95 3.02 3.14 3.08 3.06 3.13 3.35 3.76 3.89 4.10 4.29 4.44 4.48 4.67 4.60 4.39 4.27 4.33 4.30 4.42 4.28 4.34 4.32 4.20 4.59 4.51 4.38 3.96
0.07 0.08 0.10 0.14 0.12 0.11 0.12 0.20 0.44 0.54 0.57 0.68 0.77 0.96 1.31 1.46 1.88 2.11 2.23 2.25 2.62 2.89 3.03 3.19 3.38 3.60 3.58 3.65 3.92 4.38 4.61 4.77 5.11 5.15 5.15 5.22 5.22 5.05 5.03 4.98 4.98 4.84 4.71 4.59 4.57 4.66 4.47 4.34 4.05
0.05 0.07 0.09 0.11 0.11 0.13 0.17 0.27 0.43 0.59 0.67 0.83 1.01 1.09 1.16 1.36 1.88 2.30 2.41 2.45 2.77 3.04 3.21 3.18 3.41 3.82 4.08 4.48 4.48 4.72 5.21 5.55 5.66 5.72 5.69 5.61 5.54 5.54 5.39 5.22 5.29 5.12 4.88 4.65 4.59 4.58 4.49 4.17 4.10
0.04 0.06 0.09 0.12 0.14 0.16 0.23 0.36 0.46 0.60 0.72 0.94 1.15 1.21 1.19 1.37 1.73 2.16 2.34 2.63 2.90 3.06 3.30 3.42 3.57 4.06 4.56 5.14 5.68 6.07 6.49 6.51 6.61 6.53 6.39 6.06 5.90 5.83 5.64 5.65 5.47 5.24 5.10 4.83 4.62 4.59 4.50 4.18 4.20
0.04 0.06 0.09 0.12 0.17 0.21 0.29 0.50 0.60 0.71 0.85 1.00 1.11 1.13 1.21 1.45 1.79 2.02 2.24 2.52 2.82 3.05 3.29 3.45 3.80 4.46 5.33 5.91 6.41 6.96 7.29 6.98 6.69 6.40 6.31 6.20 6.13 6.06 5.94 5.90 5.62 5.40 5.13 4.78 4.52 4.40 4.33 4.21 4.21
0.06 0.07 0.07 0.10 0.18 0.30 0.34 0.64 0.90 1.02 1.17 1.07 1.12 1.27 1.42 1.57 1.76 1.98 2.16 2.37 2.66 3.04 3.21 3.45 4.09 4.80 5.48 6.10 6.73 7.32 7.58 7.58 7.34 6.77 6.29 5.87 5.60 5.41 5.34 5.33 5.18 4.98 4.70 4.45 4.13 4.04 3.99 4.13 3.98
0.06 0.06 0.07 0.11 0.18 0.29 0.34 0.63 1.15 1.38 1.48 1.41 1.46 1.50 1.52 1.54 1.69 1.88 2.08 2.26 2.36 2.72 3.22 3.58 4.20 4.90 5.55 6.34 7.10 7.54 7.75 7.71 7.34 6.55 5.76 5.21 4.92 4.67 4.48 4.44 4.34 4.18 3.98 3.81 3.73 3.76 3.70 3.65 3.51
0.06 0.08 0.12 0.17 0.25 0.39 0.38 0.61 1.29 1.68 1.84 1.79 1.70 1.70 1.63 1.52 1.53 1.64 1.88 2.01 2.27 2.64 3.05 3.56 3.90 4.52 5.22 5.86 6.49 6.71 6.86 6.78 6.34 5.91 5.41 5.01 4.52 4.09 3.76 3.64 3.53 3.35 3.21 3.20 3.21 3.29 3.26 3.28 3.26
0.08 0.16 0.35 0.51 0.57 0.51 0.40 0.67 1.33 1.65 1.59 1.59 1.59 1.65 1.62 1.43 1.46 1.68 1.96 1.94 2.21 2.53 2.92 3.42 3.84 4.21 4.75 5.33 5.84 6.10 6.27 6.18 5.69 5.23 4.80 4.37 3.87 3.47 3.16 2.97 2.90 2.80 2.74 2.74 2.89 2.99 2.93 2.88 2.91
0.08 0.16 0.42 0.65 0.67 0.68 0.65 1.04 1.55 1.56 1.40 1.30 1.29 1.34 1.48 1.52 1.54 1.64 1.76 1.86 2.18 2.45 2.74 3.14 3.48 3.86 4.11 4.39 4.79 5.05 5.24 5.11 4.77 4.30 3.82 3.51 3.21 2.87 2.67 2.53 2.46 2.39 2.31 2.28 2.45 2.60 2.67 2.66 2.69
0.10 0.15 0.24 0.33 0.40 0.69 1.07 1.38 1.76 1.66 1.53 1.42 1.27 1.27 1.38 1.37 1.44 1.58 1.74 1.86 2.06 2.41 2.85 3.08 3.17 3.38 3.59 3.87 4.01 4.03 4.12 4.01 3.78 3.49 3.18 2.89 2.62 2.31 2.16 2.12 2.13 2.09 2.06 2.10 2.25 2.32 2.28 2.35 2.39
0.10 0.13 0.19 0.33 0.65 0.94 1.22 1.73 2.09 2.17 2.14 2.01 1.59 1.41 1.36 1.39 1.46 1.56 1.69 1.88 1.93 2.00 2.39 2.77 2.87 2.99 3.09 3.21 3.28 3.20 3.27 3.16 3.11 2.93 2.68 2.42 2.23 2.00 1.91 1.87 1.90 1.93 1.90 1.93 2.02 2.12 2.15 2.12 2.09
0.15 0.17 0.22 0.34 0.48 0.91 1.35 1.98 2.17 2.47 2.57 2.43 1.99 1.76 1.73 1.66 1.61 1.63 1.65 1.69 1.81 1.94 2.12 2.37 2.62 2.68 2.75 2.91 2.91 2.80 2.87 2.85 2.84 2.70 2.51 2.36 2.32 2.18 2.00 1.85 1.91 1.91 1.84 1.82 1.85 1.81 1.88 1.95 1.98
0.14 0.19 0.29 0.55 0.60 0.68 1.20 2.16 2.46 2.61 2.51 2.24 2.02 1.85 1.75 1.65 1.52 1.51 1.48 1.46 1.54 1.78 2.03 2.20 2.35 2.39 2.47 2.57 2.66 2.75 2.78 2.70 2.58 2.41 2.29 2.18 2.08 1.95 1.87 1.82 1.85 1.81 1.68 1.68 1.63 1.56 1.62 1.73 1.82